<?xml version="1.0" encoding="UTF-8" standalone="no" ?>
<gpx xmlns="http://www.topografix.com/GPX/1/1" xmlns:xsi="http://www.w3.org/2001/XMLSchema-instance" xsi:schemaLocation="http://www.topografix.com/GPX/1/1 http://www.topografix.com/GPX/1/1/gpx.xsd" version="1.1" creator="VisuGPX - https://www.visugpx.com">
  <metadata>
    <name>240710</name>
    <desc><![CDATA[Saint Samson sur Rance ==> Plouer sur Rance]]></desc>
  </metadata>
  <trk>
    <name><![CDATA[24/07/2010 08:42:35]]></name>
    <trkseg>
      <trkpt lat="48.50896" lon="-2.00144">
        <ele>110</ele>
        <time>2010-07-24T08:54:02</time>
      </trkpt>
      <trkpt lat="48.50894" lon="-2.0012">
        <ele>112</ele>
        <time>2010-07-24T08:54:05</time>
      </trkpt>
      <trkpt lat="48.50893" lon="-2.00095">
        <ele>116.5</ele>
        <time>2010-07-24T08:54:08</time>
      </trkpt>
      <trkpt lat="48.50893" lon="-2.00074">
        <ele>116</ele>
        <time>2010-07-24T08:54:11</time>
      </trkpt>
      <trkpt lat="48.50894" lon="-2.00058">
        <ele>114.5</ele>
        <time>2010-07-24T08:54:14</time>
      </trkpt>
      <trkpt lat="48.50892" lon="-2.00036">
        <ele>116.5</ele>
        <time>2010-07-24T08:54:17</time>
      </trkpt>
      <trkpt lat="48.50888" lon="-2.00018">
        <ele>111</ele>
        <time>2010-07-24T08:54:20</time>
      </trkpt>
      <trkpt lat="48.50884" lon="-1.99998">
        <ele>111</ele>
        <time>2010-07-24T08:54:23</time>
      </trkpt>
      <trkpt lat="48.50875" lon="-1.99985">
        <ele>111</ele>
        <time>2010-07-24T08:54:26</time>
      </trkpt>
      <trkpt lat="48.50871" lon="-1.99967">
        <ele>110.5</ele>
        <time>2010-07-24T08:54:29</time>
      </trkpt>
      <trkpt lat="48.50862" lon="-1.9995">
        <ele>111</ele>
        <time>2010-07-24T08:54:32</time>
      </trkpt>
      <trkpt lat="48.50846" lon="-1.99934">
        <ele>111</ele>
        <time>2010-07-24T08:54:35</time>
      </trkpt>
      <trkpt lat="48.50842" lon="-1.99921">
        <ele>110.5</ele>
        <time>2010-07-24T08:54:38</time>
      </trkpt>
      <trkpt lat="48.50837" lon="-1.99905">
        <ele>110.5</ele>
        <time>2010-07-24T08:54:41</time>
      </trkpt>
      <trkpt lat="48.50831" lon="-1.9989">
        <ele>110.5</ele>
        <time>2010-07-24T08:54:44</time>
      </trkpt>
      <trkpt lat="48.50843" lon="-1.99908">
        <ele>110</ele>
        <time>2010-07-24T08:54:47</time>
      </trkpt>
      <trkpt lat="48.5084" lon="-1.99902">
        <ele>112</ele>
        <time>2010-07-24T08:54:50</time>
      </trkpt>
      <trkpt lat="48.50845" lon="-1.99896">
        <ele>110</ele>
        <time>2010-07-24T08:54:53</time>
      </trkpt>
      <trkpt lat="48.50855" lon="-1.99893">
        <ele>109.5</ele>
        <time>2010-07-24T08:54:56</time>
      </trkpt>
      <trkpt lat="48.50865" lon="-1.99889">
        <ele>108.5</ele>
        <time>2010-07-24T08:54:59</time>
      </trkpt>
      <trkpt lat="48.5089" lon="-1.99879">
        <ele>109.5</ele>
        <time>2010-07-24T08:55:05</time>
      </trkpt>
      <trkpt lat="48.50903" lon="-1.99874">
        <ele>110.5</ele>
        <time>2010-07-24T08:55:08</time>
      </trkpt>
      <trkpt lat="48.50915" lon="-1.99869">
        <ele>110</ele>
        <time>2010-07-24T08:55:11</time>
      </trkpt>
      <trkpt lat="48.50928" lon="-1.9986">
        <ele>109.5</ele>
        <time>2010-07-24T08:55:14</time>
      </trkpt>
      <trkpt lat="48.50941" lon="-1.99849">
        <ele>108</ele>
        <time>2010-07-24T08:55:17</time>
      </trkpt>
      <trkpt lat="48.50954" lon="-1.99835">
        <ele>107</ele>
        <time>2010-07-24T08:55:20</time>
      </trkpt>
      <trkpt lat="48.50966" lon="-1.99822">
        <ele>107</ele>
        <time>2010-07-24T08:55:23</time>
      </trkpt>
      <trkpt lat="48.50981" lon="-1.99807">
        <ele>105.5</ele>
        <time>2010-07-24T08:55:26</time>
      </trkpt>
      <trkpt lat="48.50996" lon="-1.99794">
        <ele>104.5</ele>
        <time>2010-07-24T08:55:29</time>
      </trkpt>
      <trkpt lat="48.51013" lon="-1.99786">
        <ele>103</ele>
        <time>2010-07-24T08:55:32</time>
      </trkpt>
      <trkpt lat="48.51031" lon="-1.99782">
        <ele>102.5</ele>
        <time>2010-07-24T08:55:35</time>
      </trkpt>
      <trkpt lat="48.51049" lon="-1.99779">
        <ele>101.5</ele>
        <time>2010-07-24T08:55:38</time>
      </trkpt>
      <trkpt lat="48.51065" lon="-1.99773">
        <ele>102</ele>
        <time>2010-07-24T08:55:41</time>
      </trkpt>
      <trkpt lat="48.51077" lon="-1.99765">
        <ele>102</ele>
        <time>2010-07-24T08:55:44</time>
      </trkpt>
      <trkpt lat="48.51082" lon="-1.9976">
        <ele>102.5</ele>
        <time>2010-07-24T08:55:47</time>
      </trkpt>
      <trkpt lat="48.51082" lon="-1.99759">
        <ele>102</ele>
        <time>2010-07-24T08:55:50</time>
      </trkpt>
      <trkpt lat="48.51081" lon="-1.99759">
        <ele>102</ele>
        <time>2010-07-24T08:55:53</time>
      </trkpt>
      <trkpt lat="48.51081" lon="-1.99759">
        <ele>102</ele>
        <time>2010-07-24T08:55:56</time>
      </trkpt>
      <trkpt lat="48.51081" lon="-1.99759">
        <ele>101.5</ele>
        <time>2010-07-24T08:55:59</time>
      </trkpt>
      <trkpt lat="48.51081" lon="-1.99759">
        <ele>101.5</ele>
        <time>2010-07-24T08:56:02</time>
      </trkpt>
      <trkpt lat="48.51081" lon="-1.99759">
        <ele>101.5</ele>
        <time>2010-07-24T08:56:05</time>
      </trkpt>
      <trkpt lat="48.51081" lon="-1.9976">
        <ele>102</ele>
        <time>2010-07-24T08:56:08</time>
      </trkpt>
      <trkpt lat="48.51084" lon="-1.99763">
        <ele>101.5</ele>
        <time>2010-07-24T08:56:11</time>
      </trkpt>
      <trkpt lat="48.51086" lon="-1.99765">
        <ele>101</ele>
        <time>2010-07-24T08:56:14</time>
      </trkpt>
      <trkpt lat="48.51086" lon="-1.99765">
        <ele>100.5</ele>
        <time>2010-07-24T08:56:17</time>
      </trkpt>
      <trkpt lat="48.51086" lon="-1.99765">
        <ele>100.5</ele>
        <time>2010-07-24T08:56:20</time>
      </trkpt>
      <trkpt lat="48.51086" lon="-1.99765">
        <ele>101</ele>
        <time>2010-07-24T08:56:23</time>
      </trkpt>
      <trkpt lat="48.51086" lon="-1.99765">
        <ele>101</ele>
        <time>2010-07-24T08:56:26</time>
      </trkpt>
      <trkpt lat="48.51086" lon="-1.99765">
        <ele>100.5</ele>
        <time>2010-07-24T08:56:29</time>
      </trkpt>
      <trkpt lat="48.51087" lon="-1.99767">
        <ele>100.5</ele>
        <time>2010-07-24T08:56:32</time>
      </trkpt>
      <trkpt lat="48.51087" lon="-1.99767">
        <ele>100.5</ele>
        <time>2010-07-24T08:56:35</time>
      </trkpt>
      <trkpt lat="48.51088" lon="-1.99768">
        <ele>99.5</ele>
        <time>2010-07-24T08:56:38</time>
      </trkpt>
      <trkpt lat="48.51088" lon="-1.99768">
        <ele>99.5</ele>
        <time>2010-07-24T08:56:41</time>
      </trkpt>
      <trkpt lat="48.51088" lon="-1.99768">
        <ele>99.5</ele>
        <time>2010-07-24T08:56:44</time>
      </trkpt>
      <trkpt lat="48.51088" lon="-1.99768">
        <ele>99.5</ele>
        <time>2010-07-24T08:56:47</time>
      </trkpt>
      <trkpt lat="48.51088" lon="-1.99768">
        <ele>99.5</ele>
        <time>2010-07-24T08:56:50</time>
      </trkpt>
      <trkpt lat="48.51088" lon="-1.99768">
        <ele>99.5</ele>
        <time>2010-07-24T08:56:53</time>
      </trkpt>
      <trkpt lat="48.51088" lon="-1.99768">
        <ele>100</ele>
        <time>2010-07-24T08:56:56</time>
      </trkpt>
      <trkpt lat="48.51088" lon="-1.99768">
        <ele>100</ele>
        <time>2010-07-24T08:56:59</time>
      </trkpt>
      <trkpt lat="48.51088" lon="-1.99769">
        <ele>101</ele>
        <time>2010-07-24T08:57:02</time>
      </trkpt>
      <trkpt lat="48.51088" lon="-1.99769">
        <ele>101</ele>
        <time>2010-07-24T08:57:05</time>
      </trkpt>
      <trkpt lat="48.51088" lon="-1.99769">
        <ele>101</ele>
        <time>2010-07-24T08:57:08</time>
      </trkpt>
      <trkpt lat="48.51088" lon="-1.9977">
        <ele>101</ele>
        <time>2010-07-24T08:57:11</time>
      </trkpt>
      <trkpt lat="48.51091" lon="-1.99875">
        <ele>100</ele>
        <time>2010-07-24T08:57:14</time>
      </trkpt>
      <trkpt lat="48.5109" lon="-1.99886">
        <ele>100</ele>
        <time>2010-07-24T08:57:17</time>
      </trkpt>
      <trkpt lat="48.5109" lon="-1.99895">
        <ele>100</ele>
        <time>2010-07-24T08:57:20</time>
      </trkpt>
      <trkpt lat="48.51088" lon="-1.99902">
        <ele>100</ele>
        <time>2010-07-24T08:57:23</time>
      </trkpt>
      <trkpt lat="48.51087" lon="-1.99909">
        <ele>100.5</ele>
        <time>2010-07-24T08:57:26</time>
      </trkpt>
      <trkpt lat="48.51087" lon="-1.99918">
        <ele>100.5</ele>
        <time>2010-07-24T08:57:29</time>
      </trkpt>
      <trkpt lat="48.51085" lon="-1.99924">
        <ele>100</ele>
        <time>2010-07-24T08:57:32</time>
      </trkpt>
      <trkpt lat="48.51086" lon="-1.99932">
        <ele>100</ele>
        <time>2010-07-24T08:57:35</time>
      </trkpt>
      <trkpt lat="48.51086" lon="-1.99939">
        <ele>99.5</ele>
        <time>2010-07-24T08:57:38</time>
      </trkpt>
      <trkpt lat="48.51088" lon="-1.99947">
        <ele>99.5</ele>
        <time>2010-07-24T08:57:41</time>
      </trkpt>
      <trkpt lat="48.51089" lon="-1.99954">
        <ele>99.5</ele>
        <time>2010-07-24T08:57:44</time>
      </trkpt>
      <trkpt lat="48.51089" lon="-1.99962">
        <ele>99.5</ele>
        <time>2010-07-24T08:57:47</time>
      </trkpt>
      <trkpt lat="48.51091" lon="-1.99973">
        <ele>99.5</ele>
        <time>2010-07-24T08:57:50</time>
      </trkpt>
      <trkpt lat="48.5109" lon="-1.99981">
        <ele>99.5</ele>
        <time>2010-07-24T08:57:53</time>
      </trkpt>
      <trkpt lat="48.5109" lon="-1.99987">
        <ele>100</ele>
        <time>2010-07-24T08:57:56</time>
      </trkpt>
      <trkpt lat="48.5109" lon="-1.99994">
        <ele>100</ele>
        <time>2010-07-24T08:57:59</time>
      </trkpt>
      <trkpt lat="48.51089" lon="-2.00002">
        <ele>100.5</ele>
        <time>2010-07-24T08:58:02</time>
      </trkpt>
      <trkpt lat="48.51089" lon="-2.00008">
        <ele>100.5</ele>
        <time>2010-07-24T08:58:05</time>
      </trkpt>
      <trkpt lat="48.51092" lon="-2.00024">
        <ele>100</ele>
        <time>2010-07-24T08:58:08</time>
      </trkpt>
      <trkpt lat="48.51092" lon="-2.00034">
        <ele>99.5</ele>
        <time>2010-07-24T08:58:11</time>
      </trkpt>
      <trkpt lat="48.51093" lon="-2.00043">
        <ele>99.5</ele>
        <time>2010-07-24T08:58:14</time>
      </trkpt>
      <trkpt lat="48.51094" lon="-2.00051">
        <ele>99.5</ele>
        <time>2010-07-24T08:58:17</time>
      </trkpt>
      <trkpt lat="48.51094" lon="-2.00058">
        <ele>99.5</ele>
        <time>2010-07-24T08:58:20</time>
      </trkpt>
      <trkpt lat="48.51094" lon="-2.00069">
        <ele>100</ele>
        <time>2010-07-24T08:58:23</time>
      </trkpt>
      <trkpt lat="48.51094" lon="-2.00079">
        <ele>100</ele>
        <time>2010-07-24T08:58:26</time>
      </trkpt>
      <trkpt lat="48.51094" lon="-2.00089">
        <ele>100.5</ele>
        <time>2010-07-24T08:58:29</time>
      </trkpt>
      <trkpt lat="48.51096" lon="-2.00108">
        <ele>102</ele>
        <time>2010-07-24T08:58:32</time>
      </trkpt>
      <trkpt lat="48.51096" lon="-2.00118">
        <ele>102</ele>
        <time>2010-07-24T08:58:35</time>
      </trkpt>
      <trkpt lat="48.51097" lon="-2.00133">
        <ele>102.5</ele>
        <time>2010-07-24T08:58:40</time>
      </trkpt>
      <trkpt lat="48.51098" lon="-2.00147">
        <ele>103</ele>
        <time>2010-07-24T08:58:43</time>
      </trkpt>
      <trkpt lat="48.51099" lon="-2.00156">
        <ele>102.5</ele>
        <time>2010-07-24T08:58:46</time>
      </trkpt>
      <trkpt lat="48.51098" lon="-2.00174">
        <ele>103.5</ele>
        <time>2010-07-24T08:58:52</time>
      </trkpt>
      <trkpt lat="48.51095" lon="-2.00193">
        <ele>105</ele>
        <time>2010-07-24T08:58:55</time>
      </trkpt>
      <trkpt lat="48.51094" lon="-2.00204">
        <ele>105.5</ele>
        <time>2010-07-24T08:58:58</time>
      </trkpt>
      <trkpt lat="48.51092" lon="-2.00221">
        <ele>105.5</ele>
        <time>2010-07-24T08:59:04</time>
      </trkpt>
      <trkpt lat="48.51094" lon="-2.00239">
        <ele>107.5</ele>
        <time>2010-07-24T08:59:07</time>
      </trkpt>
      <trkpt lat="48.51092" lon="-2.00249">
        <ele>108</ele>
        <time>2010-07-24T08:59:10</time>
      </trkpt>
      <trkpt lat="48.51087" lon="-2.00274">
        <ele>108</ele>
        <time>2010-07-24T08:59:16</time>
      </trkpt>
      <trkpt lat="48.51083" lon="-2.00284">
        <ele>107</ele>
        <time>2010-07-24T08:59:19</time>
      </trkpt>
      <trkpt lat="48.5108" lon="-2.00294">
        <ele>106</ele>
        <time>2010-07-24T08:59:22</time>
      </trkpt>
      <trkpt lat="48.51077" lon="-2.00314">
        <ele>105.5</ele>
        <time>2010-07-24T08:59:28</time>
      </trkpt>
      <trkpt lat="48.51078" lon="-2.00326">
        <ele>104.5</ele>
        <time>2010-07-24T08:59:31</time>
      </trkpt>
      <trkpt lat="48.51076" lon="-2.00335">
        <ele>104</ele>
        <time>2010-07-24T08:59:34</time>
      </trkpt>
      <trkpt lat="48.5107" lon="-2.00362">
        <ele>104.5</ele>
        <time>2010-07-24T08:59:40</time>
      </trkpt>
      <trkpt lat="48.51065" lon="-2.00374">
        <ele>105.5</ele>
        <time>2010-07-24T08:59:43</time>
      </trkpt>
      <trkpt lat="48.51062" lon="-2.00384">
        <ele>105.5</ele>
        <time>2010-07-24T08:59:46</time>
      </trkpt>
      <trkpt lat="48.51066" lon="-2.00402">
        <ele>105.5</ele>
        <time>2010-07-24T08:59:52</time>
      </trkpt>
      <trkpt lat="48.51066" lon="-2.00408">
        <ele>105</ele>
        <time>2010-07-24T08:59:55</time>
      </trkpt>
      <trkpt lat="48.51064" lon="-2.00414">
        <ele>104.5</ele>
        <time>2010-07-24T08:59:58</time>
      </trkpt>
      <trkpt lat="48.51065" lon="-2.00422">
        <ele>105</ele>
        <time>2010-07-24T09:00:01</time>
      </trkpt>
      <trkpt lat="48.51066" lon="-2.00436">
        <ele>105</ele>
        <time>2010-07-24T09:00:04</time>
      </trkpt>
      <trkpt lat="48.51051" lon="-2.0046">
        <ele>106.5</ele>
        <time>2010-07-24T09:00:10</time>
      </trkpt>
      <trkpt lat="48.51047" lon="-2.00476">
        <ele>107</ele>
        <time>2010-07-24T09:00:13</time>
      </trkpt>
      <trkpt lat="48.51043" lon="-2.00488">
        <ele>107</ele>
        <time>2010-07-24T09:00:16</time>
      </trkpt>
      <trkpt lat="48.51035" lon="-2.005">
        <ele>106</ele>
        <time>2010-07-24T09:00:19</time>
      </trkpt>
      <trkpt lat="48.5103" lon="-2.00511">
        <ele>106</ele>
        <time>2010-07-24T09:00:22</time>
      </trkpt>
      <trkpt lat="48.51026" lon="-2.00516">
        <ele>105.5</ele>
        <time>2010-07-24T09:00:25</time>
      </trkpt>
      <trkpt lat="48.51023" lon="-2.00525">
        <ele>106</ele>
        <time>2010-07-24T09:00:28</time>
      </trkpt>
      <trkpt lat="48.51019" lon="-2.00533">
        <ele>106</ele>
        <time>2010-07-24T09:00:31</time>
      </trkpt>
      <trkpt lat="48.51014" lon="-2.00541">
        <ele>105</ele>
        <time>2010-07-24T09:00:34</time>
      </trkpt>
      <trkpt lat="48.51011" lon="-2.00552">
        <ele>105</ele>
        <time>2010-07-24T09:00:37</time>
      </trkpt>
      <trkpt lat="48.51007" lon="-2.00572">
        <ele>105.5</ele>
        <time>2010-07-24T09:00:46</time>
      </trkpt>
      <trkpt lat="48.5101" lon="-2.00588">
        <ele>105.5</ele>
        <time>2010-07-24T09:00:52</time>
      </trkpt>
      <trkpt lat="48.51028" lon="-2.00609">
        <ele>101</ele>
        <time>2010-07-24T09:00:55</time>
      </trkpt>
      <trkpt lat="48.51035" lon="-2.00616">
        <ele>100</ele>
        <time>2010-07-24T09:00:58</time>
      </trkpt>
      <trkpt lat="48.51041" lon="-2.00624">
        <ele>98.5</ele>
        <time>2010-07-24T09:01:01</time>
      </trkpt>
      <trkpt lat="48.51046" lon="-2.00627">
        <ele>98</ele>
        <time>2010-07-24T09:01:04</time>
      </trkpt>
      <trkpt lat="48.51054" lon="-2.00633">
        <ele>97.5</ele>
        <time>2010-07-24T09:01:07</time>
      </trkpt>
      <trkpt lat="48.51063" lon="-2.00639">
        <ele>97.5</ele>
        <time>2010-07-24T09:01:10</time>
      </trkpt>
      <trkpt lat="48.51071" lon="-2.00644">
        <ele>97.5</ele>
        <time>2010-07-24T09:01:13</time>
      </trkpt>
      <trkpt lat="48.5108" lon="-2.00649">
        <ele>97</ele>
        <time>2010-07-24T09:01:16</time>
      </trkpt>
      <trkpt lat="48.51089" lon="-2.00654">
        <ele>97</ele>
        <time>2010-07-24T09:01:19</time>
      </trkpt>
      <trkpt lat="48.51097" lon="-2.0066">
        <ele>97.5</ele>
        <time>2010-07-24T09:01:22</time>
      </trkpt>
      <trkpt lat="48.51103" lon="-2.00667">
        <ele>100</ele>
        <time>2010-07-24T09:01:25</time>
      </trkpt>
      <trkpt lat="48.51111" lon="-2.00672">
        <ele>99.5</ele>
        <time>2010-07-24T09:01:28</time>
      </trkpt>
      <trkpt lat="48.51116" lon="-2.00677">
        <ele>101</ele>
        <time>2010-07-24T09:01:31</time>
      </trkpt>
      <trkpt lat="48.51121" lon="-2.00682">
        <ele>102.5</ele>
        <time>2010-07-24T09:01:34</time>
      </trkpt>
      <trkpt lat="48.51126" lon="-2.0069">
        <ele>101</ele>
        <time>2010-07-24T09:01:37</time>
      </trkpt>
      <trkpt lat="48.51126" lon="-2.00702">
        <ele>105.5</ele>
        <time>2010-07-24T09:01:40</time>
      </trkpt>
      <trkpt lat="48.51133" lon="-2.00708">
        <ele>106</ele>
        <time>2010-07-24T09:01:43</time>
      </trkpt>
      <trkpt lat="48.51141" lon="-2.00715">
        <ele>107</ele>
        <time>2010-07-24T09:01:47</time>
      </trkpt>
      <trkpt lat="48.51149" lon="-2.00721">
        <ele>108</ele>
        <time>2010-07-24T09:01:50</time>
      </trkpt>
      <trkpt lat="48.51158" lon="-2.00726">
        <ele>108.5</ele>
        <time>2010-07-24T09:01:53</time>
      </trkpt>
      <trkpt lat="48.51176" lon="-2.00738">
        <ele>108.5</ele>
        <time>2010-07-24T09:01:58</time>
      </trkpt>
      <trkpt lat="48.51179" lon="-2.00753">
        <ele>109.5</ele>
        <time>2010-07-24T09:02:02</time>
      </trkpt>
      <trkpt lat="48.51184" lon="-2.00767">
        <ele>109</ele>
        <time>2010-07-24T09:02:05</time>
      </trkpt>
      <trkpt lat="48.51186" lon="-2.00779">
        <ele>109</ele>
        <time>2010-07-24T09:02:08</time>
      </trkpt>
      <trkpt lat="48.51188" lon="-2.00787">
        <ele>109</ele>
        <time>2010-07-24T09:02:11</time>
      </trkpt>
      <trkpt lat="48.51188" lon="-2.00795">
        <ele>109.5</ele>
        <time>2010-07-24T09:02:14</time>
      </trkpt>
      <trkpt lat="48.5119" lon="-2.00801">
        <ele>109.5</ele>
        <time>2010-07-24T09:02:17</time>
      </trkpt>
      <trkpt lat="48.51192" lon="-2.00818">
        <ele>110</ele>
        <time>2010-07-24T09:02:22</time>
      </trkpt>
      <trkpt lat="48.5119" lon="-2.00827">
        <ele>110.5</ele>
        <time>2010-07-24T09:02:26</time>
      </trkpt>
      <trkpt lat="48.51189" lon="-2.00835">
        <ele>110.5</ele>
        <time>2010-07-24T09:02:29</time>
      </trkpt>
      <trkpt lat="48.51185" lon="-2.00842">
        <ele>110.5</ele>
        <time>2010-07-24T09:02:32</time>
      </trkpt>
      <trkpt lat="48.51183" lon="-2.00847">
        <ele>111</ele>
        <time>2010-07-24T09:02:35</time>
      </trkpt>
      <trkpt lat="48.5118" lon="-2.00852">
        <ele>111.5</ele>
        <time>2010-07-24T09:02:38</time>
      </trkpt>
      <trkpt lat="48.5118" lon="-2.00861">
        <ele>111.5</ele>
        <time>2010-07-24T09:02:41</time>
      </trkpt>
      <trkpt lat="48.51181" lon="-2.00881">
        <ele>113.5</ele>
        <time>2010-07-24T09:02:44</time>
      </trkpt>
      <trkpt lat="48.51181" lon="-2.00889">
        <ele>114</ele>
        <time>2010-07-24T09:02:47</time>
      </trkpt>
      <trkpt lat="48.51182" lon="-2.009">
        <ele>114</ele>
        <time>2010-07-24T09:02:50</time>
      </trkpt>
      <trkpt lat="48.51183" lon="-2.00909">
        <ele>113.5</ele>
        <time>2010-07-24T09:02:53</time>
      </trkpt>
      <trkpt lat="48.51182" lon="-2.00918">
        <ele>113.5</ele>
        <time>2010-07-24T09:02:56</time>
      </trkpt>
      <trkpt lat="48.51182" lon="-2.00928">
        <ele>113.5</ele>
        <time>2010-07-24T09:02:59</time>
      </trkpt>
      <trkpt lat="48.51178" lon="-2.00937">
        <ele>114</ele>
        <time>2010-07-24T09:03:02</time>
      </trkpt>
      <trkpt lat="48.51177" lon="-2.00942">
        <ele>114</ele>
        <time>2010-07-24T09:03:05</time>
      </trkpt>
      <trkpt lat="48.51175" lon="-2.00957">
        <ele>114.5</ele>
        <time>2010-07-24T09:03:08</time>
      </trkpt>
      <trkpt lat="48.51173" lon="-2.00962">
        <ele>114</ele>
        <time>2010-07-24T09:03:11</time>
      </trkpt>
      <trkpt lat="48.51175" lon="-2.00973">
        <ele>114</ele>
        <time>2010-07-24T09:03:14</time>
      </trkpt>
      <trkpt lat="48.51177" lon="-2.00982">
        <ele>114</ele>
        <time>2010-07-24T09:03:17</time>
      </trkpt>
      <trkpt lat="48.5118" lon="-2.00991">
        <ele>113.5</ele>
        <time>2010-07-24T09:03:20</time>
      </trkpt>
      <trkpt lat="48.51181" lon="-2.01">
        <ele>113.5</ele>
        <time>2010-07-24T09:03:24</time>
      </trkpt>
      <trkpt lat="48.5118" lon="-2.01015">
        <ele>113</ele>
        <time>2010-07-24T09:03:29</time>
      </trkpt>
      <trkpt lat="48.51176" lon="-2.01032">
        <ele>112.5</ele>
        <time>2010-07-24T09:03:33</time>
      </trkpt>
      <trkpt lat="48.51174" lon="-2.01036">
        <ele>111.5</ele>
        <time>2010-07-24T09:03:36</time>
      </trkpt>
      <trkpt lat="48.51163" lon="-2.01048">
        <ele>110</ele>
        <time>2010-07-24T09:03:39</time>
      </trkpt>
      <trkpt lat="48.51153" lon="-2.01059">
        <ele>110.5</ele>
        <time>2010-07-24T09:03:45</time>
      </trkpt>
      <trkpt lat="48.51142" lon="-2.01072">
        <ele>109</ele>
        <time>2010-07-24T09:03:49</time>
      </trkpt>
      <trkpt lat="48.51138" lon="-2.01078">
        <ele>109</ele>
        <time>2010-07-24T09:03:52</time>
      </trkpt>
      <trkpt lat="48.51133" lon="-2.01089">
        <ele>108.5</ele>
        <time>2010-07-24T09:03:56</time>
      </trkpt>
      <trkpt lat="48.51122" lon="-2.01121">
        <ele>111.5</ele>
        <time>2010-07-24T09:04:01</time>
      </trkpt>
      <trkpt lat="48.51118" lon="-2.0113">
        <ele>112.5</ele>
        <time>2010-07-24T09:04:04</time>
      </trkpt>
      <trkpt lat="48.51117" lon="-2.01141">
        <ele>113</ele>
        <time>2010-07-24T09:04:08</time>
      </trkpt>
      <trkpt lat="48.51103" lon="-2.0116">
        <ele>114.5</ele>
        <time>2010-07-24T09:04:13</time>
      </trkpt>
      <trkpt lat="48.51098" lon="-2.01173">
        <ele>115.5</ele>
        <time>2010-07-24T09:04:16</time>
      </trkpt>
      <trkpt lat="48.51095" lon="-2.01183">
        <ele>116</ele>
        <time>2010-07-24T09:04:20</time>
      </trkpt>
      <trkpt lat="48.51087" lon="-2.01202">
        <ele>118</ele>
        <time>2010-07-24T09:04:25</time>
      </trkpt>
      <trkpt lat="48.51083" lon="-2.01214">
        <ele>118</ele>
        <time>2010-07-24T09:04:29</time>
      </trkpt>
      <trkpt lat="48.51079" lon="-2.0123">
        <ele>119</ele>
        <time>2010-07-24T09:04:32</time>
      </trkpt>
      <trkpt lat="48.51074" lon="-2.01248">
        <ele>120</ele>
        <time>2010-07-24T09:04:38</time>
      </trkpt>
      <trkpt lat="48.51071" lon="-2.01261">
        <ele>120.5</ele>
        <time>2010-07-24T09:04:41</time>
      </trkpt>
      <trkpt lat="48.51068" lon="-2.01272">
        <ele>120.5</ele>
        <time>2010-07-24T09:04:44</time>
      </trkpt>
      <trkpt lat="48.51064" lon="-2.01292">
        <ele>121</ele>
        <time>2010-07-24T09:04:50</time>
      </trkpt>
      <trkpt lat="48.51063" lon="-2.01305">
        <ele>121</ele>
        <time>2010-07-24T09:04:53</time>
      </trkpt>
      <trkpt lat="48.51063" lon="-2.01315">
        <ele>121.5</ele>
        <time>2010-07-24T09:04:56</time>
      </trkpt>
      <trkpt lat="48.51061" lon="-2.01326">
        <ele>122</ele>
        <time>2010-07-24T09:04:59</time>
      </trkpt>
      <trkpt lat="48.51061" lon="-2.01336">
        <ele>122</ele>
        <time>2010-07-24T09:05:02</time>
      </trkpt>
      <trkpt lat="48.51061" lon="-2.0135">
        <ele>122</ele>
        <time>2010-07-24T09:05:05</time>
      </trkpt>
      <trkpt lat="48.5106" lon="-2.0136">
        <ele>122.5</ele>
        <time>2010-07-24T09:05:08</time>
      </trkpt>
      <trkpt lat="48.51057" lon="-2.01368">
        <ele>124</ele>
        <time>2010-07-24T09:05:11</time>
      </trkpt>
      <trkpt lat="48.51055" lon="-2.01374">
        <ele>124.5</ele>
        <time>2010-07-24T09:05:14</time>
      </trkpt>
      <trkpt lat="48.51054" lon="-2.01383">
        <ele>125.5</ele>
        <time>2010-07-24T09:05:17</time>
      </trkpt>
      <trkpt lat="48.51054" lon="-2.01393">
        <ele>125.5</ele>
        <time>2010-07-24T09:05:20</time>
      </trkpt>
      <trkpt lat="48.51053" lon="-2.01402">
        <ele>125.5</ele>
        <time>2010-07-24T09:05:23</time>
      </trkpt>
      <trkpt lat="48.51052" lon="-2.01412">
        <ele>125.5</ele>
        <time>2010-07-24T09:05:26</time>
      </trkpt>
      <trkpt lat="48.51052" lon="-2.01422">
        <ele>126</ele>
        <time>2010-07-24T09:05:29</time>
      </trkpt>
      <trkpt lat="48.5105" lon="-2.01428">
        <ele>126.5</ele>
        <time>2010-07-24T09:05:32</time>
      </trkpt>
      <trkpt lat="48.51049" lon="-2.01437">
        <ele>126.5</ele>
        <time>2010-07-24T09:05:35</time>
      </trkpt>
      <trkpt lat="48.51049" lon="-2.01447">
        <ele>125.5</ele>
        <time>2010-07-24T09:05:38</time>
      </trkpt>
      <trkpt lat="48.5105" lon="-2.01456">
        <ele>125</ele>
        <time>2010-07-24T09:05:41</time>
      </trkpt>
      <trkpt lat="48.51051" lon="-2.01462">
        <ele>124.5</ele>
        <time>2010-07-24T09:05:44</time>
      </trkpt>
      <trkpt lat="48.51053" lon="-2.01472">
        <ele>123.5</ele>
        <time>2010-07-24T09:05:47</time>
      </trkpt>
      <trkpt lat="48.51056" lon="-2.01482">
        <ele>122.5</ele>
        <time>2010-07-24T09:05:50</time>
      </trkpt>
      <trkpt lat="48.51062" lon="-2.01492">
        <ele>121</ele>
        <time>2010-07-24T09:05:53</time>
      </trkpt>
      <trkpt lat="48.51065" lon="-2.01501">
        <ele>120</ele>
        <time>2010-07-24T09:05:56</time>
      </trkpt>
      <trkpt lat="48.51067" lon="-2.01507">
        <ele>120</ele>
        <time>2010-07-24T09:05:59</time>
      </trkpt>
      <trkpt lat="48.5107" lon="-2.01516">
        <ele>119</ele>
        <time>2010-07-24T09:06:02</time>
      </trkpt>
      <trkpt lat="48.51072" lon="-2.01524">
        <ele>119</ele>
        <time>2010-07-24T09:06:05</time>
      </trkpt>
      <trkpt lat="48.51073" lon="-2.0153">
        <ele>118.5</ele>
        <time>2010-07-24T09:06:08</time>
      </trkpt>
      <trkpt lat="48.51074" lon="-2.01537">
        <ele>118</ele>
        <time>2010-07-24T09:06:11</time>
      </trkpt>
      <trkpt lat="48.51075" lon="-2.01543">
        <ele>118.5</ele>
        <time>2010-07-24T09:06:14</time>
      </trkpt>
      <trkpt lat="48.51079" lon="-2.01554">
        <ele>118</ele>
        <time>2010-07-24T09:06:17</time>
      </trkpt>
      <trkpt lat="48.51084" lon="-2.01564">
        <ele>118</ele>
        <time>2010-07-24T09:06:20</time>
      </trkpt>
      <trkpt lat="48.51087" lon="-2.01577">
        <ele>116.5</ele>
        <time>2010-07-24T09:06:23</time>
      </trkpt>
      <trkpt lat="48.51089" lon="-2.01586">
        <ele>116</ele>
        <time>2010-07-24T09:06:26</time>
      </trkpt>
      <trkpt lat="48.51094" lon="-2.016">
        <ele>116</ele>
        <time>2010-07-24T09:06:29</time>
      </trkpt>
      <trkpt lat="48.51096" lon="-2.0161">
        <ele>116</ele>
        <time>2010-07-24T09:06:32</time>
      </trkpt>
      <trkpt lat="48.51096" lon="-2.01618">
        <ele>116.5</ele>
        <time>2010-07-24T09:06:35</time>
      </trkpt>
      <trkpt lat="48.51098" lon="-2.01627">
        <ele>116</ele>
        <time>2010-07-24T09:06:38</time>
      </trkpt>
      <trkpt lat="48.51098" lon="-2.01635">
        <ele>115.5</ele>
        <time>2010-07-24T09:06:41</time>
      </trkpt>
      <trkpt lat="48.511" lon="-2.0165">
        <ele>113.5</ele>
        <time>2010-07-24T09:06:44</time>
      </trkpt>
      <trkpt lat="48.51107" lon="-2.01658">
        <ele>112.5</ele>
        <time>2010-07-24T09:06:47</time>
      </trkpt>
      <trkpt lat="48.51112" lon="-2.0166">
        <ele>111</ele>
        <time>2010-07-24T09:06:50</time>
      </trkpt>
      <trkpt lat="48.51123" lon="-2.01663">
        <ele>108.5</ele>
        <time>2010-07-24T09:06:53</time>
      </trkpt>
      <trkpt lat="48.5113" lon="-2.01662">
        <ele>108.5</ele>
        <time>2010-07-24T09:06:56</time>
      </trkpt>
      <trkpt lat="48.51137" lon="-2.0166">
        <ele>109</ele>
        <time>2010-07-24T09:06:59</time>
      </trkpt>
      <trkpt lat="48.51144" lon="-2.01659">
        <ele>110</ele>
        <time>2010-07-24T09:07:02</time>
      </trkpt>
      <trkpt lat="48.51152" lon="-2.01657">
        <ele>109.5</ele>
        <time>2010-07-24T09:07:05</time>
      </trkpt>
      <trkpt lat="48.51157" lon="-2.01652">
        <ele>110</ele>
        <time>2010-07-24T09:07:08</time>
      </trkpt>
      <trkpt lat="48.51164" lon="-2.01649">
        <ele>111</ele>
        <time>2010-07-24T09:07:11</time>
      </trkpt>
      <trkpt lat="48.5117" lon="-2.01646">
        <ele>110.5</ele>
        <time>2010-07-24T09:07:14</time>
      </trkpt>
      <trkpt lat="48.51175" lon="-2.01642">
        <ele>111.5</ele>
        <time>2010-07-24T09:07:17</time>
      </trkpt>
      <trkpt lat="48.51179" lon="-2.01637">
        <ele>112</ele>
        <time>2010-07-24T09:07:21</time>
      </trkpt>
      <trkpt lat="48.51192" lon="-2.01628">
        <ele>114</ele>
        <time>2010-07-24T09:07:26</time>
      </trkpt>
      <trkpt lat="48.51198" lon="-2.01623">
        <ele>115.5</ele>
        <time>2010-07-24T09:07:29</time>
      </trkpt>
      <trkpt lat="48.51204" lon="-2.01617">
        <ele>115.5</ele>
        <time>2010-07-24T09:07:32</time>
      </trkpt>
      <trkpt lat="48.51209" lon="-2.0161">
        <ele>115.5</ele>
        <time>2010-07-24T09:07:35</time>
      </trkpt>
      <trkpt lat="48.51214" lon="-2.01604">
        <ele>115.5</ele>
        <time>2010-07-24T09:07:38</time>
      </trkpt>
      <trkpt lat="48.51218" lon="-2.01598">
        <ele>116</ele>
        <time>2010-07-24T09:07:41</time>
      </trkpt>
      <trkpt lat="48.51224" lon="-2.01597">
        <ele>117.5</ele>
        <time>2010-07-24T09:07:44</time>
      </trkpt>
      <trkpt lat="48.5123" lon="-2.01594">
        <ele>117.5</ele>
        <time>2010-07-24T09:07:47</time>
      </trkpt>
      <trkpt lat="48.51237" lon="-2.0159">
        <ele>117</ele>
        <time>2010-07-24T09:07:50</time>
      </trkpt>
      <trkpt lat="48.51244" lon="-2.01582">
        <ele>118.5</ele>
        <time>2010-07-24T09:07:53</time>
      </trkpt>
      <trkpt lat="48.5125" lon="-2.01578">
        <ele>119</ele>
        <time>2010-07-24T09:07:56</time>
      </trkpt>
      <trkpt lat="48.51256" lon="-2.01574">
        <ele>119</ele>
        <time>2010-07-24T09:07:59</time>
      </trkpt>
      <trkpt lat="48.51263" lon="-2.0157">
        <ele>119</ele>
        <time>2010-07-24T09:08:02</time>
      </trkpt>
      <trkpt lat="48.51277" lon="-2.01568">
        <ele>119.5</ele>
        <time>2010-07-24T09:08:08</time>
      </trkpt>
      <trkpt lat="48.51279" lon="-2.01564">
        <ele>119.5</ele>
        <time>2010-07-24T09:08:11</time>
      </trkpt>
      <trkpt lat="48.51281" lon="-2.01559">
        <ele>120</ele>
        <time>2010-07-24T09:08:14</time>
      </trkpt>
      <trkpt lat="48.51284" lon="-2.01554">
        <ele>120.5</ele>
        <time>2010-07-24T09:08:17</time>
      </trkpt>
      <trkpt lat="48.51286" lon="-2.0155">
        <ele>121</ele>
        <time>2010-07-24T09:08:20</time>
      </trkpt>
      <trkpt lat="48.51286" lon="-2.01548">
        <ele>121</ele>
        <time>2010-07-24T09:08:23</time>
      </trkpt>
      <trkpt lat="48.51287" lon="-2.01538">
        <ele>121.5</ele>
        <time>2010-07-24T09:08:26</time>
      </trkpt>
      <trkpt lat="48.51285" lon="-2.01534">
        <ele>121.5</ele>
        <time>2010-07-24T09:08:29</time>
      </trkpt>
      <trkpt lat="48.51284" lon="-2.01522">
        <ele>121</ele>
        <time>2010-07-24T09:08:32</time>
      </trkpt>
      <trkpt lat="48.51283" lon="-2.01517">
        <ele>121.5</ele>
        <time>2010-07-24T09:08:35</time>
      </trkpt>
      <trkpt lat="48.51282" lon="-2.01507">
        <ele>122.5</ele>
        <time>2010-07-24T09:08:38</time>
      </trkpt>
      <trkpt lat="48.51282" lon="-2.01496">
        <ele>123.5</ele>
        <time>2010-07-24T09:08:41</time>
      </trkpt>
      <trkpt lat="48.51281" lon="-2.01487">
        <ele>123.5</ele>
        <time>2010-07-24T09:08:44</time>
      </trkpt>
      <trkpt lat="48.51281" lon="-2.01477">
        <ele>123</ele>
        <time>2010-07-24T09:08:47</time>
      </trkpt>
      <trkpt lat="48.5128" lon="-2.01467">
        <ele>122.5</ele>
        <time>2010-07-24T09:08:50</time>
      </trkpt>
      <trkpt lat="48.51277" lon="-2.01458">
        <ele>123.5</ele>
        <time>2010-07-24T09:08:53</time>
      </trkpt>
      <trkpt lat="48.51275" lon="-2.01449">
        <ele>123.5</ele>
        <time>2010-07-24T09:08:56</time>
      </trkpt>
      <trkpt lat="48.51273" lon="-2.01441">
        <ele>124</ele>
        <time>2010-07-24T09:08:59</time>
      </trkpt>
      <trkpt lat="48.51274" lon="-2.01431">
        <ele>123.5</ele>
        <time>2010-07-24T09:09:02</time>
      </trkpt>
      <trkpt lat="48.51273" lon="-2.01422">
        <ele>123.5</ele>
        <time>2010-07-24T09:09:05</time>
      </trkpt>
      <trkpt lat="48.51272" lon="-2.01415">
        <ele>124</ele>
        <time>2010-07-24T09:09:08</time>
      </trkpt>
      <trkpt lat="48.51269" lon="-2.01402">
        <ele>124</ele>
        <time>2010-07-24T09:09:11</time>
      </trkpt>
      <trkpt lat="48.51265" lon="-2.01392">
        <ele>124</ele>
        <time>2010-07-24T09:09:14</time>
      </trkpt>
      <trkpt lat="48.51263" lon="-2.01381">
        <ele>124</ele>
        <time>2010-07-24T09:09:17</time>
      </trkpt>
      <trkpt lat="48.51265" lon="-2.01366">
        <ele>124</ele>
        <time>2010-07-24T09:09:20</time>
      </trkpt>
      <trkpt lat="48.51268" lon="-2.01354">
        <ele>124.5</ele>
        <time>2010-07-24T09:09:23</time>
      </trkpt>
      <trkpt lat="48.51266" lon="-2.01345">
        <ele>125</ele>
        <time>2010-07-24T09:09:26</time>
      </trkpt>
      <trkpt lat="48.51266" lon="-2.01332">
        <ele>125</ele>
        <time>2010-07-24T09:09:29</time>
      </trkpt>
      <trkpt lat="48.51266" lon="-2.01324">
        <ele>124.5</ele>
        <time>2010-07-24T09:09:32</time>
      </trkpt>
      <trkpt lat="48.51267" lon="-2.0131">
        <ele>124</ele>
        <time>2010-07-24T09:09:35</time>
      </trkpt>
      <trkpt lat="48.51268" lon="-2.01299">
        <ele>123</ele>
        <time>2010-07-24T09:09:38</time>
      </trkpt>
      <trkpt lat="48.51254" lon="-2.01286">
        <ele>119</ele>
        <time>2010-07-24T09:09:41</time>
      </trkpt>
      <trkpt lat="48.51248" lon="-2.01274">
        <ele>117</ele>
        <time>2010-07-24T09:09:44</time>
      </trkpt>
      <trkpt lat="48.51244" lon="-2.01261">
        <ele>116</ele>
        <time>2010-07-24T09:09:47</time>
      </trkpt>
      <trkpt lat="48.51241" lon="-2.01248">
        <ele>115.5</ele>
        <time>2010-07-24T09:09:50</time>
      </trkpt>
      <trkpt lat="48.51239" lon="-2.0123">
        <ele>114</ele>
        <time>2010-07-24T09:09:53</time>
      </trkpt>
      <trkpt lat="48.51238" lon="-2.01215">
        <ele>114</ele>
        <time>2010-07-24T09:09:56</time>
      </trkpt>
      <trkpt lat="48.51236" lon="-2.0119">
        <ele>117</ele>
        <time>2010-07-24T09:09:59</time>
      </trkpt>
      <trkpt lat="48.51237" lon="-2.0117">
        <ele>118.5</ele>
        <time>2010-07-24T09:10:02</time>
      </trkpt>
      <trkpt lat="48.51236" lon="-2.01152">
        <ele>121</ele>
        <time>2010-07-24T09:10:05</time>
      </trkpt>
      <trkpt lat="48.51235" lon="-2.01136">
        <ele>122.5</ele>
        <time>2010-07-24T09:10:09</time>
      </trkpt>
      <trkpt lat="48.51238" lon="-2.01118">
        <ele>121</ele>
        <time>2010-07-24T09:10:12</time>
      </trkpt>
      <trkpt lat="48.51237" lon="-2.01096">
        <ele>120</ele>
        <time>2010-07-24T09:10:15</time>
      </trkpt>
      <trkpt lat="48.51237" lon="-2.0108">
        <ele>120</ele>
        <time>2010-07-24T09:10:18</time>
      </trkpt>
      <trkpt lat="48.51238" lon="-2.01066">
        <ele>120</ele>
        <time>2010-07-24T09:10:20</time>
      </trkpt>
      <trkpt lat="48.51243" lon="-2.0105">
        <ele>119</ele>
        <time>2010-07-24T09:10:24</time>
      </trkpt>
      <trkpt lat="48.51245" lon="-2.0104">
        <ele>119.5</ele>
        <time>2010-07-24T09:10:27</time>
      </trkpt>
      <trkpt lat="48.51247" lon="-2.01038">
        <ele>120.5</ele>
        <time>2010-07-24T09:10:30</time>
      </trkpt>
      <trkpt lat="48.51247" lon="-2.01033">
        <ele>121</ele>
        <time>2010-07-24T09:10:33</time>
      </trkpt>
      <trkpt lat="48.51246" lon="-2.01033">
        <ele>121</ele>
        <time>2010-07-24T09:10:36</time>
      </trkpt>
      <trkpt lat="48.51246" lon="-2.01031">
        <ele>121</ele>
        <time>2010-07-24T09:10:39</time>
      </trkpt>
      <trkpt lat="48.51245" lon="-2.01031">
        <ele>121.5</ele>
        <time>2010-07-24T09:10:42</time>
      </trkpt>
      <trkpt lat="48.51244" lon="-2.01029">
        <ele>121.5</ele>
        <time>2010-07-24T09:10:45</time>
      </trkpt>
      <trkpt lat="48.51246" lon="-2.01028">
        <ele>121.5</ele>
        <time>2010-07-24T09:10:48</time>
      </trkpt>
      <trkpt lat="48.51249" lon="-2.01026">
        <ele>121.5</ele>
        <time>2010-07-24T09:10:50</time>
      </trkpt>
      <trkpt lat="48.51252" lon="-2.0102">
        <ele>122</ele>
        <time>2010-07-24T09:10:54</time>
      </trkpt>
      <trkpt lat="48.51261" lon="-2.01007">
        <ele>123</ele>
        <time>2010-07-24T09:10:56</time>
      </trkpt>
      <trkpt lat="48.51266" lon="-2.00998">
        <ele>124.5</ele>
        <time>2010-07-24T09:10:59</time>
      </trkpt>
      <trkpt lat="48.51273" lon="-2.00989">
        <ele>124</ele>
        <time>2010-07-24T09:11:03</time>
      </trkpt>
      <trkpt lat="48.5128" lon="-2.00981">
        <ele>124.5</ele>
        <time>2010-07-24T09:11:05</time>
      </trkpt>
      <trkpt lat="48.51286" lon="-2.00974">
        <ele>125</ele>
        <time>2010-07-24T09:11:08</time>
      </trkpt>
      <trkpt lat="48.51293" lon="-2.00968">
        <ele>125.5</ele>
        <time>2010-07-24T09:11:11</time>
      </trkpt>
      <trkpt lat="48.513" lon="-2.0096">
        <ele>126.5</ele>
        <time>2010-07-24T09:11:14</time>
      </trkpt>
      <trkpt lat="48.51311" lon="-2.00952">
        <ele>127.5</ele>
        <time>2010-07-24T09:11:17</time>
      </trkpt>
      <trkpt lat="48.51321" lon="-2.00941">
        <ele>127.5</ele>
        <time>2010-07-24T09:11:20</time>
      </trkpt>
      <trkpt lat="48.51328" lon="-2.00926">
        <ele>128.5</ele>
        <time>2010-07-24T09:11:23</time>
      </trkpt>
      <trkpt lat="48.51335" lon="-2.00915">
        <ele>128.5</ele>
        <time>2010-07-24T09:11:26</time>
      </trkpt>
      <trkpt lat="48.51344" lon="-2.00916">
        <ele>128.5</ele>
        <time>2010-07-24T09:11:29</time>
      </trkpt>
      <trkpt lat="48.51352" lon="-2.00903">
        <ele>128</ele>
        <time>2010-07-24T09:11:33</time>
      </trkpt>
      <trkpt lat="48.51363" lon="-2.00895">
        <ele>127.5</ele>
        <time>2010-07-24T09:11:36</time>
      </trkpt>
      <trkpt lat="48.51379" lon="-2.00878">
        <ele>125</ele>
        <time>2010-07-24T09:11:39</time>
      </trkpt>
      <trkpt lat="48.51389" lon="-2.00864">
        <ele>124</ele>
        <time>2010-07-24T09:11:42</time>
      </trkpt>
      <trkpt lat="48.51397" lon="-2.00861">
        <ele>123.5</ele>
        <time>2010-07-24T09:11:45</time>
      </trkpt>
      <trkpt lat="48.51408" lon="-2.00858">
        <ele>123.5</ele>
        <time>2010-07-24T09:11:48</time>
      </trkpt>
      <trkpt lat="48.51416" lon="-2.00857">
        <ele>123.5</ele>
        <time>2010-07-24T09:11:51</time>
      </trkpt>
      <trkpt lat="48.51423" lon="-2.00857">
        <ele>124.5</ele>
        <time>2010-07-24T09:11:54</time>
      </trkpt>
      <trkpt lat="48.51433" lon="-2.00857">
        <ele>125.5</ele>
        <time>2010-07-24T09:11:57</time>
      </trkpt>
      <trkpt lat="48.51446" lon="-2.00858">
        <ele>125.5</ele>
        <time>2010-07-24T09:12:00</time>
      </trkpt>
      <trkpt lat="48.51457" lon="-2.00859">
        <ele>125</ele>
        <time>2010-07-24T09:12:03</time>
      </trkpt>
      <trkpt lat="48.51466" lon="-2.00857">
        <ele>125</ele>
        <time>2010-07-24T09:12:06</time>
      </trkpt>
      <trkpt lat="48.51474" lon="-2.00859">
        <ele>125</ele>
        <time>2010-07-24T09:12:09</time>
      </trkpt>
      <trkpt lat="48.5148" lon="-2.00857">
        <ele>124.5</ele>
        <time>2010-07-24T09:12:12</time>
      </trkpt>
      <trkpt lat="48.51486" lon="-2.00857">
        <ele>124.5</ele>
        <time>2010-07-24T09:12:15</time>
      </trkpt>
      <trkpt lat="48.51485" lon="-2.00855">
        <ele>124.5</ele>
        <time>2010-07-24T09:12:18</time>
      </trkpt>
      <trkpt lat="48.51486" lon="-2.00855">
        <ele>124.5</ele>
        <time>2010-07-24T09:12:20</time>
      </trkpt>
      <trkpt lat="48.51489" lon="-2.00858">
        <ele>124.5</ele>
        <time>2010-07-24T09:12:24</time>
      </trkpt>
      <trkpt lat="48.51491" lon="-2.00861">
        <ele>124.5</ele>
        <time>2010-07-24T09:12:27</time>
      </trkpt>
      <trkpt lat="48.51496" lon="-2.0086">
        <ele>124</ele>
        <time>2010-07-24T09:12:30</time>
      </trkpt>
      <trkpt lat="48.515" lon="-2.00861">
        <ele>124</ele>
        <time>2010-07-24T09:12:33</time>
      </trkpt>
      <trkpt lat="48.51505" lon="-2.0086">
        <ele>124</ele>
        <time>2010-07-24T09:12:36</time>
      </trkpt>
      <trkpt lat="48.5151" lon="-2.0086">
        <ele>124</ele>
        <time>2010-07-24T09:12:39</time>
      </trkpt>
      <trkpt lat="48.51511" lon="-2.00861">
        <ele>124</ele>
        <time>2010-07-24T09:12:42</time>
      </trkpt>
      <trkpt lat="48.51513" lon="-2.00862">
        <ele>123.5</ele>
        <time>2010-07-24T09:12:45</time>
      </trkpt>
      <trkpt lat="48.51515" lon="-2.0086">
        <ele>123</ele>
        <time>2010-07-24T09:12:51</time>
      </trkpt>
      <trkpt lat="48.51517" lon="-2.00857">
        <ele>123</ele>
        <time>2010-07-24T09:12:54</time>
      </trkpt>
      <trkpt lat="48.5152" lon="-2.00857">
        <ele>122</ele>
        <time>2010-07-24T09:12:57</time>
      </trkpt>
      <trkpt lat="48.51521" lon="-2.00859">
        <ele>122</ele>
        <time>2010-07-24T09:13:00</time>
      </trkpt>
      <trkpt lat="48.51519" lon="-2.00861">
        <ele>122</ele>
        <time>2010-07-24T09:13:03</time>
      </trkpt>
      <trkpt lat="48.51518" lon="-2.00866">
        <ele>121.5</ele>
        <time>2010-07-24T09:13:06</time>
      </trkpt>
      <trkpt lat="48.51518" lon="-2.00872">
        <ele>120.5</ele>
        <time>2010-07-24T09:13:09</time>
      </trkpt>
      <trkpt lat="48.51517" lon="-2.00874">
        <ele>120.5</ele>
        <time>2010-07-24T09:13:12</time>
      </trkpt>
      <trkpt lat="48.51515" lon="-2.0088">
        <ele>120.5</ele>
        <time>2010-07-24T09:13:15</time>
      </trkpt>
      <trkpt lat="48.51515" lon="-2.00881">
        <ele>120</ele>
        <time>2010-07-24T09:13:18</time>
      </trkpt>
      <trkpt lat="48.51514" lon="-2.00885">
        <ele>120.5</ele>
        <time>2010-07-24T09:13:21</time>
      </trkpt>
      <trkpt lat="48.51514" lon="-2.00891">
        <ele>120</ele>
        <time>2010-07-24T09:13:24</time>
      </trkpt>
      <trkpt lat="48.51513" lon="-2.00894">
        <ele>120</ele>
        <time>2010-07-24T09:13:27</time>
      </trkpt>
      <trkpt lat="48.51512" lon="-2.00901">
        <ele>119.5</ele>
        <time>2010-07-24T09:13:30</time>
      </trkpt>
      <trkpt lat="48.51511" lon="-2.0091">
        <ele>119</ele>
        <time>2010-07-24T09:13:33</time>
      </trkpt>
      <trkpt lat="48.51509" lon="-2.00916">
        <ele>119.5</ele>
        <time>2010-07-24T09:13:36</time>
      </trkpt>
      <trkpt lat="48.51508" lon="-2.00921">
        <ele>119.5</ele>
        <time>2010-07-24T09:13:39</time>
      </trkpt>
      <trkpt lat="48.51508" lon="-2.00927">
        <ele>119.5</ele>
        <time>2010-07-24T09:13:42</time>
      </trkpt>
      <trkpt lat="48.51507" lon="-2.00932">
        <ele>119.5</ele>
        <time>2010-07-24T09:13:45</time>
      </trkpt>
      <trkpt lat="48.5151" lon="-2.00938">
        <ele>119.5</ele>
        <time>2010-07-24T09:13:48</time>
      </trkpt>
      <trkpt lat="48.51511" lon="-2.00941">
        <ele>119.5</ele>
        <time>2010-07-24T09:13:51</time>
      </trkpt>
      <trkpt lat="48.51507" lon="-2.0095">
        <ele>119.5</ele>
        <time>2010-07-24T09:13:54</time>
      </trkpt>
      <trkpt lat="48.51504" lon="-2.00956">
        <ele>119.5</ele>
        <time>2010-07-24T09:13:57</time>
      </trkpt>
      <trkpt lat="48.51501" lon="-2.00958">
        <ele>119.5</ele>
        <time>2010-07-24T09:14:00</time>
      </trkpt>
      <trkpt lat="48.51496" lon="-2.00965">
        <ele>119.5</ele>
        <time>2010-07-24T09:14:03</time>
      </trkpt>
      <trkpt lat="48.51498" lon="-2.00969">
        <ele>119.5</ele>
        <time>2010-07-24T09:14:06</time>
      </trkpt>
      <trkpt lat="48.51495" lon="-2.00974">
        <ele>118.5</ele>
        <time>2010-07-24T09:14:09</time>
      </trkpt>
      <trkpt lat="48.51491" lon="-2.00978">
        <ele>118.5</ele>
        <time>2010-07-24T09:14:12</time>
      </trkpt>
      <trkpt lat="48.5149" lon="-2.00983">
        <ele>118.5</ele>
        <time>2010-07-24T09:14:15</time>
      </trkpt>
      <trkpt lat="48.51486" lon="-2.00989">
        <ele>118.5</ele>
        <time>2010-07-24T09:14:18</time>
      </trkpt>
      <trkpt lat="48.51484" lon="-2.00993">
        <ele>118.5</ele>
        <time>2010-07-24T09:14:21</time>
      </trkpt>
      <trkpt lat="48.51479" lon="-2.00995">
        <ele>118.5</ele>
        <time>2010-07-24T09:14:24</time>
      </trkpt>
      <trkpt lat="48.51475" lon="-2.00997">
        <ele>118.5</ele>
        <time>2010-07-24T09:14:27</time>
      </trkpt>
      <trkpt lat="48.51471" lon="-2.00998">
        <ele>118</ele>
        <time>2010-07-24T09:14:30</time>
      </trkpt>
      <trkpt lat="48.51469" lon="-2.00999">
        <ele>118.5</ele>
        <time>2010-07-24T09:14:33</time>
      </trkpt>
      <trkpt lat="48.51464" lon="-2.01">
        <ele>119</ele>
        <time>2010-07-24T09:14:36</time>
      </trkpt>
      <trkpt lat="48.51461" lon="-2.00998">
        <ele>119</ele>
        <time>2010-07-24T09:14:39</time>
      </trkpt>
      <trkpt lat="48.51457" lon="-2.01005">
        <ele>119.5</ele>
        <time>2010-07-24T09:14:45</time>
      </trkpt>
      <trkpt lat="48.51455" lon="-2.01012">
        <ele>120.5</ele>
        <time>2010-07-24T09:14:48</time>
      </trkpt>
      <trkpt lat="48.51452" lon="-2.01014">
        <ele>120.5</ele>
        <time>2010-07-24T09:14:51</time>
      </trkpt>
      <trkpt lat="48.51452" lon="-2.01017">
        <ele>121</ele>
        <time>2010-07-24T09:14:54</time>
      </trkpt>
      <trkpt lat="48.51449" lon="-2.01021">
        <ele>121.5</ele>
        <time>2010-07-24T09:14:57</time>
      </trkpt>
      <trkpt lat="48.51443" lon="-2.01026">
        <ele>121</ele>
        <time>2010-07-24T09:15:00</time>
      </trkpt>
      <trkpt lat="48.51436" lon="-2.01031">
        <ele>121.5</ele>
        <time>2010-07-24T09:15:03</time>
      </trkpt>
      <trkpt lat="48.51427" lon="-2.01046">
        <ele>122</ele>
        <time>2010-07-24T09:15:09</time>
      </trkpt>
      <trkpt lat="48.51423" lon="-2.01052">
        <ele>123</ele>
        <time>2010-07-24T09:15:12</time>
      </trkpt>
      <trkpt lat="48.51421" lon="-2.01057">
        <ele>123</ele>
        <time>2010-07-24T09:15:15</time>
      </trkpt>
      <trkpt lat="48.51419" lon="-2.01064">
        <ele>122.5</ele>
        <time>2010-07-24T09:15:18</time>
      </trkpt>
      <trkpt lat="48.51414" lon="-2.01067">
        <ele>122.5</ele>
        <time>2010-07-24T09:15:21</time>
      </trkpt>
      <trkpt lat="48.51413" lon="-2.01071">
        <ele>123.5</ele>
        <time>2010-07-24T09:15:24</time>
      </trkpt>
      <trkpt lat="48.5141" lon="-2.01081">
        <ele>123.5</ele>
        <time>2010-07-24T09:15:27</time>
      </trkpt>
      <trkpt lat="48.51412" lon="-2.01091">
        <ele>123.5</ele>
        <time>2010-07-24T09:15:30</time>
      </trkpt>
      <trkpt lat="48.51414" lon="-2.01102">
        <ele>123.5</ele>
        <time>2010-07-24T09:15:33</time>
      </trkpt>
      <trkpt lat="48.51409" lon="-2.01108">
        <ele>123</ele>
        <time>2010-07-24T09:15:36</time>
      </trkpt>
      <trkpt lat="48.51408" lon="-2.01114">
        <ele>123.5</ele>
        <time>2010-07-24T09:15:39</time>
      </trkpt>
      <trkpt lat="48.51409" lon="-2.01123">
        <ele>123.5</ele>
        <time>2010-07-24T09:15:42</time>
      </trkpt>
      <trkpt lat="48.51404" lon="-2.0113">
        <ele>124.5</ele>
        <time>2010-07-24T09:15:45</time>
      </trkpt>
      <trkpt lat="48.51404" lon="-2.01138">
        <ele>124.5</ele>
        <time>2010-07-24T09:15:48</time>
      </trkpt>
      <trkpt lat="48.51402" lon="-2.01144">
        <ele>124.5</ele>
        <time>2010-07-24T09:15:51</time>
      </trkpt>
      <trkpt lat="48.51401" lon="-2.01153">
        <ele>126</ele>
        <time>2010-07-24T09:15:54</time>
      </trkpt>
      <trkpt lat="48.51397" lon="-2.01159">
        <ele>126</ele>
        <time>2010-07-24T09:15:57</time>
      </trkpt>
      <trkpt lat="48.51392" lon="-2.0117">
        <ele>127.5</ele>
        <time>2010-07-24T09:16:00</time>
      </trkpt>
      <trkpt lat="48.5139" lon="-2.01177">
        <ele>128</ele>
        <time>2010-07-24T09:16:03</time>
      </trkpt>
      <trkpt lat="48.51385" lon="-2.01184">
        <ele>129.5</ele>
        <time>2010-07-24T09:16:06</time>
      </trkpt>
      <trkpt lat="48.51385" lon="-2.01191">
        <ele>129.5</ele>
        <time>2010-07-24T09:16:09</time>
      </trkpt>
      <trkpt lat="48.51382" lon="-2.01196">
        <ele>130.5</ele>
        <time>2010-07-24T09:16:12</time>
      </trkpt>
      <trkpt lat="48.51382" lon="-2.01201">
        <ele>130.5</ele>
        <time>2010-07-24T09:16:15</time>
      </trkpt>
      <trkpt lat="48.51375" lon="-2.01208">
        <ele>130.5</ele>
        <time>2010-07-24T09:16:18</time>
      </trkpt>
      <trkpt lat="48.51376" lon="-2.01213">
        <ele>130.5</ele>
        <time>2010-07-24T09:16:21</time>
      </trkpt>
      <trkpt lat="48.51372" lon="-2.01222">
        <ele>129.5</ele>
        <time>2010-07-24T09:16:24</time>
      </trkpt>
      <trkpt lat="48.5137" lon="-2.01227">
        <ele>130</ele>
        <time>2010-07-24T09:16:27</time>
      </trkpt>
      <trkpt lat="48.5137" lon="-2.01231">
        <ele>130</ele>
        <time>2010-07-24T09:16:30</time>
      </trkpt>
      <trkpt lat="48.51361" lon="-2.01235">
        <ele>129.5</ele>
        <time>2010-07-24T09:16:33</time>
      </trkpt>
      <trkpt lat="48.51357" lon="-2.01242">
        <ele>130</ele>
        <time>2010-07-24T09:16:36</time>
      </trkpt>
      <trkpt lat="48.51356" lon="-2.01248">
        <ele>130.5</ele>
        <time>2010-07-24T09:16:39</time>
      </trkpt>
      <trkpt lat="48.51347" lon="-2.01254">
        <ele>130.5</ele>
        <time>2010-07-24T09:16:42</time>
      </trkpt>
      <trkpt lat="48.51343" lon="-2.01261">
        <ele>130.5</ele>
        <time>2010-07-24T09:16:45</time>
      </trkpt>
      <trkpt lat="48.51341" lon="-2.0127">
        <ele>129.5</ele>
        <time>2010-07-24T09:16:48</time>
      </trkpt>
      <trkpt lat="48.51337" lon="-2.01277">
        <ele>128.5</ele>
        <time>2010-07-24T09:16:51</time>
      </trkpt>
      <trkpt lat="48.51335" lon="-2.01292">
        <ele>127</ele>
        <time>2010-07-24T09:16:54</time>
      </trkpt>
      <trkpt lat="48.51334" lon="-2.01301">
        <ele>127</ele>
        <time>2010-07-24T09:16:57</time>
      </trkpt>
      <trkpt lat="48.51332" lon="-2.01309">
        <ele>128.5</ele>
        <time>2010-07-24T09:17:00</time>
      </trkpt>
      <trkpt lat="48.51332" lon="-2.01316">
        <ele>129</ele>
        <time>2010-07-24T09:17:03</time>
      </trkpt>
      <trkpt lat="48.51331" lon="-2.01322">
        <ele>129.5</ele>
        <time>2010-07-24T09:17:06</time>
      </trkpt>
      <trkpt lat="48.51332" lon="-2.01329">
        <ele>129.5</ele>
        <time>2010-07-24T09:17:09</time>
      </trkpt>
      <trkpt lat="48.51333" lon="-2.01339">
        <ele>129.5</ele>
        <time>2010-07-24T09:17:12</time>
      </trkpt>
      <trkpt lat="48.51332" lon="-2.01347">
        <ele>128.5</ele>
        <time>2010-07-24T09:17:15</time>
      </trkpt>
      <trkpt lat="48.51332" lon="-2.01356">
        <ele>128.5</ele>
        <time>2010-07-24T09:17:18</time>
      </trkpt>
      <trkpt lat="48.5133" lon="-2.01364">
        <ele>128.5</ele>
        <time>2010-07-24T09:17:21</time>
      </trkpt>
      <trkpt lat="48.51326" lon="-2.01372">
        <ele>129.5</ele>
        <time>2010-07-24T09:17:24</time>
      </trkpt>
      <trkpt lat="48.51325" lon="-2.0138">
        <ele>130</ele>
        <time>2010-07-24T09:17:27</time>
      </trkpt>
      <trkpt lat="48.51324" lon="-2.01389">
        <ele>131.5</ele>
        <time>2010-07-24T09:17:30</time>
      </trkpt>
      <trkpt lat="48.51324" lon="-2.01395">
        <ele>131.5</ele>
        <time>2010-07-24T09:17:33</time>
      </trkpt>
      <trkpt lat="48.51323" lon="-2.01403">
        <ele>131</ele>
        <time>2010-07-24T09:17:36</time>
      </trkpt>
      <trkpt lat="48.51322" lon="-2.01411">
        <ele>131.5</ele>
        <time>2010-07-24T09:17:39</time>
      </trkpt>
      <trkpt lat="48.51322" lon="-2.01424">
        <ele>130.5</ele>
        <time>2010-07-24T09:17:42</time>
      </trkpt>
      <trkpt lat="48.51324" lon="-2.01434">
        <ele>130.5</ele>
        <time>2010-07-24T09:17:45</time>
      </trkpt>
      <trkpt lat="48.51324" lon="-2.01445">
        <ele>129.5</ele>
        <time>2010-07-24T09:17:48</time>
      </trkpt>
      <trkpt lat="48.51322" lon="-2.01453">
        <ele>130</ele>
        <time>2010-07-24T09:17:51</time>
      </trkpt>
      <trkpt lat="48.51321" lon="-2.01461">
        <ele>130</ele>
        <time>2010-07-24T09:17:54</time>
      </trkpt>
      <trkpt lat="48.51321" lon="-2.01466">
        <ele>129.5</ele>
        <time>2010-07-24T09:17:57</time>
      </trkpt>
      <trkpt lat="48.51324" lon="-2.01464">
        <ele>129.5</ele>
        <time>2010-07-24T09:18:00</time>
      </trkpt>
      <trkpt lat="48.51328" lon="-2.01462">
        <ele>129.5</ele>
        <time>2010-07-24T09:18:03</time>
      </trkpt>
      <trkpt lat="48.51333" lon="-2.0146">
        <ele>129.5</ele>
        <time>2010-07-24T09:18:06</time>
      </trkpt>
      <trkpt lat="48.51338" lon="-2.01458">
        <ele>128</ele>
        <time>2010-07-24T09:18:09</time>
      </trkpt>
      <trkpt lat="48.51346" lon="-2.01456">
        <ele>127.5</ele>
        <time>2010-07-24T09:18:12</time>
      </trkpt>
      <trkpt lat="48.51351" lon="-2.01453">
        <ele>127.5</ele>
        <time>2010-07-24T09:18:15</time>
      </trkpt>
      <trkpt lat="48.51358" lon="-2.01447">
        <ele>128</ele>
        <time>2010-07-24T09:18:18</time>
      </trkpt>
      <trkpt lat="48.51364" lon="-2.01445">
        <ele>127.5</ele>
        <time>2010-07-24T09:18:21</time>
      </trkpt>
      <trkpt lat="48.5137" lon="-2.01441">
        <ele>128</ele>
        <time>2010-07-24T09:18:24</time>
      </trkpt>
      <trkpt lat="48.51379" lon="-2.01438">
        <ele>127.5</ele>
        <time>2010-07-24T09:18:27</time>
      </trkpt>
      <trkpt lat="48.51388" lon="-2.01446">
        <ele>128.5</ele>
        <time>2010-07-24T09:18:30</time>
      </trkpt>
      <trkpt lat="48.51396" lon="-2.01446">
        <ele>128.5</ele>
        <time>2010-07-24T09:18:33</time>
      </trkpt>
      <trkpt lat="48.51406" lon="-2.01444">
        <ele>129.5</ele>
        <time>2010-07-24T09:18:36</time>
      </trkpt>
      <trkpt lat="48.51414" lon="-2.01442">
        <ele>130</ele>
        <time>2010-07-24T09:18:39</time>
      </trkpt>
      <trkpt lat="48.51428" lon="-2.01443">
        <ele>130.5</ele>
        <time>2010-07-24T09:18:42</time>
      </trkpt>
      <trkpt lat="48.51439" lon="-2.01441">
        <ele>131</ele>
        <time>2010-07-24T09:18:45</time>
      </trkpt>
      <trkpt lat="48.5145" lon="-2.0144">
        <ele>132.5</ele>
        <time>2010-07-24T09:18:48</time>
      </trkpt>
      <trkpt lat="48.51455" lon="-2.01438">
        <ele>133</ele>
        <time>2010-07-24T09:18:51</time>
      </trkpt>
      <trkpt lat="48.51462" lon="-2.01437">
        <ele>133.5</ele>
        <time>2010-07-24T09:18:54</time>
      </trkpt>
      <trkpt lat="48.5147" lon="-2.0144">
        <ele>134.5</ele>
        <time>2010-07-24T09:18:57</time>
      </trkpt>
      <trkpt lat="48.51477" lon="-2.01444">
        <ele>134</ele>
        <time>2010-07-24T09:19:00</time>
      </trkpt>
      <trkpt lat="48.51486" lon="-2.01448">
        <ele>131</ele>
        <time>2010-07-24T09:19:03</time>
      </trkpt>
      <trkpt lat="48.51492" lon="-2.01452">
        <ele>124.5</ele>
        <time>2010-07-24T09:19:06</time>
      </trkpt>
      <trkpt lat="48.51497" lon="-2.01461">
        <ele>122.5</ele>
        <time>2010-07-24T09:19:09</time>
      </trkpt>
      <trkpt lat="48.515" lon="-2.01469">
        <ele>122</ele>
        <time>2010-07-24T09:19:12</time>
      </trkpt>
      <trkpt lat="48.51505" lon="-2.01483">
        <ele>120.5</ele>
        <time>2010-07-24T09:19:15</time>
      </trkpt>
      <trkpt lat="48.51515" lon="-2.01497">
        <ele>117</ele>
        <time>2010-07-24T09:19:18</time>
      </trkpt>
      <trkpt lat="48.5152" lon="-2.01507">
        <ele>116.5</ele>
        <time>2010-07-24T09:19:21</time>
      </trkpt>
      <trkpt lat="48.51525" lon="-2.01516">
        <ele>115.5</ele>
        <time>2010-07-24T09:19:24</time>
      </trkpt>
      <trkpt lat="48.51529" lon="-2.01527">
        <ele>115</ele>
        <time>2010-07-24T09:19:27</time>
      </trkpt>
      <trkpt lat="48.51533" lon="-2.01542">
        <ele>112.5</ele>
        <time>2010-07-24T09:19:30</time>
      </trkpt>
      <trkpt lat="48.51536" lon="-2.01554">
        <ele>112.5</ele>
        <time>2010-07-24T09:19:33</time>
      </trkpt>
      <trkpt lat="48.51542" lon="-2.01565">
        <ele>112.5</ele>
        <time>2010-07-24T09:19:36</time>
      </trkpt>
      <trkpt lat="48.51546" lon="-2.01577">
        <ele>112.5</ele>
        <time>2010-07-24T09:19:39</time>
      </trkpt>
      <trkpt lat="48.5155" lon="-2.01589">
        <ele>113</ele>
        <time>2010-07-24T09:19:42</time>
      </trkpt>
      <trkpt lat="48.51553" lon="-2.01599">
        <ele>112.5</ele>
        <time>2010-07-24T09:19:45</time>
      </trkpt>
      <trkpt lat="48.51555" lon="-2.0161">
        <ele>112</ele>
        <time>2010-07-24T09:19:48</time>
      </trkpt>
      <trkpt lat="48.51557" lon="-2.01623">
        <ele>113</ele>
        <time>2010-07-24T09:19:51</time>
      </trkpt>
      <trkpt lat="48.51559" lon="-2.01637">
        <ele>113</ele>
        <time>2010-07-24T09:19:54</time>
      </trkpt>
      <trkpt lat="48.5156" lon="-2.01648">
        <ele>113.5</ele>
        <time>2010-07-24T09:19:57</time>
      </trkpt>
      <trkpt lat="48.51563" lon="-2.0166">
        <ele>115</ele>
        <time>2010-07-24T09:20:00</time>
      </trkpt>
      <trkpt lat="48.51564" lon="-2.01673">
        <ele>116</ele>
        <time>2010-07-24T09:20:03</time>
      </trkpt>
      <trkpt lat="48.51565" lon="-2.01686">
        <ele>116</ele>
        <time>2010-07-24T09:20:06</time>
      </trkpt>
      <trkpt lat="48.51567" lon="-2.01699">
        <ele>116</ele>
        <time>2010-07-24T09:20:09</time>
      </trkpt>
      <trkpt lat="48.51567" lon="-2.0171">
        <ele>116.5</ele>
        <time>2010-07-24T09:20:12</time>
      </trkpt>
      <trkpt lat="48.51566" lon="-2.0172">
        <ele>116.5</ele>
        <time>2010-07-24T09:20:15</time>
      </trkpt>
      <trkpt lat="48.51567" lon="-2.01728">
        <ele>116.5</ele>
        <time>2010-07-24T09:20:18</time>
      </trkpt>
      <trkpt lat="48.51567" lon="-2.01732">
        <ele>118</ele>
        <time>2010-07-24T09:20:21</time>
      </trkpt>
      <trkpt lat="48.51579" lon="-2.01728">
        <ele>117.5</ele>
        <time>2010-07-24T09:20:24</time>
      </trkpt>
      <trkpt lat="48.51589" lon="-2.0172">
        <ele>118</ele>
        <time>2010-07-24T09:20:27</time>
      </trkpt>
      <trkpt lat="48.51599" lon="-2.01714">
        <ele>119</ele>
        <time>2010-07-24T09:20:30</time>
      </trkpt>
      <trkpt lat="48.51607" lon="-2.01707">
        <ele>119.5</ele>
        <time>2010-07-24T09:20:33</time>
      </trkpt>
      <trkpt lat="48.51616" lon="-2.017">
        <ele>120.5</ele>
        <time>2010-07-24T09:20:36</time>
      </trkpt>
      <trkpt lat="48.51623" lon="-2.01691">
        <ele>120</ele>
        <time>2010-07-24T09:20:39</time>
      </trkpt>
      <trkpt lat="48.51631" lon="-2.01686">
        <ele>120.5</ele>
        <time>2010-07-24T09:20:42</time>
      </trkpt>
      <trkpt lat="48.51642" lon="-2.01679">
        <ele>120</ele>
        <time>2010-07-24T09:20:45</time>
      </trkpt>
      <trkpt lat="48.51651" lon="-2.01674">
        <ele>119.5</ele>
        <time>2010-07-24T09:20:48</time>
      </trkpt>
      <trkpt lat="48.51662" lon="-2.01667">
        <ele>120</ele>
        <time>2010-07-24T09:20:51</time>
      </trkpt>
      <trkpt lat="48.51671" lon="-2.01656">
        <ele>119.5</ele>
        <time>2010-07-24T09:20:54</time>
      </trkpt>
      <trkpt lat="48.51682" lon="-2.01646">
        <ele>119.5</ele>
        <time>2010-07-24T09:20:57</time>
      </trkpt>
      <trkpt lat="48.5169" lon="-2.01641">
        <ele>119.5</ele>
        <time>2010-07-24T09:21:00</time>
      </trkpt>
      <trkpt lat="48.51699" lon="-2.01638">
        <ele>119.5</ele>
        <time>2010-07-24T09:21:03</time>
      </trkpt>
      <trkpt lat="48.51707" lon="-2.01623">
        <ele>118.5</ele>
        <time>2010-07-24T09:21:06</time>
      </trkpt>
      <trkpt lat="48.51717" lon="-2.01608">
        <ele>115</ele>
        <time>2010-07-24T09:21:09</time>
      </trkpt>
      <trkpt lat="48.51724" lon="-2.01595">
        <ele>116</ele>
        <time>2010-07-24T09:21:12</time>
      </trkpt>
      <trkpt lat="48.51733" lon="-2.0158">
        <ele>116</ele>
        <time>2010-07-24T09:21:15</time>
      </trkpt>
      <trkpt lat="48.51744" lon="-2.01564">
        <ele>115.5</ele>
        <time>2010-07-24T09:21:18</time>
      </trkpt>
      <trkpt lat="48.51757" lon="-2.0155">
        <ele>115.5</ele>
        <time>2010-07-24T09:21:21</time>
      </trkpt>
      <trkpt lat="48.51771" lon="-2.01534">
        <ele>115</ele>
        <time>2010-07-24T09:21:24</time>
      </trkpt>
      <trkpt lat="48.51786" lon="-2.01517">
        <ele>115</ele>
        <time>2010-07-24T09:21:27</time>
      </trkpt>
      <trkpt lat="48.518" lon="-2.01499">
        <ele>115</ele>
        <time>2010-07-24T09:21:30</time>
      </trkpt>
      <trkpt lat="48.51818" lon="-2.01482">
        <ele>113.5</ele>
        <time>2010-07-24T09:21:33</time>
      </trkpt>
      <trkpt lat="48.51834" lon="-2.01465">
        <ele>113.5</ele>
        <time>2010-07-24T09:21:36</time>
      </trkpt>
      <trkpt lat="48.51848" lon="-2.0145">
        <ele>113</ele>
        <time>2010-07-24T09:21:40</time>
      </trkpt>
      <trkpt lat="48.51875" lon="-2.01436">
        <ele>112</ele>
        <time>2010-07-24T09:21:45</time>
      </trkpt>
      <trkpt lat="48.5189" lon="-2.01433">
        <ele>110.5</ele>
        <time>2010-07-24T09:21:48</time>
      </trkpt>
      <trkpt lat="48.51904" lon="-2.01429">
        <ele>110.5</ele>
        <time>2010-07-24T09:21:52</time>
      </trkpt>
      <trkpt lat="48.51932" lon="-2.01418">
        <ele>110</ele>
        <time>2010-07-24T09:21:57</time>
      </trkpt>
      <trkpt lat="48.51945" lon="-2.01414">
        <ele>109.5</ele>
        <time>2010-07-24T09:22:01</time>
      </trkpt>
      <trkpt lat="48.51956" lon="-2.01414">
        <ele>109.5</ele>
        <time>2010-07-24T09:22:04</time>
      </trkpt>
      <trkpt lat="48.51968" lon="-2.01411">
        <ele>109.5</ele>
        <time>2010-07-24T09:22:07</time>
      </trkpt>
      <trkpt lat="48.51982" lon="-2.01408">
        <ele>109.5</ele>
        <time>2010-07-24T09:22:10</time>
      </trkpt>
      <trkpt lat="48.51985" lon="-2.01404">
        <ele>109</ele>
        <time>2010-07-24T09:22:13</time>
      </trkpt>
      <trkpt lat="48.51989" lon="-2.01399">
        <ele>108.5</ele>
        <time>2010-07-24T09:22:16</time>
      </trkpt>
      <trkpt lat="48.51989" lon="-2.01384">
        <ele>107.5</ele>
        <time>2010-07-24T09:22:22</time>
      </trkpt>
      <trkpt lat="48.51989" lon="-2.01375">
        <ele>105.5</ele>
        <time>2010-07-24T09:22:25</time>
      </trkpt>
      <trkpt lat="48.51988" lon="-2.01366">
        <ele>104.5</ele>
        <time>2010-07-24T09:22:28</time>
      </trkpt>
      <trkpt lat="48.51986" lon="-2.01351">
        <ele>104</ele>
        <time>2010-07-24T09:22:31</time>
      </trkpt>
      <trkpt lat="48.51984" lon="-2.0134">
        <ele>104</ele>
        <time>2010-07-24T09:22:34</time>
      </trkpt>
      <trkpt lat="48.51986" lon="-2.01317">
        <ele>103</ele>
        <time>2010-07-24T09:22:40</time>
      </trkpt>
      <trkpt lat="48.5199" lon="-2.01309">
        <ele>102.5</ele>
        <time>2010-07-24T09:22:43</time>
      </trkpt>
      <trkpt lat="48.51994" lon="-2.013">
        <ele>102</ele>
        <time>2010-07-24T09:22:46</time>
      </trkpt>
      <trkpt lat="48.52001" lon="-2.01283">
        <ele>101.5</ele>
        <time>2010-07-24T09:22:52</time>
      </trkpt>
      <trkpt lat="48.52004" lon="-2.01279">
        <ele>102</ele>
        <time>2010-07-24T09:22:55</time>
      </trkpt>
      <trkpt lat="48.52009" lon="-2.01271">
        <ele>102</ele>
        <time>2010-07-24T09:22:58</time>
      </trkpt>
      <trkpt lat="48.52015" lon="-2.01264">
        <ele>102</ele>
        <time>2010-07-24T09:23:01</time>
      </trkpt>
      <trkpt lat="48.5202" lon="-2.01258">
        <ele>102</ele>
        <time>2010-07-24T09:23:04</time>
      </trkpt>
      <trkpt lat="48.52026" lon="-2.01246">
        <ele>102</ele>
        <time>2010-07-24T09:23:07</time>
      </trkpt>
      <trkpt lat="48.52031" lon="-2.01238">
        <ele>102.5</ele>
        <time>2010-07-24T09:23:10</time>
      </trkpt>
      <trkpt lat="48.52041" lon="-2.0123">
        <ele>102</ele>
        <time>2010-07-24T09:23:15</time>
      </trkpt>
      <trkpt lat="48.52045" lon="-2.01226">
        <ele>102</ele>
        <time>2010-07-24T09:23:18</time>
      </trkpt>
      <trkpt lat="48.52051" lon="-2.01225">
        <ele>101.5</ele>
        <time>2010-07-24T09:23:22</time>
      </trkpt>
      <trkpt lat="48.52044" lon="-2.0121">
        <ele>103</ele>
        <time>2010-07-24T09:23:27</time>
      </trkpt>
      <trkpt lat="48.5204" lon="-2.012">
        <ele>103</ele>
        <time>2010-07-24T09:23:30</time>
      </trkpt>
      <trkpt lat="48.52034" lon="-2.0119">
        <ele>103</ele>
        <time>2010-07-24T09:23:34</time>
      </trkpt>
      <trkpt lat="48.52026" lon="-2.0118">
        <ele>103.5</ele>
        <time>2010-07-24T09:23:39</time>
      </trkpt>
      <trkpt lat="48.52023" lon="-2.01175">
        <ele>103</ele>
        <time>2010-07-24T09:23:42</time>
      </trkpt>
      <trkpt lat="48.52018" lon="-2.01171">
        <ele>103</ele>
        <time>2010-07-24T09:23:46</time>
      </trkpt>
      <trkpt lat="48.52009" lon="-2.0116">
        <ele>103.5</ele>
        <time>2010-07-24T09:23:51</time>
      </trkpt>
      <trkpt lat="48.52005" lon="-2.01154">
        <ele>103.5</ele>
        <time>2010-07-24T09:23:54</time>
      </trkpt>
      <trkpt lat="48.51994" lon="-2.01144">
        <ele>103.5</ele>
        <time>2010-07-24T09:23:58</time>
      </trkpt>
      <trkpt lat="48.51989" lon="-2.01143">
        <ele>103.5</ele>
        <time>2010-07-24T09:24:01</time>
      </trkpt>
      <trkpt lat="48.51987" lon="-2.01137">
        <ele>103</ele>
        <time>2010-07-24T09:24:04</time>
      </trkpt>
      <trkpt lat="48.51996" lon="-2.01133">
        <ele>103</ele>
        <time>2010-07-24T09:24:09</time>
      </trkpt>
      <trkpt lat="48.51997" lon="-2.01127">
        <ele>103</ele>
        <time>2010-07-24T09:24:12</time>
      </trkpt>
      <trkpt lat="48.51996" lon="-2.01121">
        <ele>103</ele>
        <time>2010-07-24T09:24:16</time>
      </trkpt>
      <trkpt lat="48.51992" lon="-2.01113">
        <ele>103</ele>
        <time>2010-07-24T09:24:19</time>
      </trkpt>
      <trkpt lat="48.51988" lon="-2.01106">
        <ele>102</ele>
        <time>2010-07-24T09:24:22</time>
      </trkpt>
      <trkpt lat="48.51985" lon="-2.01098">
        <ele>101.5</ele>
        <time>2010-07-24T09:24:25</time>
      </trkpt>
      <trkpt lat="48.5198" lon="-2.01091">
        <ele>101</ele>
        <time>2010-07-24T09:24:28</time>
      </trkpt>
      <trkpt lat="48.51976" lon="-2.01084">
        <ele>101</ele>
        <time>2010-07-24T09:24:31</time>
      </trkpt>
      <trkpt lat="48.51971" lon="-2.01078">
        <ele>101</ele>
        <time>2010-07-24T09:24:34</time>
      </trkpt>
      <trkpt lat="48.51962" lon="-2.01068">
        <ele>101</ele>
        <time>2010-07-24T09:24:37</time>
      </trkpt>
      <trkpt lat="48.51957" lon="-2.01063">
        <ele>101</ele>
        <time>2010-07-24T09:24:40</time>
      </trkpt>
      <trkpt lat="48.51954" lon="-2.01058">
        <ele>100.5</ele>
        <time>2010-07-24T09:24:43</time>
      </trkpt>
      <trkpt lat="48.51952" lon="-2.01053">
        <ele>100.5</ele>
        <time>2010-07-24T09:24:46</time>
      </trkpt>
      <trkpt lat="48.51954" lon="-2.01043">
        <ele>100</ele>
        <time>2010-07-24T09:24:49</time>
      </trkpt>
      <trkpt lat="48.51957" lon="-2.01035">
        <ele>99.5</ele>
        <time>2010-07-24T09:24:52</time>
      </trkpt>
      <trkpt lat="48.51962" lon="-2.01022">
        <ele>99.5</ele>
        <time>2010-07-24T09:24:55</time>
      </trkpt>
      <trkpt lat="48.51969" lon="-2.01008">
        <ele>98.5</ele>
        <time>2010-07-24T09:24:58</time>
      </trkpt>
      <trkpt lat="48.51975" lon="-2.0099">
        <ele>98</ele>
        <time>2010-07-24T09:25:01</time>
      </trkpt>
      <trkpt lat="48.51981" lon="-2.00972">
        <ele>97.5</ele>
        <time>2010-07-24T09:25:04</time>
      </trkpt>
      <trkpt lat="48.51986" lon="-2.00953">
        <ele>97.5</ele>
        <time>2010-07-24T09:25:07</time>
      </trkpt>
      <trkpt lat="48.51992" lon="-2.00931">
        <ele>97</ele>
        <time>2010-07-24T09:25:10</time>
      </trkpt>
      <trkpt lat="48.51995" lon="-2.0091">
        <ele>96.5</ele>
        <time>2010-07-24T09:25:13</time>
      </trkpt>
      <trkpt lat="48.51999" lon="-2.00889">
        <ele>96</ele>
        <time>2010-07-24T09:25:16</time>
      </trkpt>
      <trkpt lat="48.52002" lon="-2.00867">
        <ele>96</ele>
        <time>2010-07-24T09:25:19</time>
      </trkpt>
      <trkpt lat="48.52005" lon="-2.00845">
        <ele>95.5</ele>
        <time>2010-07-24T09:25:22</time>
      </trkpt>
      <trkpt lat="48.5201" lon="-2.00815">
        <ele>87.5</ele>
        <time>2010-07-24T09:25:25</time>
      </trkpt>
      <trkpt lat="48.52008" lon="-2.00795">
        <ele>85.5</ele>
        <time>2010-07-24T09:25:28</time>
      </trkpt>
      <trkpt lat="48.52002" lon="-2.00776">
        <ele>84.5</ele>
        <time>2010-07-24T09:25:31</time>
      </trkpt>
      <trkpt lat="48.51994" lon="-2.00761">
        <ele>84.5</ele>
        <time>2010-07-24T09:25:34</time>
      </trkpt>
      <trkpt lat="48.51983" lon="-2.00748">
        <ele>84</ele>
        <time>2010-07-24T09:25:37</time>
      </trkpt>
      <trkpt lat="48.51971" lon="-2.0074">
        <ele>83.5</ele>
        <time>2010-07-24T09:25:40</time>
      </trkpt>
      <trkpt lat="48.5195" lon="-2.00735">
        <ele>82</ele>
        <time>2010-07-24T09:25:46</time>
      </trkpt>
      <trkpt lat="48.51944" lon="-2.00736">
        <ele>81.5</ele>
        <time>2010-07-24T09:25:49</time>
      </trkpt>
      <trkpt lat="48.51936" lon="-2.00738">
        <ele>81.5</ele>
        <time>2010-07-24T09:25:52</time>
      </trkpt>
      <trkpt lat="48.51921" lon="-2.00741">
        <ele>80.5</ele>
        <time>2010-07-24T09:25:58</time>
      </trkpt>
      <trkpt lat="48.51914" lon="-2.00744">
        <ele>80</ele>
        <time>2010-07-24T09:26:01</time>
      </trkpt>
      <trkpt lat="48.51908" lon="-2.00746">
        <ele>80.5</ele>
        <time>2010-07-24T09:26:04</time>
      </trkpt>
      <trkpt lat="48.51902" lon="-2.00749">
        <ele>80.5</ele>
        <time>2010-07-24T09:26:07</time>
      </trkpt>
      <trkpt lat="48.51896" lon="-2.00751">
        <ele>81</ele>
        <time>2010-07-24T09:26:10</time>
      </trkpt>
      <trkpt lat="48.51889" lon="-2.00753">
        <ele>80.5</ele>
        <time>2010-07-24T09:26:13</time>
      </trkpt>
      <trkpt lat="48.51883" lon="-2.00757">
        <ele>80.5</ele>
        <time>2010-07-24T09:26:16</time>
      </trkpt>
      <trkpt lat="48.51876" lon="-2.00758">
        <ele>80.5</ele>
        <time>2010-07-24T09:26:19</time>
      </trkpt>
      <trkpt lat="48.51871" lon="-2.0076">
        <ele>81</ele>
        <time>2010-07-24T09:26:22</time>
      </trkpt>
      <trkpt lat="48.51865" lon="-2.00762">
        <ele>81.5</ele>
        <time>2010-07-24T09:26:25</time>
      </trkpt>
      <trkpt lat="48.51857" lon="-2.00764">
        <ele>82</ele>
        <time>2010-07-24T09:26:28</time>
      </trkpt>
      <trkpt lat="48.51851" lon="-2.00766">
        <ele>82.5</ele>
        <time>2010-07-24T09:26:31</time>
      </trkpt>
      <trkpt lat="48.51844" lon="-2.00767">
        <ele>82.5</ele>
        <time>2010-07-24T09:26:35</time>
      </trkpt>
      <trkpt lat="48.51837" lon="-2.0077">
        <ele>82.5</ele>
        <time>2010-07-24T09:26:37</time>
      </trkpt>
      <trkpt lat="48.51831" lon="-2.00772">
        <ele>82.5</ele>
        <time>2010-07-24T09:26:41</time>
      </trkpt>
      <trkpt lat="48.51825" lon="-2.00773">
        <ele>82.5</ele>
        <time>2010-07-24T09:26:43</time>
      </trkpt>
      <trkpt lat="48.51818" lon="-2.00774">
        <ele>82.5</ele>
        <time>2010-07-24T09:26:47</time>
      </trkpt>
      <trkpt lat="48.5181" lon="-2.00777">
        <ele>82</ele>
        <time>2010-07-24T09:26:49</time>
      </trkpt>
      <trkpt lat="48.51805" lon="-2.00781">
        <ele>82</ele>
        <time>2010-07-24T09:26:53</time>
      </trkpt>
      <trkpt lat="48.51795" lon="-2.00784">
        <ele>82</ele>
        <time>2010-07-24T09:26:58</time>
      </trkpt>
      <trkpt lat="48.51791" lon="-2.00786">
        <ele>82</ele>
        <time>2010-07-24T09:27:02</time>
      </trkpt>
      <trkpt lat="48.51787" lon="-2.00789">
        <ele>82.5</ele>
        <time>2010-07-24T09:27:05</time>
      </trkpt>
      <trkpt lat="48.51782" lon="-2.0079">
        <ele>83</ele>
        <time>2010-07-24T09:27:08</time>
      </trkpt>
      <trkpt lat="48.51774" lon="-2.00793">
        <ele>83.5</ele>
        <time>2010-07-24T09:27:11</time>
      </trkpt>
      <trkpt lat="48.51768" lon="-2.00795">
        <ele>83.5</ele>
        <time>2010-07-24T09:27:14</time>
      </trkpt>
      <trkpt lat="48.51762" lon="-2.00798">
        <ele>84</ele>
        <time>2010-07-24T09:27:17</time>
      </trkpt>
      <trkpt lat="48.51756" lon="-2.00798">
        <ele>83</ele>
        <time>2010-07-24T09:27:20</time>
      </trkpt>
      <trkpt lat="48.51749" lon="-2.00802">
        <ele>83.5</ele>
        <time>2010-07-24T09:27:23</time>
      </trkpt>
      <trkpt lat="48.51746" lon="-2.00803">
        <ele>84</ele>
        <time>2010-07-24T09:27:26</time>
      </trkpt>
      <trkpt lat="48.51739" lon="-2.00806">
        <ele>85</ele>
        <time>2010-07-24T09:27:29</time>
      </trkpt>
      <trkpt lat="48.51736" lon="-2.00809">
        <ele>84.5</ele>
        <time>2010-07-24T09:27:32</time>
      </trkpt>
      <trkpt lat="48.51731" lon="-2.00811">
        <ele>84.5</ele>
        <time>2010-07-24T09:27:35</time>
      </trkpt>
      <trkpt lat="48.51724" lon="-2.00811">
        <ele>84</ele>
        <time>2010-07-24T09:27:38</time>
      </trkpt>
      <trkpt lat="48.51717" lon="-2.00812">
        <ele>84</ele>
        <time>2010-07-24T09:27:41</time>
      </trkpt>
      <trkpt lat="48.51713" lon="-2.00813">
        <ele>84</ele>
        <time>2010-07-24T09:27:44</time>
      </trkpt>
      <trkpt lat="48.51704" lon="-2.00813">
        <ele>84.5</ele>
        <time>2010-07-24T09:27:47</time>
      </trkpt>
      <trkpt lat="48.51701" lon="-2.00812">
        <ele>85</ele>
        <time>2010-07-24T09:27:50</time>
      </trkpt>
      <trkpt lat="48.51695" lon="-2.0081">
        <ele>85</ele>
        <time>2010-07-24T09:27:53</time>
      </trkpt>
      <trkpt lat="48.51691" lon="-2.00809">
        <ele>86</ele>
        <time>2010-07-24T09:27:56</time>
      </trkpt>
      <trkpt lat="48.51686" lon="-2.00809">
        <ele>86</ele>
        <time>2010-07-24T09:27:59</time>
      </trkpt>
      <trkpt lat="48.51681" lon="-2.00808">
        <ele>86</ele>
        <time>2010-07-24T09:28:02</time>
      </trkpt>
      <trkpt lat="48.51675" lon="-2.00808">
        <ele>86.5</ele>
        <time>2010-07-24T09:28:05</time>
      </trkpt>
      <trkpt lat="48.51667" lon="-2.00806">
        <ele>86.5</ele>
        <time>2010-07-24T09:28:08</time>
      </trkpt>
      <trkpt lat="48.51662" lon="-2.00806">
        <ele>86.5</ele>
        <time>2010-07-24T09:28:11</time>
      </trkpt>
      <trkpt lat="48.51657" lon="-2.00806">
        <ele>86</ele>
        <time>2010-07-24T09:28:14</time>
      </trkpt>
      <trkpt lat="48.51653" lon="-2.00808">
        <ele>86</ele>
        <time>2010-07-24T09:28:17</time>
      </trkpt>
      <trkpt lat="48.51646" lon="-2.00805">
        <ele>86.5</ele>
        <time>2010-07-24T09:28:20</time>
      </trkpt>
      <trkpt lat="48.5164" lon="-2.00806">
        <ele>87</ele>
        <time>2010-07-24T09:28:23</time>
      </trkpt>
      <trkpt lat="48.51636" lon="-2.00805">
        <ele>86.5</ele>
        <time>2010-07-24T09:28:26</time>
      </trkpt>
      <trkpt lat="48.51632" lon="-2.00806">
        <ele>86.5</ele>
        <time>2010-07-24T09:28:29</time>
      </trkpt>
      <trkpt lat="48.51623" lon="-2.00808">
        <ele>87</ele>
        <time>2010-07-24T09:28:32</time>
      </trkpt>
      <trkpt lat="48.51617" lon="-2.0081">
        <ele>87</ele>
        <time>2010-07-24T09:28:35</time>
      </trkpt>
      <trkpt lat="48.51615" lon="-2.0081">
        <ele>87</ele>
        <time>2010-07-24T09:28:38</time>
      </trkpt>
      <trkpt lat="48.51612" lon="-2.00808">
        <ele>87.5</ele>
        <time>2010-07-24T09:28:41</time>
      </trkpt>
      <trkpt lat="48.51608" lon="-2.00808">
        <ele>88</ele>
        <time>2010-07-24T09:28:44</time>
      </trkpt>
      <trkpt lat="48.51603" lon="-2.00806">
        <ele>88</ele>
        <time>2010-07-24T09:28:47</time>
      </trkpt>
      <trkpt lat="48.51599" lon="-2.00803">
        <ele>88</ele>
        <time>2010-07-24T09:28:50</time>
      </trkpt>
      <trkpt lat="48.51604" lon="-2.008">
        <ele>88.5</ele>
        <time>2010-07-24T09:28:53</time>
      </trkpt>
      <trkpt lat="48.51602" lon="-2.00796">
        <ele>89</ele>
        <time>2010-07-24T09:28:56</time>
      </trkpt>
      <trkpt lat="48.51598" lon="-2.00791">
        <ele>88.5</ele>
        <time>2010-07-24T09:28:59</time>
      </trkpt>
      <trkpt lat="48.51593" lon="-2.00789">
        <ele>88.5</ele>
        <time>2010-07-24T09:29:02</time>
      </trkpt>
      <trkpt lat="48.51586" lon="-2.0079">
        <ele>88.5</ele>
        <time>2010-07-24T09:29:05</time>
      </trkpt>
      <trkpt lat="48.51584" lon="-2.00787">
        <ele>89</ele>
        <time>2010-07-24T09:29:08</time>
      </trkpt>
      <trkpt lat="48.51579" lon="-2.00786">
        <ele>89</ele>
        <time>2010-07-24T09:29:11</time>
      </trkpt>
      <trkpt lat="48.51579" lon="-2.00785">
        <ele>89.5</ele>
        <time>2010-07-24T09:29:14</time>
      </trkpt>
      <trkpt lat="48.51575" lon="-2.00784">
        <ele>89.5</ele>
        <time>2010-07-24T09:29:17</time>
      </trkpt>
      <trkpt lat="48.51571" lon="-2.00782">
        <ele>89</ele>
        <time>2010-07-24T09:29:23</time>
      </trkpt>
      <trkpt lat="48.51564" lon="-2.00779">
        <ele>89</ele>
        <time>2010-07-24T09:29:26</time>
      </trkpt>
      <trkpt lat="48.51561" lon="-2.00775">
        <ele>89</ele>
        <time>2010-07-24T09:29:29</time>
      </trkpt>
      <trkpt lat="48.51557" lon="-2.00773">
        <ele>89</ele>
        <time>2010-07-24T09:29:32</time>
      </trkpt>
      <trkpt lat="48.51556" lon="-2.00771">
        <ele>89</ele>
        <time>2010-07-24T09:29:35</time>
      </trkpt>
      <trkpt lat="48.51556" lon="-2.00769">
        <ele>89.5</ele>
        <time>2010-07-24T09:29:38</time>
      </trkpt>
      <trkpt lat="48.51555" lon="-2.00768">
        <ele>89.5</ele>
        <time>2010-07-24T09:29:41</time>
      </trkpt>
      <trkpt lat="48.51554" lon="-2.00766">
        <ele>89.5</ele>
        <time>2010-07-24T09:29:44</time>
      </trkpt>
      <trkpt lat="48.51554" lon="-2.00764">
        <ele>89.5</ele>
        <time>2010-07-24T09:29:47</time>
      </trkpt>
      <trkpt lat="48.51554" lon="-2.00763">
        <ele>90</ele>
        <time>2010-07-24T09:29:50</time>
      </trkpt>
      <trkpt lat="48.51553" lon="-2.00762">
        <ele>90</ele>
        <time>2010-07-24T09:29:53</time>
      </trkpt>
      <trkpt lat="48.51553" lon="-2.00761">
        <ele>90</ele>
        <time>2010-07-24T09:29:56</time>
      </trkpt>
      <trkpt lat="48.51552" lon="-2.00761">
        <ele>90</ele>
        <time>2010-07-24T09:29:59</time>
      </trkpt>
      <trkpt lat="48.51551" lon="-2.00758">
        <ele>90.5</ele>
        <time>2010-07-24T09:30:02</time>
      </trkpt>
      <trkpt lat="48.5155" lon="-2.00758">
        <ele>90.5</ele>
        <time>2010-07-24T09:30:05</time>
      </trkpt>
      <trkpt lat="48.51549" lon="-2.00758">
        <ele>90.5</ele>
        <time>2010-07-24T09:30:08</time>
      </trkpt>
      <trkpt lat="48.51552" lon="-2.00758">
        <ele>90.5</ele>
        <time>2010-07-24T09:30:11</time>
      </trkpt>
      <trkpt lat="48.51551" lon="-2.00758">
        <ele>91</ele>
        <time>2010-07-24T09:30:14</time>
      </trkpt>
      <trkpt lat="48.5155" lon="-2.00757">
        <ele>91</ele>
        <time>2010-07-24T09:30:17</time>
      </trkpt>
      <trkpt lat="48.5155" lon="-2.00756">
        <ele>91</ele>
        <time>2010-07-24T09:30:20</time>
      </trkpt>
      <trkpt lat="48.51549" lon="-2.00756">
        <ele>91.5</ele>
        <time>2010-07-24T09:30:23</time>
      </trkpt>
      <trkpt lat="48.5155" lon="-2.00755">
        <ele>91</ele>
        <time>2010-07-24T09:30:26</time>
      </trkpt>
      <trkpt lat="48.5155" lon="-2.00755">
        <ele>91</ele>
        <time>2010-07-24T09:30:29</time>
      </trkpt>
      <trkpt lat="48.5155" lon="-2.00755">
        <ele>91</ele>
        <time>2010-07-24T09:30:32</time>
      </trkpt>
      <trkpt lat="48.51548" lon="-2.00759">
        <ele>91.5</ele>
        <time>2010-07-24T09:30:35</time>
      </trkpt>
      <trkpt lat="48.51548" lon="-2.0076">
        <ele>92</ele>
        <time>2010-07-24T09:30:41</time>
      </trkpt>
      <trkpt lat="48.51548" lon="-2.0076">
        <ele>92</ele>
        <time>2010-07-24T09:30:44</time>
      </trkpt>
      <trkpt lat="48.51548" lon="-2.0076">
        <ele>92</ele>
        <time>2010-07-24T09:30:47</time>
      </trkpt>
      <trkpt lat="48.51548" lon="-2.0076">
        <ele>92</ele>
        <time>2010-07-24T09:30:50</time>
      </trkpt>
      <trkpt lat="48.51549" lon="-2.00762">
        <ele>91.5</ele>
        <time>2010-07-24T09:30:53</time>
      </trkpt>
      <trkpt lat="48.5155" lon="-2.00762">
        <ele>91</ele>
        <time>2010-07-24T09:30:56</time>
      </trkpt>
      <trkpt lat="48.5155" lon="-2.00762">
        <ele>91</ele>
        <time>2010-07-24T09:30:59</time>
      </trkpt>
      <trkpt lat="48.51549" lon="-2.00762">
        <ele>91</ele>
        <time>2010-07-24T09:31:05</time>
      </trkpt>
      <trkpt lat="48.51544" lon="-2.00763">
        <ele>90.5</ele>
        <time>2010-07-24T09:31:08</time>
      </trkpt>
      <trkpt lat="48.51543" lon="-2.00763">
        <ele>90.5</ele>
        <time>2010-07-24T09:31:11</time>
      </trkpt>
      <trkpt lat="48.51544" lon="-2.00764">
        <ele>90.5</ele>
        <time>2010-07-24T09:31:14</time>
      </trkpt>
      <trkpt lat="48.51544" lon="-2.00765">
        <ele>90</ele>
        <time>2010-07-24T09:31:17</time>
      </trkpt>
      <trkpt lat="48.51542" lon="-2.00764">
        <ele>90.5</ele>
        <time>2010-07-24T09:31:20</time>
      </trkpt>
      <trkpt lat="48.5154" lon="-2.00762">
        <ele>90</ele>
        <time>2010-07-24T09:31:23</time>
      </trkpt>
      <trkpt lat="48.51541" lon="-2.00763">
        <ele>90.5</ele>
        <time>2010-07-24T09:31:26</time>
      </trkpt>
      <trkpt lat="48.5154" lon="-2.00762">
        <ele>90</ele>
        <time>2010-07-24T09:31:29</time>
      </trkpt>
      <trkpt lat="48.51541" lon="-2.00763">
        <ele>89.5</ele>
        <time>2010-07-24T09:31:32</time>
      </trkpt>
      <trkpt lat="48.51541" lon="-2.00761">
        <ele>89</ele>
        <time>2010-07-24T09:31:35</time>
      </trkpt>
      <trkpt lat="48.51541" lon="-2.00761">
        <ele>89</ele>
        <time>2010-07-24T09:31:38</time>
      </trkpt>
      <trkpt lat="48.51544" lon="-2.00762">
        <ele>90</ele>
        <time>2010-07-24T09:31:41</time>
      </trkpt>
      <trkpt lat="48.51546" lon="-2.00763">
        <ele>89.5</ele>
        <time>2010-07-24T09:31:44</time>
      </trkpt>
      <trkpt lat="48.51547" lon="-2.00763">
        <ele>89.5</ele>
        <time>2010-07-24T09:31:47</time>
      </trkpt>
      <trkpt lat="48.51548" lon="-2.00762">
        <ele>89.5</ele>
        <time>2010-07-24T09:31:50</time>
      </trkpt>
      <trkpt lat="48.51546" lon="-2.00762">
        <ele>90.5</ele>
        <time>2010-07-24T09:31:53</time>
      </trkpt>
      <trkpt lat="48.51546" lon="-2.0076">
        <ele>91</ele>
        <time>2010-07-24T09:31:56</time>
      </trkpt>
      <trkpt lat="48.51546" lon="-2.00759">
        <ele>91</ele>
        <time>2010-07-24T09:31:59</time>
      </trkpt>
      <trkpt lat="48.51547" lon="-2.00759">
        <ele>90.5</ele>
        <time>2010-07-24T09:32:02</time>
      </trkpt>
      <trkpt lat="48.51547" lon="-2.00759">
        <ele>90.5</ele>
        <time>2010-07-24T09:32:05</time>
      </trkpt>
      <trkpt lat="48.51547" lon="-2.00759">
        <ele>90</ele>
        <time>2010-07-24T09:32:08</time>
      </trkpt>
      <trkpt lat="48.51547" lon="-2.00759">
        <ele>89.5</ele>
        <time>2010-07-24T09:32:11</time>
      </trkpt>
      <trkpt lat="48.51547" lon="-2.00759">
        <ele>90</ele>
        <time>2010-07-24T09:32:14</time>
      </trkpt>
      <trkpt lat="48.51547" lon="-2.00759">
        <ele>89.5</ele>
        <time>2010-07-24T09:32:17</time>
      </trkpt>
      <trkpt lat="48.51547" lon="-2.00759">
        <ele>89.5</ele>
        <time>2010-07-24T09:32:20</time>
      </trkpt>
      <trkpt lat="48.51548" lon="-2.00759">
        <ele>90.5</ele>
        <time>2010-07-24T09:32:23</time>
      </trkpt>
      <trkpt lat="48.51549" lon="-2.0076">
        <ele>91.5</ele>
        <time>2010-07-24T09:32:26</time>
      </trkpt>
      <trkpt lat="48.51549" lon="-2.00759">
        <ele>91.5</ele>
        <time>2010-07-24T09:32:29</time>
      </trkpt>
      <trkpt lat="48.51549" lon="-2.0076">
        <ele>92</ele>
        <time>2010-07-24T09:32:32</time>
      </trkpt>
      <trkpt lat="48.51549" lon="-2.0076">
        <ele>92</ele>
        <time>2010-07-24T09:32:35</time>
      </trkpt>
      <trkpt lat="48.51548" lon="-2.0076">
        <ele>92.5</ele>
        <time>2010-07-24T09:32:38</time>
      </trkpt>
      <trkpt lat="48.51548" lon="-2.00759">
        <ele>92.5</ele>
        <time>2010-07-24T09:32:41</time>
      </trkpt>
      <trkpt lat="48.51548" lon="-2.00759">
        <ele>92.5</ele>
        <time>2010-07-24T09:32:45</time>
      </trkpt>
      <trkpt lat="48.51548" lon="-2.00759">
        <ele>93</ele>
        <time>2010-07-24T09:32:48</time>
      </trkpt>
      <trkpt lat="48.51548" lon="-2.00759">
        <ele>93</ele>
        <time>2010-07-24T09:32:54</time>
      </trkpt>
      <trkpt lat="48.51547" lon="-2.00759">
        <ele>93</ele>
        <time>2010-07-24T09:33:00</time>
      </trkpt>
      <trkpt lat="48.51547" lon="-2.00759">
        <ele>93</ele>
        <time>2010-07-24T09:33:03</time>
      </trkpt>
      <trkpt lat="48.51546" lon="-2.00758">
        <ele>93.5</ele>
        <time>2010-07-24T09:33:06</time>
      </trkpt>
      <trkpt lat="48.51544" lon="-2.00756">
        <ele>94.5</ele>
        <time>2010-07-24T09:33:12</time>
      </trkpt>
      <trkpt lat="48.51544" lon="-2.00755">
        <ele>94.5</ele>
        <time>2010-07-24T09:33:15</time>
      </trkpt>
      <trkpt lat="48.51543" lon="-2.00754">
        <ele>95</ele>
        <time>2010-07-24T09:33:18</time>
      </trkpt>
      <trkpt lat="48.51528" lon="-2.00729">
        <ele>101.5</ele>
        <time>2010-07-24T09:33:21</time>
      </trkpt>
      <trkpt lat="48.51526" lon="-2.00726">
        <ele>101.5</ele>
        <time>2010-07-24T09:33:24</time>
      </trkpt>
      <trkpt lat="48.51523" lon="-2.0072">
        <ele>102</ele>
        <time>2010-07-24T09:33:30</time>
      </trkpt>
      <trkpt lat="48.51518" lon="-2.00711">
        <ele>105</ele>
        <time>2010-07-24T09:33:35</time>
      </trkpt>
      <trkpt lat="48.51515" lon="-2.00706">
        <ele>105.5</ele>
        <time>2010-07-24T09:33:38</time>
      </trkpt>
      <trkpt lat="48.51514" lon="-2.00702">
        <ele>106.5</ele>
        <time>2010-07-24T09:33:42</time>
      </trkpt>
      <trkpt lat="48.5151" lon="-2.00694">
        <ele>106.5</ele>
        <time>2010-07-24T09:33:47</time>
      </trkpt>
      <trkpt lat="48.51508" lon="-2.00687">
        <ele>106.5</ele>
        <time>2010-07-24T09:33:50</time>
      </trkpt>
      <trkpt lat="48.51505" lon="-2.00681">
        <ele>106.5</ele>
        <time>2010-07-24T09:33:54</time>
      </trkpt>
      <trkpt lat="48.51496" lon="-2.00666">
        <ele>106</ele>
        <time>2010-07-24T09:33:59</time>
      </trkpt>
      <trkpt lat="48.51493" lon="-2.0066">
        <ele>106</ele>
        <time>2010-07-24T09:34:02</time>
      </trkpt>
      <trkpt lat="48.5149" lon="-2.00653">
        <ele>107.5</ele>
        <time>2010-07-24T09:34:06</time>
      </trkpt>
      <trkpt lat="48.51486" lon="-2.00647">
        <ele>108</ele>
        <time>2010-07-24T09:34:08</time>
      </trkpt>
      <trkpt lat="48.51485" lon="-2.00644">
        <ele>109.5</ele>
        <time>2010-07-24T09:34:12</time>
      </trkpt>
      <trkpt lat="48.51479" lon="-2.00639">
        <ele>111.5</ele>
        <time>2010-07-24T09:34:17</time>
      </trkpt>
      <trkpt lat="48.51474" lon="-2.00636">
        <ele>111</ele>
        <time>2010-07-24T09:34:20</time>
      </trkpt>
      <trkpt lat="48.51468" lon="-2.00632">
        <ele>111.5</ele>
        <time>2010-07-24T09:34:24</time>
      </trkpt>
      <trkpt lat="48.51461" lon="-2.00624">
        <ele>113</ele>
        <time>2010-07-24T09:34:26</time>
      </trkpt>
      <trkpt lat="48.51455" lon="-2.00613">
        <ele>114.5</ele>
        <time>2010-07-24T09:34:30</time>
      </trkpt>
      <trkpt lat="48.51444" lon="-2.00609">
        <ele>119.5</ele>
        <time>2010-07-24T09:34:35</time>
      </trkpt>
      <trkpt lat="48.51437" lon="-2.0061">
        <ele>123</ele>
        <time>2010-07-24T09:34:39</time>
      </trkpt>
      <trkpt lat="48.51426" lon="-2.0061">
        <ele>127</ele>
        <time>2010-07-24T09:34:42</time>
      </trkpt>
      <trkpt lat="48.51416" lon="-2.00608">
        <ele>128</ele>
        <time>2010-07-24T09:34:44</time>
      </trkpt>
      <trkpt lat="48.51405" lon="-2.00605">
        <ele>125.5</ele>
        <time>2010-07-24T09:34:48</time>
      </trkpt>
      <trkpt lat="48.51397" lon="-2.00608">
        <ele>125</ele>
        <time>2010-07-24T09:34:51</time>
      </trkpt>
      <trkpt lat="48.5139" lon="-2.0061">
        <ele>124.5</ele>
        <time>2010-07-24T09:34:54</time>
      </trkpt>
      <trkpt lat="48.51382" lon="-2.00613">
        <ele>123.5</ele>
        <time>2010-07-24T09:34:57</time>
      </trkpt>
      <trkpt lat="48.51375" lon="-2.00615">
        <ele>123</ele>
        <time>2010-07-24T09:35:00</time>
      </trkpt>
      <trkpt lat="48.51367" lon="-2.00617">
        <ele>121</ele>
        <time>2010-07-24T09:35:03</time>
      </trkpt>
      <trkpt lat="48.51357" lon="-2.0062">
        <ele>120.5</ele>
        <time>2010-07-24T09:35:06</time>
      </trkpt>
      <trkpt lat="48.51352" lon="-2.00621">
        <ele>119.5</ele>
        <time>2010-07-24T09:35:09</time>
      </trkpt>
      <trkpt lat="48.51341" lon="-2.00623">
        <ele>119.5</ele>
        <time>2010-07-24T09:35:12</time>
      </trkpt>
      <trkpt lat="48.51333" lon="-2.00624">
        <ele>119.5</ele>
        <time>2010-07-24T09:35:15</time>
      </trkpt>
      <trkpt lat="48.51324" lon="-2.00625">
        <ele>119</ele>
        <time>2010-07-24T09:35:18</time>
      </trkpt>
      <trkpt lat="48.51319" lon="-2.00625">
        <ele>119</ele>
        <time>2010-07-24T09:35:21</time>
      </trkpt>
      <trkpt lat="48.51308" lon="-2.00625">
        <ele>118.5</ele>
        <time>2010-07-24T09:35:24</time>
      </trkpt>
      <trkpt lat="48.51303" lon="-2.00625">
        <ele>118.5</ele>
        <time>2010-07-24T09:35:27</time>
      </trkpt>
      <trkpt lat="48.51295" lon="-2.00625">
        <ele>118</ele>
        <time>2010-07-24T09:35:30</time>
      </trkpt>
      <trkpt lat="48.51288" lon="-2.00625">
        <ele>118</ele>
        <time>2010-07-24T09:35:33</time>
      </trkpt>
      <trkpt lat="48.5128" lon="-2.00624">
        <ele>118</ele>
        <time>2010-07-24T09:35:36</time>
      </trkpt>
      <trkpt lat="48.51272" lon="-2.00623">
        <ele>117.5</ele>
        <time>2010-07-24T09:35:39</time>
      </trkpt>
      <trkpt lat="48.51261" lon="-2.00622">
        <ele>117.5</ele>
        <time>2010-07-24T09:35:42</time>
      </trkpt>
      <trkpt lat="48.51253" lon="-2.00621">
        <ele>117</ele>
        <time>2010-07-24T09:35:45</time>
      </trkpt>
      <trkpt lat="48.51245" lon="-2.00622">
        <ele>117.5</ele>
        <time>2010-07-24T09:35:48</time>
      </trkpt>
      <trkpt lat="48.51237" lon="-2.00623">
        <ele>117.5</ele>
        <time>2010-07-24T09:35:51</time>
      </trkpt>
      <trkpt lat="48.5123" lon="-2.00624">
        <ele>117.5</ele>
        <time>2010-07-24T09:35:54</time>
      </trkpt>
      <trkpt lat="48.5121" lon="-2.00627">
        <ele>117</ele>
        <time>2010-07-24T09:36:00</time>
      </trkpt>
      <trkpt lat="48.51201" lon="-2.00629">
        <ele>117.5</ele>
        <time>2010-07-24T09:36:03</time>
      </trkpt>
      <trkpt lat="48.51189" lon="-2.00632">
        <ele>115.5</ele>
        <time>2010-07-24T09:36:06</time>
      </trkpt>
      <trkpt lat="48.5117" lon="-2.00636">
        <ele>111.5</ele>
        <time>2010-07-24T09:36:12</time>
      </trkpt>
      <trkpt lat="48.51151" lon="-2.00641">
        <ele>110</ele>
        <time>2010-07-24T09:36:18</time>
      </trkpt>
      <trkpt lat="48.5114" lon="-2.00625">
        <ele>104.5</ele>
        <time>2010-07-24T09:36:24</time>
      </trkpt>
      <trkpt lat="48.51137" lon="-2.00598">
        <ele>104.5</ele>
        <time>2010-07-24T09:36:27</time>
      </trkpt>
      <trkpt lat="48.51133" lon="-2.00582">
        <ele>105</ele>
        <time>2010-07-24T09:36:30</time>
      </trkpt>
      <trkpt lat="48.51128" lon="-2.00562">
        <ele>105.5</ele>
        <time>2010-07-24T09:36:33</time>
      </trkpt>
      <trkpt lat="48.51123" lon="-2.00541">
        <ele>106</ele>
        <time>2010-07-24T09:36:36</time>
      </trkpt>
      <trkpt lat="48.51118" lon="-2.0052">
        <ele>106.5</ele>
        <time>2010-07-24T09:36:39</time>
      </trkpt>
      <trkpt lat="48.51114" lon="-2.00499">
        <ele>107</ele>
        <time>2010-07-24T09:36:42</time>
      </trkpt>
      <trkpt lat="48.51111" lon="-2.00476">
        <ele>107</ele>
        <time>2010-07-24T09:36:45</time>
      </trkpt>
      <trkpt lat="48.51111" lon="-2.00455">
        <ele>106.5</ele>
        <time>2010-07-24T09:36:48</time>
      </trkpt>
      <trkpt lat="48.51112" lon="-2.00436">
        <ele>107.5</ele>
        <time>2010-07-24T09:36:51</time>
      </trkpt>
      <trkpt lat="48.51114" lon="-2.00414">
        <ele>107</ele>
        <time>2010-07-24T09:36:54</time>
      </trkpt>
      <trkpt lat="48.51116" lon="-2.00396">
        <ele>108</ele>
        <time>2010-07-24T09:36:57</time>
      </trkpt>
      <trkpt lat="48.51117" lon="-2.00379">
        <ele>109.5</ele>
        <time>2010-07-24T09:37:01</time>
      </trkpt>
      <trkpt lat="48.51118" lon="-2.00367">
        <ele>111.5</ele>
        <time>2010-07-24T09:37:03</time>
      </trkpt>
      <trkpt lat="48.51122" lon="-2.00353">
        <ele>114.5</ele>
        <time>2010-07-24T09:37:06</time>
      </trkpt>
      <trkpt lat="48.51128" lon="-2.00338">
        <ele>117.5</ele>
        <time>2010-07-24T09:37:09</time>
      </trkpt>
      <trkpt lat="48.51137" lon="-2.00319">
        <ele>118</ele>
        <time>2010-07-24T09:37:12</time>
      </trkpt>
      <trkpt lat="48.51146" lon="-2.00302">
        <ele>119.5</ele>
        <time>2010-07-24T09:37:15</time>
      </trkpt>
      <trkpt lat="48.51156" lon="-2.00287">
        <ele>120</ele>
        <time>2010-07-24T09:37:18</time>
      </trkpt>
      <trkpt lat="48.51166" lon="-2.00271">
        <ele>120.5</ele>
        <time>2010-07-24T09:37:21</time>
      </trkpt>
      <trkpt lat="48.51174" lon="-2.00255">
        <ele>121.5</ele>
        <time>2010-07-24T09:37:24</time>
      </trkpt>
      <trkpt lat="48.51183" lon="-2.0024">
        <ele>122</ele>
        <time>2010-07-24T09:37:27</time>
      </trkpt>
      <trkpt lat="48.51193" lon="-2.00228">
        <ele>121.5</ele>
        <time>2010-07-24T09:37:30</time>
      </trkpt>
      <trkpt lat="48.51207" lon="-2.00218">
        <ele>117</ele>
        <time>2010-07-24T09:37:33</time>
      </trkpt>
      <trkpt lat="48.51219" lon="-2.00215">
        <ele>114.5</ele>
        <time>2010-07-24T09:37:36</time>
      </trkpt>
      <trkpt lat="48.51228" lon="-2.00213">
        <ele>114</ele>
        <time>2010-07-24T09:37:39</time>
      </trkpt>
      <trkpt lat="48.51234" lon="-2.00212">
        <ele>113</ele>
        <time>2010-07-24T09:37:42</time>
      </trkpt>
      <trkpt lat="48.51239" lon="-2.00213">
        <ele>111</ele>
        <time>2010-07-24T09:37:45</time>
      </trkpt>
      <trkpt lat="48.51242" lon="-2.00219">
        <ele>111</ele>
        <time>2010-07-24T09:37:48</time>
      </trkpt>
      <trkpt lat="48.51245" lon="-2.00225">
        <ele>111</ele>
        <time>2010-07-24T09:37:51</time>
      </trkpt>
      <trkpt lat="48.51249" lon="-2.00231">
        <ele>111.5</ele>
        <time>2010-07-24T09:37:55</time>
      </trkpt>
      <trkpt lat="48.51251" lon="-2.00236">
        <ele>110.5</ele>
        <time>2010-07-24T09:37:58</time>
      </trkpt>
      <trkpt lat="48.51254" lon="-2.00245">
        <ele>110</ele>
        <time>2010-07-24T09:38:01</time>
      </trkpt>
      <trkpt lat="48.51257" lon="-2.00252">
        <ele>108.5</ele>
        <time>2010-07-24T09:38:04</time>
      </trkpt>
      <trkpt lat="48.5126" lon="-2.00261">
        <ele>107.5</ele>
        <time>2010-07-24T09:38:07</time>
      </trkpt>
      <trkpt lat="48.51262" lon="-2.0027">
        <ele>107.5</ele>
        <time>2010-07-24T09:38:12</time>
      </trkpt>
      <trkpt lat="48.51265" lon="-2.00282">
        <ele>107.5</ele>
        <time>2010-07-24T09:38:15</time>
      </trkpt>
      <trkpt lat="48.51267" lon="-2.0029">
        <ele>107</ele>
        <time>2010-07-24T09:38:18</time>
      </trkpt>
      <trkpt lat="48.51272" lon="-2.00306">
        <ele>105</ele>
        <time>2010-07-24T09:38:24</time>
      </trkpt>
      <trkpt lat="48.51274" lon="-2.00315">
        <ele>104.5</ele>
        <time>2010-07-24T09:38:27</time>
      </trkpt>
      <trkpt lat="48.51277" lon="-2.00322">
        <ele>104</ele>
        <time>2010-07-24T09:38:30</time>
      </trkpt>
      <trkpt lat="48.51283" lon="-2.00338">
        <ele>101.5</ele>
        <time>2010-07-24T09:38:36</time>
      </trkpt>
      <trkpt lat="48.51286" lon="-2.00347">
        <ele>101</ele>
        <time>2010-07-24T09:38:39</time>
      </trkpt>
      <trkpt lat="48.51288" lon="-2.00354">
        <ele>100.5</ele>
        <time>2010-07-24T09:38:42</time>
      </trkpt>
      <trkpt lat="48.51293" lon="-2.00368">
        <ele>99</ele>
        <time>2010-07-24T09:38:48</time>
      </trkpt>
      <trkpt lat="48.51295" lon="-2.00376">
        <ele>98.5</ele>
        <time>2010-07-24T09:38:51</time>
      </trkpt>
      <trkpt lat="48.51297" lon="-2.00385">
        <ele>98.5</ele>
        <time>2010-07-24T09:38:54</time>
      </trkpt>
      <trkpt lat="48.51303" lon="-2.004">
        <ele>100.5</ele>
        <time>2010-07-24T09:39:00</time>
      </trkpt>
      <trkpt lat="48.51307" lon="-2.00406">
        <ele>100</ele>
        <time>2010-07-24T09:39:03</time>
      </trkpt>
      <trkpt lat="48.51312" lon="-2.0041">
        <ele>100.5</ele>
        <time>2010-07-24T09:39:06</time>
      </trkpt>
      <trkpt lat="48.51328" lon="-2.00424">
        <ele>100</ele>
        <time>2010-07-24T09:39:12</time>
      </trkpt>
      <trkpt lat="48.51336" lon="-2.00432">
        <ele>97</ele>
        <time>2010-07-24T09:39:15</time>
      </trkpt>
      <trkpt lat="48.51341" lon="-2.00437">
        <ele>95.5</ele>
        <time>2010-07-24T09:39:18</time>
      </trkpt>
      <trkpt lat="48.51346" lon="-2.00441">
        <ele>94.5</ele>
        <time>2010-07-24T09:39:21</time>
      </trkpt>
      <trkpt lat="48.51353" lon="-2.00444">
        <ele>93</ele>
        <time>2010-07-24T09:39:24</time>
      </trkpt>
      <trkpt lat="48.51367" lon="-2.00449">
        <ele>93.5</ele>
        <time>2010-07-24T09:39:30</time>
      </trkpt>
      <trkpt lat="48.51373" lon="-2.00452">
        <ele>94</ele>
        <time>2010-07-24T09:39:33</time>
      </trkpt>
      <trkpt lat="48.5138" lon="-2.00455">
        <ele>94.5</ele>
        <time>2010-07-24T09:39:36</time>
      </trkpt>
      <trkpt lat="48.51385" lon="-2.00458">
        <ele>94.5</ele>
        <time>2010-07-24T09:39:39</time>
      </trkpt>
      <trkpt lat="48.5139" lon="-2.0046">
        <ele>95.5</ele>
        <time>2010-07-24T09:39:42</time>
      </trkpt>
      <trkpt lat="48.51394" lon="-2.00462">
        <ele>95.5</ele>
        <time>2010-07-24T09:39:45</time>
      </trkpt>
      <trkpt lat="48.51396" lon="-2.00464">
        <ele>96</ele>
        <time>2010-07-24T09:39:48</time>
      </trkpt>
      <trkpt lat="48.51402" lon="-2.00474">
        <ele>97</ele>
        <time>2010-07-24T09:39:51</time>
      </trkpt>
      <trkpt lat="48.51406" lon="-2.00485">
        <ele>97</ele>
        <time>2010-07-24T09:39:54</time>
      </trkpt>
      <trkpt lat="48.51409" lon="-2.00493">
        <ele>97.5</ele>
        <time>2010-07-24T09:39:57</time>
      </trkpt>
      <trkpt lat="48.51413" lon="-2.005">
        <ele>98</ele>
        <time>2010-07-24T09:40:00</time>
      </trkpt>
      <trkpt lat="48.51416" lon="-2.00507">
        <ele>99</ele>
        <time>2010-07-24T09:40:03</time>
      </trkpt>
      <trkpt lat="48.51419" lon="-2.00511">
        <ele>99.5</ele>
        <time>2010-07-24T09:40:07</time>
      </trkpt>
      <trkpt lat="48.5142" lon="-2.00512">
        <ele>99.5</ele>
        <time>2010-07-24T09:40:10</time>
      </trkpt>
      <trkpt lat="48.51422" lon="-2.00512">
        <ele>100</ele>
        <time>2010-07-24T09:40:13</time>
      </trkpt>
      <trkpt lat="48.51428" lon="-2.00512">
        <ele>101</ele>
        <time>2010-07-24T09:40:16</time>
      </trkpt>
      <trkpt lat="48.51441" lon="-2.00511">
        <ele>102</ele>
        <time>2010-07-24T09:40:19</time>
      </trkpt>
      <trkpt lat="48.51469" lon="-2.00506">
        <ele>101.5</ele>
        <time>2010-07-24T09:40:25</time>
      </trkpt>
      <trkpt lat="48.51489" lon="-2.00502">
        <ele>101.5</ele>
        <time>2010-07-24T09:40:28</time>
      </trkpt>
      <trkpt lat="48.51517" lon="-2.00494">
        <ele>101</ele>
        <time>2010-07-24T09:40:31</time>
      </trkpt>
      <trkpt lat="48.51531" lon="-2.0049">
        <ele>101</ele>
        <time>2010-07-24T09:40:34</time>
      </trkpt>
      <trkpt lat="48.51555" lon="-2.00491">
        <ele>100.5</ele>
        <time>2010-07-24T09:40:37</time>
      </trkpt>
      <trkpt lat="48.51592" lon="-2.005">
        <ele>100</ele>
        <time>2010-07-24T09:40:43</time>
      </trkpt>
      <trkpt lat="48.51607" lon="-2.00505">
        <ele>99.5</ele>
        <time>2010-07-24T09:40:46</time>
      </trkpt>
      <trkpt lat="48.51619" lon="-2.00507">
        <ele>99.5</ele>
        <time>2010-07-24T09:40:49</time>
      </trkpt>
      <trkpt lat="48.51631" lon="-2.00508">
        <ele>99.5</ele>
        <time>2010-07-24T09:40:52</time>
      </trkpt>
      <trkpt lat="48.51637" lon="-2.00518">
        <ele>98.5</ele>
        <time>2010-07-24T09:40:55</time>
      </trkpt>
      <trkpt lat="48.51641" lon="-2.00531">
        <ele>97.5</ele>
        <time>2010-07-24T09:40:58</time>
      </trkpt>
      <trkpt lat="48.51643" lon="-2.00539">
        <ele>97.5</ele>
        <time>2010-07-24T09:41:01</time>
      </trkpt>
      <trkpt lat="48.51643" lon="-2.00545">
        <ele>97.5</ele>
        <time>2010-07-24T09:41:04</time>
      </trkpt>
      <trkpt lat="48.51643" lon="-2.00549">
        <ele>97.5</ele>
        <time>2010-07-24T09:41:07</time>
      </trkpt>
      <trkpt lat="48.51644" lon="-2.00549">
        <ele>97</ele>
        <time>2010-07-24T09:41:10</time>
      </trkpt>
      <trkpt lat="48.51643" lon="-2.00549">
        <ele>97</ele>
        <time>2010-07-24T09:41:13</time>
      </trkpt>
      <trkpt lat="48.51644" lon="-2.00548">
        <ele>97</ele>
        <time>2010-07-24T09:41:16</time>
      </trkpt>
      <trkpt lat="48.51644" lon="-2.00547">
        <ele>95.5</ele>
        <time>2010-07-24T09:41:19</time>
      </trkpt>
      <trkpt lat="48.51648" lon="-2.00553">
        <ele>99</ele>
        <time>2010-07-24T09:41:25</time>
      </trkpt>
      <trkpt lat="48.5165" lon="-2.00561">
        <ele>100</ele>
        <time>2010-07-24T09:41:28</time>
      </trkpt>
      <trkpt lat="48.51651" lon="-2.0057">
        <ele>100</ele>
        <time>2010-07-24T09:41:31</time>
      </trkpt>
      <trkpt lat="48.51654" lon="-2.00573">
        <ele>99.5</ele>
        <time>2010-07-24T09:41:34</time>
      </trkpt>
      <trkpt lat="48.51659" lon="-2.00575">
        <ele>99.5</ele>
        <time>2010-07-24T09:41:37</time>
      </trkpt>
      <trkpt lat="48.51663" lon="-2.00575">
        <ele>100</ele>
        <time>2010-07-24T09:41:40</time>
      </trkpt>
      <trkpt lat="48.51676" lon="-2.00576">
        <ele>101</ele>
        <time>2010-07-24T09:41:43</time>
      </trkpt>
      <trkpt lat="48.51684" lon="-2.00577">
        <ele>100</ele>
        <time>2010-07-24T09:41:46</time>
      </trkpt>
      <trkpt lat="48.51692" lon="-2.00578">
        <ele>100</ele>
        <time>2010-07-24T09:41:49</time>
      </trkpt>
      <trkpt lat="48.51702" lon="-2.00583">
        <ele>100</ele>
        <time>2010-07-24T09:41:52</time>
      </trkpt>
      <trkpt lat="48.5171" lon="-2.00585">
        <ele>100</ele>
        <time>2010-07-24T09:41:55</time>
      </trkpt>
      <trkpt lat="48.51716" lon="-2.00588">
        <ele>100</ele>
        <time>2010-07-24T09:41:58</time>
      </trkpt>
      <trkpt lat="48.51719" lon="-2.00586">
        <ele>100.5</ele>
        <time>2010-07-24T09:42:01</time>
      </trkpt>
      <trkpt lat="48.51722" lon="-2.00587">
        <ele>101</ele>
        <time>2010-07-24T09:42:04</time>
      </trkpt>
      <trkpt lat="48.51722" lon="-2.00589">
        <ele>101</ele>
        <time>2010-07-24T09:42:07</time>
      </trkpt>
      <trkpt lat="48.51722" lon="-2.00589">
        <ele>101</ele>
        <time>2010-07-24T09:42:10</time>
      </trkpt>
      <trkpt lat="48.51725" lon="-2.00591">
        <ele>100</ele>
        <time>2010-07-24T09:42:13</time>
      </trkpt>
      <trkpt lat="48.51726" lon="-2.0059">
        <ele>100</ele>
        <time>2010-07-24T09:42:16</time>
      </trkpt>
      <trkpt lat="48.51731" lon="-2.0059">
        <ele>100</ele>
        <time>2010-07-24T09:42:19</time>
      </trkpt>
      <trkpt lat="48.5173" lon="-2.00572">
        <ele>97.5</ele>
        <time>2010-07-24T09:42:25</time>
      </trkpt>
      <trkpt lat="48.5173" lon="-2.0056">
        <ele>96.5</ele>
        <time>2010-07-24T09:42:28</time>
      </trkpt>
      <trkpt lat="48.51727" lon="-2.00543">
        <ele>95.5</ele>
        <time>2010-07-24T09:42:31</time>
      </trkpt>
      <trkpt lat="48.51724" lon="-2.00525">
        <ele>94</ele>
        <time>2010-07-24T09:42:34</time>
      </trkpt>
      <trkpt lat="48.51721" lon="-2.00511">
        <ele>93.5</ele>
        <time>2010-07-24T09:42:37</time>
      </trkpt>
      <trkpt lat="48.51719" lon="-2.005">
        <ele>93.5</ele>
        <time>2010-07-24T09:42:40</time>
      </trkpt>
      <trkpt lat="48.51718" lon="-2.00494">
        <ele>95</ele>
        <time>2010-07-24T09:42:43</time>
      </trkpt>
      <trkpt lat="48.51718" lon="-2.00488">
        <ele>95</ele>
        <time>2010-07-24T09:42:46</time>
      </trkpt>
      <trkpt lat="48.5172" lon="-2.00484">
        <ele>96</ele>
        <time>2010-07-24T09:42:49</time>
      </trkpt>
      <trkpt lat="48.51721" lon="-2.00479">
        <ele>95.5</ele>
        <time>2010-07-24T09:42:52</time>
      </trkpt>
      <trkpt lat="48.51723" lon="-2.00476">
        <ele>97.5</ele>
        <time>2010-07-24T09:42:55</time>
      </trkpt>
      <trkpt lat="48.51728" lon="-2.00472">
        <ele>96</ele>
        <time>2010-07-24T09:42:58</time>
      </trkpt>
      <trkpt lat="48.51736" lon="-2.0047">
        <ele>94.5</ele>
        <time>2010-07-24T09:43:01</time>
      </trkpt>
      <trkpt lat="48.51743" lon="-2.0047">
        <ele>91.5</ele>
        <time>2010-07-24T09:43:04</time>
      </trkpt>
      <trkpt lat="48.51751" lon="-2.00469">
        <ele>91</ele>
        <time>2010-07-24T09:43:07</time>
      </trkpt>
      <trkpt lat="48.51761" lon="-2.00468">
        <ele>91</ele>
        <time>2010-07-24T09:43:10</time>
      </trkpt>
      <trkpt lat="48.5177" lon="-2.00468">
        <ele>90.5</ele>
        <time>2010-07-24T09:43:13</time>
      </trkpt>
      <trkpt lat="48.5178" lon="-2.00468">
        <ele>90.5</ele>
        <time>2010-07-24T09:43:16</time>
      </trkpt>
      <trkpt lat="48.51792" lon="-2.00469">
        <ele>90</ele>
        <time>2010-07-24T09:43:19</time>
      </trkpt>
      <trkpt lat="48.51805" lon="-2.00469">
        <ele>90</ele>
        <time>2010-07-24T09:43:22</time>
      </trkpt>
      <trkpt lat="48.51817" lon="-2.0047">
        <ele>89.5</ele>
        <time>2010-07-24T09:43:25</time>
      </trkpt>
      <trkpt lat="48.5183" lon="-2.0047">
        <ele>89.5</ele>
        <time>2010-07-24T09:43:28</time>
      </trkpt>
      <trkpt lat="48.51842" lon="-2.00471">
        <ele>88.5</ele>
        <time>2010-07-24T09:43:31</time>
      </trkpt>
      <trkpt lat="48.51854" lon="-2.00472">
        <ele>87</ele>
        <time>2010-07-24T09:43:34</time>
      </trkpt>
      <trkpt lat="48.51868" lon="-2.00473">
        <ele>85.5</ele>
        <time>2010-07-24T09:43:37</time>
      </trkpt>
      <trkpt lat="48.51883" lon="-2.00472">
        <ele>85</ele>
        <time>2010-07-24T09:43:40</time>
      </trkpt>
      <trkpt lat="48.51897" lon="-2.00473">
        <ele>84</ele>
        <time>2010-07-24T09:43:43</time>
      </trkpt>
      <trkpt lat="48.51911" lon="-2.00475">
        <ele>83</ele>
        <time>2010-07-24T09:43:46</time>
      </trkpt>
      <trkpt lat="48.51926" lon="-2.00478">
        <ele>83</ele>
        <time>2010-07-24T09:43:49</time>
      </trkpt>
      <trkpt lat="48.51937" lon="-2.00478">
        <ele>83.5</ele>
        <time>2010-07-24T09:43:52</time>
      </trkpt>
      <trkpt lat="48.51949" lon="-2.00478">
        <ele>83</ele>
        <time>2010-07-24T09:43:55</time>
      </trkpt>
      <trkpt lat="48.51958" lon="-2.00478">
        <ele>83.5</ele>
        <time>2010-07-24T09:43:58</time>
      </trkpt>
      <trkpt lat="48.51967" lon="-2.00477">
        <ele>83</ele>
        <time>2010-07-24T09:44:01</time>
      </trkpt>
      <trkpt lat="48.51979" lon="-2.00476">
        <ele>83.5</ele>
        <time>2010-07-24T09:44:04</time>
      </trkpt>
      <trkpt lat="48.51989" lon="-2.00475">
        <ele>83</ele>
        <time>2010-07-24T09:44:07</time>
      </trkpt>
      <trkpt lat="48.51999" lon="-2.00474">
        <ele>83</ele>
        <time>2010-07-24T09:44:10</time>
      </trkpt>
      <trkpt lat="48.52007" lon="-2.00471">
        <ele>82.5</ele>
        <time>2010-07-24T09:44:13</time>
      </trkpt>
      <trkpt lat="48.52013" lon="-2.00465">
        <ele>82</ele>
        <time>2010-07-24T09:44:16</time>
      </trkpt>
      <trkpt lat="48.52012" lon="-2.00457">
        <ele>84.5</ele>
        <time>2010-07-24T09:44:19</time>
      </trkpt>
      <trkpt lat="48.52011" lon="-2.00448">
        <ele>85</ele>
        <time>2010-07-24T09:44:22</time>
      </trkpt>
      <trkpt lat="48.5201" lon="-2.0044">
        <ele>85</ele>
        <time>2010-07-24T09:44:25</time>
      </trkpt>
      <trkpt lat="48.52011" lon="-2.0043">
        <ele>84.5</ele>
        <time>2010-07-24T09:44:28</time>
      </trkpt>
      <trkpt lat="48.52011" lon="-2.00424">
        <ele>84</ele>
        <time>2010-07-24T09:44:31</time>
      </trkpt>
      <trkpt lat="48.52011" lon="-2.00416">
        <ele>83.5</ele>
        <time>2010-07-24T09:44:34</time>
      </trkpt>
      <trkpt lat="48.52011" lon="-2.00408">
        <ele>83.5</ele>
        <time>2010-07-24T09:44:37</time>
      </trkpt>
      <trkpt lat="48.52011" lon="-2.00398">
        <ele>83</ele>
        <time>2010-07-24T09:44:40</time>
      </trkpt>
      <trkpt lat="48.52011" lon="-2.0039">
        <ele>83</ele>
        <time>2010-07-24T09:44:43</time>
      </trkpt>
      <trkpt lat="48.52011" lon="-2.00382">
        <ele>83.5</ele>
        <time>2010-07-24T09:44:46</time>
      </trkpt>
      <trkpt lat="48.5201" lon="-2.00374">
        <ele>83.5</ele>
        <time>2010-07-24T09:44:49</time>
      </trkpt>
      <trkpt lat="48.52012" lon="-2.00365">
        <ele>83</ele>
        <time>2010-07-24T09:44:52</time>
      </trkpt>
      <trkpt lat="48.52013" lon="-2.00355">
        <ele>83.5</ele>
        <time>2010-07-24T09:44:55</time>
      </trkpt>
      <trkpt lat="48.52013" lon="-2.00346">
        <ele>84</ele>
        <time>2010-07-24T09:44:58</time>
      </trkpt>
      <trkpt lat="48.52015" lon="-2.00335">
        <ele>85</ele>
        <time>2010-07-24T09:45:01</time>
      </trkpt>
      <trkpt lat="48.52015" lon="-2.00334">
        <ele>86</ele>
        <time>2010-07-24T09:45:04</time>
      </trkpt>
      <trkpt lat="48.52016" lon="-2.00334">
        <ele>86</ele>
        <time>2010-07-24T09:45:07</time>
      </trkpt>
      <trkpt lat="48.52016" lon="-2.00333">
        <ele>85.5</ele>
        <time>2010-07-24T09:45:10</time>
      </trkpt>
      <trkpt lat="48.52017" lon="-2.00332">
        <ele>85.5</ele>
        <time>2010-07-24T09:45:13</time>
      </trkpt>
      <trkpt lat="48.52017" lon="-2.00331">
        <ele>85.5</ele>
        <time>2010-07-24T09:45:16</time>
      </trkpt>
      <trkpt lat="48.5202" lon="-2.00324">
        <ele>85</ele>
        <time>2010-07-24T09:45:19</time>
      </trkpt>
      <trkpt lat="48.52025" lon="-2.00323">
        <ele>86.5</ele>
        <time>2010-07-24T09:45:22</time>
      </trkpt>
      <trkpt lat="48.52033" lon="-2.00323">
        <ele>86.5</ele>
        <time>2010-07-24T09:45:25</time>
      </trkpt>
      <trkpt lat="48.52042" lon="-2.00321">
        <ele>86</ele>
        <time>2010-07-24T09:45:28</time>
      </trkpt>
      <trkpt lat="48.52054" lon="-2.00318">
        <ele>86.5</ele>
        <time>2010-07-24T09:45:32</time>
      </trkpt>
      <trkpt lat="48.52069" lon="-2.00314">
        <ele>84.5</ele>
        <time>2010-07-24T09:45:37</time>
      </trkpt>
      <trkpt lat="48.52077" lon="-2.00311">
        <ele>84</ele>
        <time>2010-07-24T09:45:40</time>
      </trkpt>
      <trkpt lat="48.52085" lon="-2.00311">
        <ele>83.5</ele>
        <time>2010-07-24T09:45:43</time>
      </trkpt>
      <trkpt lat="48.52092" lon="-2.00309">
        <ele>82.5</ele>
        <time>2010-07-24T09:45:46</time>
      </trkpt>
      <trkpt lat="48.52103" lon="-2.00308">
        <ele>82</ele>
        <time>2010-07-24T09:45:49</time>
      </trkpt>
      <trkpt lat="48.52114" lon="-2.00305">
        <ele>79</ele>
        <time>2010-07-24T09:45:52</time>
      </trkpt>
      <trkpt lat="48.52125" lon="-2.00306">
        <ele>77</ele>
        <time>2010-07-24T09:45:55</time>
      </trkpt>
      <trkpt lat="48.52138" lon="-2.00305">
        <ele>78</ele>
        <time>2010-07-24T09:45:58</time>
      </trkpt>
      <trkpt lat="48.52154" lon="-2.00307">
        <ele>77.5</ele>
        <time>2010-07-24T09:46:01</time>
      </trkpt>
      <trkpt lat="48.52169" lon="-2.00309">
        <ele>77</ele>
        <time>2010-07-24T09:46:04</time>
      </trkpt>
      <trkpt lat="48.5218" lon="-2.00314">
        <ele>77</ele>
        <time>2010-07-24T09:46:07</time>
      </trkpt>
      <trkpt lat="48.52195" lon="-2.00321">
        <ele>76.5</ele>
        <time>2010-07-24T09:46:10</time>
      </trkpt>
      <trkpt lat="48.52209" lon="-2.00328">
        <ele>77</ele>
        <time>2010-07-24T09:46:13</time>
      </trkpt>
      <trkpt lat="48.52216" lon="-2.00332">
        <ele>77.5</ele>
        <time>2010-07-24T09:46:16</time>
      </trkpt>
      <trkpt lat="48.52224" lon="-2.00334">
        <ele>78.5</ele>
        <time>2010-07-24T09:46:19</time>
      </trkpt>
      <trkpt lat="48.52227" lon="-2.00335">
        <ele>79</ele>
        <time>2010-07-24T09:46:22</time>
      </trkpt>
      <trkpt lat="48.52233" lon="-2.00339">
        <ele>79.5</ele>
        <time>2010-07-24T09:46:25</time>
      </trkpt>
      <trkpt lat="48.52239" lon="-2.00342">
        <ele>80</ele>
        <time>2010-07-24T09:46:28</time>
      </trkpt>
      <trkpt lat="48.52243" lon="-2.00344">
        <ele>81</ele>
        <time>2010-07-24T09:46:31</time>
      </trkpt>
      <trkpt lat="48.52246" lon="-2.00346">
        <ele>82</ele>
        <time>2010-07-24T09:46:34</time>
      </trkpt>
      <trkpt lat="48.52251" lon="-2.00351">
        <ele>82.5</ele>
        <time>2010-07-24T09:46:37</time>
      </trkpt>
      <trkpt lat="48.52255" lon="-2.00355">
        <ele>82.5</ele>
        <time>2010-07-24T09:46:40</time>
      </trkpt>
      <trkpt lat="48.52258" lon="-2.00358">
        <ele>82.5</ele>
        <time>2010-07-24T09:46:43</time>
      </trkpt>
      <trkpt lat="48.52265" lon="-2.00361">
        <ele>82.5</ele>
        <time>2010-07-24T09:46:46</time>
      </trkpt>
      <trkpt lat="48.52271" lon="-2.00362">
        <ele>83.5</ele>
        <time>2010-07-24T09:46:49</time>
      </trkpt>
      <trkpt lat="48.52276" lon="-2.00365">
        <ele>83.5</ele>
        <time>2010-07-24T09:46:52</time>
      </trkpt>
      <trkpt lat="48.52279" lon="-2.00367">
        <ele>83.5</ele>
        <time>2010-07-24T09:46:55</time>
      </trkpt>
      <trkpt lat="48.52284" lon="-2.00368">
        <ele>84</ele>
        <time>2010-07-24T09:46:58</time>
      </trkpt>
      <trkpt lat="48.52289" lon="-2.00367">
        <ele>84.5</ele>
        <time>2010-07-24T09:47:02</time>
      </trkpt>
      <trkpt lat="48.52294" lon="-2.00366">
        <ele>85</ele>
        <time>2010-07-24T09:47:04</time>
      </trkpt>
      <trkpt lat="48.52298" lon="-2.00366">
        <ele>85</ele>
        <time>2010-07-24T09:47:07</time>
      </trkpt>
      <trkpt lat="48.52302" lon="-2.00366">
        <ele>84.5</ele>
        <time>2010-07-24T09:47:10</time>
      </trkpt>
      <trkpt lat="48.52306" lon="-2.00366">
        <ele>84.5</ele>
        <time>2010-07-24T09:47:13</time>
      </trkpt>
      <trkpt lat="48.52311" lon="-2.00368">
        <ele>84</ele>
        <time>2010-07-24T09:47:16</time>
      </trkpt>
      <trkpt lat="48.52316" lon="-2.00369">
        <ele>81.5</ele>
        <time>2010-07-24T09:47:20</time>
      </trkpt>
      <trkpt lat="48.52323" lon="-2.00372">
        <ele>81</ele>
        <time>2010-07-24T09:47:22</time>
      </trkpt>
      <trkpt lat="48.52329" lon="-2.00374">
        <ele>80.5</ele>
        <time>2010-07-24T09:47:25</time>
      </trkpt>
      <trkpt lat="48.52333" lon="-2.00375">
        <ele>80</ele>
        <time>2010-07-24T09:47:28</time>
      </trkpt>
      <trkpt lat="48.52339" lon="-2.00378">
        <ele>79.5</ele>
        <time>2010-07-24T09:47:31</time>
      </trkpt>
      <trkpt lat="48.52343" lon="-2.0038">
        <ele>79</ele>
        <time>2010-07-24T09:47:34</time>
      </trkpt>
      <trkpt lat="48.52349" lon="-2.00383">
        <ele>79</ele>
        <time>2010-07-24T09:47:37</time>
      </trkpt>
      <trkpt lat="48.52353" lon="-2.00382">
        <ele>79.5</ele>
        <time>2010-07-24T09:47:40</time>
      </trkpt>
      <trkpt lat="48.52357" lon="-2.00381">
        <ele>80</ele>
        <time>2010-07-24T09:47:43</time>
      </trkpt>
      <trkpt lat="48.52361" lon="-2.00381">
        <ele>80.5</ele>
        <time>2010-07-24T09:47:46</time>
      </trkpt>
      <trkpt lat="48.52365" lon="-2.00383">
        <ele>79.5</ele>
        <time>2010-07-24T09:47:49</time>
      </trkpt>
      <trkpt lat="48.52368" lon="-2.00384">
        <ele>80</ele>
        <time>2010-07-24T09:47:52</time>
      </trkpt>
      <trkpt lat="48.52374" lon="-2.00386">
        <ele>80</ele>
        <time>2010-07-24T09:47:55</time>
      </trkpt>
      <trkpt lat="48.52378" lon="-2.00387">
        <ele>79</ele>
        <time>2010-07-24T09:47:58</time>
      </trkpt>
      <trkpt lat="48.52379" lon="-2.0039">
        <ele>79</ele>
        <time>2010-07-24T09:48:02</time>
      </trkpt>
      <trkpt lat="48.52379" lon="-2.00391">
        <ele>79</ele>
        <time>2010-07-24T09:48:04</time>
      </trkpt>
      <trkpt lat="48.5238" lon="-2.0039">
        <ele>79</ele>
        <time>2010-07-24T09:48:07</time>
      </trkpt>
      <trkpt lat="48.5238" lon="-2.00389">
        <ele>78.5</ele>
        <time>2010-07-24T09:48:10</time>
      </trkpt>
      <trkpt lat="48.52381" lon="-2.00388">
        <ele>78</ele>
        <time>2010-07-24T09:48:13</time>
      </trkpt>
      <trkpt lat="48.52382" lon="-2.00389">
        <ele>77.5</ele>
        <time>2010-07-24T09:48:16</time>
      </trkpt>
      <trkpt lat="48.52382" lon="-2.0039">
        <ele>77.5</ele>
        <time>2010-07-24T09:48:19</time>
      </trkpt>
      <trkpt lat="48.52389" lon="-2.00393">
        <ele>79</ele>
        <time>2010-07-24T09:48:22</time>
      </trkpt>
      <trkpt lat="48.52394" lon="-2.00394">
        <ele>80</ele>
        <time>2010-07-24T09:48:26</time>
      </trkpt>
      <trkpt lat="48.52398" lon="-2.00394">
        <ele>81</ele>
        <time>2010-07-24T09:48:28</time>
      </trkpt>
      <trkpt lat="48.52398" lon="-2.00394">
        <ele>80.5</ele>
        <time>2010-07-24T09:48:31</time>
      </trkpt>
      <trkpt lat="48.52398" lon="-2.00394">
        <ele>80</ele>
        <time>2010-07-24T09:48:34</time>
      </trkpt>
      <trkpt lat="48.52398" lon="-2.00396">
        <ele>80.5</ele>
        <time>2010-07-24T09:48:37</time>
      </trkpt>
      <trkpt lat="48.52392" lon="-2.00396">
        <ele>80</ele>
        <time>2010-07-24T09:48:40</time>
      </trkpt>
      <trkpt lat="48.52385" lon="-2.00387">
        <ele>80.5</ele>
        <time>2010-07-24T09:48:44</time>
      </trkpt>
      <trkpt lat="48.52377" lon="-2.00384">
        <ele>79</ele>
        <time>2010-07-24T09:48:47</time>
      </trkpt>
      <trkpt lat="48.52368" lon="-2.0038">
        <ele>79</ele>
        <time>2010-07-24T09:48:50</time>
      </trkpt>
      <trkpt lat="48.52361" lon="-2.00382">
        <ele>78.5</ele>
        <time>2010-07-24T09:48:53</time>
      </trkpt>
      <trkpt lat="48.52358" lon="-2.00382">
        <ele>78</ele>
        <time>2010-07-24T09:48:56</time>
      </trkpt>
      <trkpt lat="48.52353" lon="-2.00381">
        <ele>77.5</ele>
        <time>2010-07-24T09:48:59</time>
      </trkpt>
      <trkpt lat="48.52346" lon="-2.00381">
        <ele>75</ele>
        <time>2010-07-24T09:49:02</time>
      </trkpt>
      <trkpt lat="48.52338" lon="-2.00381">
        <ele>73</ele>
        <time>2010-07-24T09:49:05</time>
      </trkpt>
      <trkpt lat="48.52326" lon="-2.00379">
        <ele>71.5</ele>
        <time>2010-07-24T09:49:08</time>
      </trkpt>
      <trkpt lat="48.52311" lon="-2.00379">
        <ele>71.5</ele>
        <time>2010-07-24T09:49:11</time>
      </trkpt>
      <trkpt lat="48.52297" lon="-2.00379">
        <ele>71</ele>
        <time>2010-07-24T09:49:14</time>
      </trkpt>
      <trkpt lat="48.52287" lon="-2.00378">
        <ele>70.5</ele>
        <time>2010-07-24T09:49:17</time>
      </trkpt>
      <trkpt lat="48.52281" lon="-2.00377">
        <ele>70</ele>
        <time>2010-07-24T09:49:20</time>
      </trkpt>
      <trkpt lat="48.52273" lon="-2.00373">
        <ele>69.5</ele>
        <time>2010-07-24T09:49:23</time>
      </trkpt>
      <trkpt lat="48.52264" lon="-2.00365">
        <ele>69</ele>
        <time>2010-07-24T09:49:26</time>
      </trkpt>
      <trkpt lat="48.52253" lon="-2.00356">
        <ele>69</ele>
        <time>2010-07-24T09:49:29</time>
      </trkpt>
      <trkpt lat="48.5224" lon="-2.00348">
        <ele>69</ele>
        <time>2010-07-24T09:49:32</time>
      </trkpt>
      <trkpt lat="48.52227" lon="-2.00342">
        <ele>70</ele>
        <time>2010-07-24T09:49:35</time>
      </trkpt>
      <trkpt lat="48.52214" lon="-2.00334">
        <ele>70</ele>
        <time>2010-07-24T09:49:38</time>
      </trkpt>
      <trkpt lat="48.52205" lon="-2.0033">
        <ele>70</ele>
        <time>2010-07-24T09:49:41</time>
      </trkpt>
      <trkpt lat="48.52198" lon="-2.00326">
        <ele>70</ele>
        <time>2010-07-24T09:49:44</time>
      </trkpt>
      <trkpt lat="48.52192" lon="-2.00323">
        <ele>70</ele>
        <time>2010-07-24T09:49:47</time>
      </trkpt>
      <trkpt lat="48.52185" lon="-2.00322">
        <ele>71</ele>
        <time>2010-07-24T09:49:50</time>
      </trkpt>
      <trkpt lat="48.52177" lon="-2.0032">
        <ele>71</ele>
        <time>2010-07-24T09:49:53</time>
      </trkpt>
      <trkpt lat="48.5217" lon="-2.00319">
        <ele>71.5</ele>
        <time>2010-07-24T09:49:56</time>
      </trkpt>
      <trkpt lat="48.52164" lon="-2.00319">
        <ele>71</ele>
        <time>2010-07-24T09:49:59</time>
      </trkpt>
      <trkpt lat="48.52159" lon="-2.00318">
        <ele>72.5</ele>
        <time>2010-07-24T09:50:02</time>
      </trkpt>
      <trkpt lat="48.52153" lon="-2.00317">
        <ele>72.5</ele>
        <time>2010-07-24T09:50:05</time>
      </trkpt>
      <trkpt lat="48.52147" lon="-2.00315">
        <ele>73</ele>
        <time>2010-07-24T09:50:08</time>
      </trkpt>
      <trkpt lat="48.5214" lon="-2.00314">
        <ele>72</ele>
        <time>2010-07-24T09:50:11</time>
      </trkpt>
      <trkpt lat="48.52136" lon="-2.00313">
        <ele>71.5</ele>
        <time>2010-07-24T09:50:14</time>
      </trkpt>
      <trkpt lat="48.52128" lon="-2.00311">
        <ele>71</ele>
        <time>2010-07-24T09:50:17</time>
      </trkpt>
      <trkpt lat="48.52124" lon="-2.0031">
        <ele>72</ele>
        <time>2010-07-24T09:50:20</time>
      </trkpt>
      <trkpt lat="48.52119" lon="-2.0031">
        <ele>72.5</ele>
        <time>2010-07-24T09:50:23</time>
      </trkpt>
      <trkpt lat="48.52116" lon="-2.00311">
        <ele>72.5</ele>
        <time>2010-07-24T09:50:26</time>
      </trkpt>
      <trkpt lat="48.52109" lon="-2.0031">
        <ele>72.5</ele>
        <time>2010-07-24T09:50:29</time>
      </trkpt>
      <trkpt lat="48.52107" lon="-2.0031">
        <ele>73</ele>
        <time>2010-07-24T09:50:32</time>
      </trkpt>
      <trkpt lat="48.521" lon="-2.0031">
        <ele>73</ele>
        <time>2010-07-24T09:50:35</time>
      </trkpt>
      <trkpt lat="48.52094" lon="-2.00309">
        <ele>73</ele>
        <time>2010-07-24T09:50:38</time>
      </trkpt>
      <trkpt lat="48.52089" lon="-2.00309">
        <ele>73.5</ele>
        <time>2010-07-24T09:50:41</time>
      </trkpt>
      <trkpt lat="48.52083" lon="-2.00309">
        <ele>74</ele>
        <time>2010-07-24T09:50:44</time>
      </trkpt>
      <trkpt lat="48.52078" lon="-2.00309">
        <ele>74.5</ele>
        <time>2010-07-24T09:50:47</time>
      </trkpt>
      <trkpt lat="48.52073" lon="-2.00309">
        <ele>75</ele>
        <time>2010-07-24T09:50:50</time>
      </trkpt>
      <trkpt lat="48.52069" lon="-2.0031">
        <ele>75.5</ele>
        <time>2010-07-24T09:50:53</time>
      </trkpt>
      <trkpt lat="48.52063" lon="-2.00311">
        <ele>76.5</ele>
        <time>2010-07-24T09:50:56</time>
      </trkpt>
      <trkpt lat="48.52058" lon="-2.0031">
        <ele>77.5</ele>
        <time>2010-07-24T09:50:59</time>
      </trkpt>
      <trkpt lat="48.52057" lon="-2.00305">
        <ele>78</ele>
        <time>2010-07-24T09:51:02</time>
      </trkpt>
      <trkpt lat="48.52056" lon="-2.00296">
        <ele>78.5</ele>
        <time>2010-07-24T09:51:05</time>
      </trkpt>
      <trkpt lat="48.52055" lon="-2.00286">
        <ele>77.5</ele>
        <time>2010-07-24T09:51:08</time>
      </trkpt>
      <trkpt lat="48.52054" lon="-2.00276">
        <ele>77.5</ele>
        <time>2010-07-24T09:51:11</time>
      </trkpt>
      <trkpt lat="48.52054" lon="-2.00266">
        <ele>77</ele>
        <time>2010-07-24T09:51:14</time>
      </trkpt>
      <trkpt lat="48.52053" lon="-2.00257">
        <ele>77</ele>
        <time>2010-07-24T09:51:17</time>
      </trkpt>
      <trkpt lat="48.52051" lon="-2.00247">
        <ele>77.5</ele>
        <time>2010-07-24T09:51:20</time>
      </trkpt>
      <trkpt lat="48.52049" lon="-2.00236">
        <ele>77.5</ele>
        <time>2010-07-24T09:51:23</time>
      </trkpt>
      <trkpt lat="48.52048" lon="-2.00226">
        <ele>77.5</ele>
        <time>2010-07-24T09:51:26</time>
      </trkpt>
      <trkpt lat="48.52047" lon="-2.00216">
        <ele>77.5</ele>
        <time>2010-07-24T09:51:29</time>
      </trkpt>
      <trkpt lat="48.52033" lon="-2.00201">
        <ele>69.5</ele>
        <time>2010-07-24T09:51:32</time>
      </trkpt>
      <trkpt lat="48.52028" lon="-2.00191">
        <ele>67</ele>
        <time>2010-07-24T09:51:35</time>
      </trkpt>
      <trkpt lat="48.52025" lon="-2.00184">
        <ele>67</ele>
        <time>2010-07-24T09:51:38</time>
      </trkpt>
      <trkpt lat="48.52021" lon="-2.0018">
        <ele>67</ele>
        <time>2010-07-24T09:51:41</time>
      </trkpt>
      <trkpt lat="48.52017" lon="-2.00175">
        <ele>67.5</ele>
        <time>2010-07-24T09:51:44</time>
      </trkpt>
      <trkpt lat="48.52011" lon="-2.00174">
        <ele>68.5</ele>
        <time>2010-07-24T09:51:47</time>
      </trkpt>
      <trkpt lat="48.52008" lon="-2.00171">
        <ele>69</ele>
        <time>2010-07-24T09:51:50</time>
      </trkpt>
      <trkpt lat="48.52005" lon="-2.00167">
        <ele>69.5</ele>
        <time>2010-07-24T09:51:53</time>
      </trkpt>
      <trkpt lat="48.52003" lon="-2.00166">
        <ele>69</ele>
        <time>2010-07-24T09:51:56</time>
      </trkpt>
      <trkpt lat="48.52002" lon="-2.0016">
        <ele>63.5</ele>
        <time>2010-07-24T09:51:59</time>
      </trkpt>
      <trkpt lat="48.52002" lon="-2.00158">
        <ele>61.5</ele>
        <time>2010-07-24T09:52:02</time>
      </trkpt>
      <trkpt lat="48.52003" lon="-2.00158">
        <ele>61.5</ele>
        <time>2010-07-24T09:52:05</time>
      </trkpt>
      <trkpt lat="48.52006" lon="-2.00159">
        <ele>62</ele>
        <time>2010-07-24T09:52:08</time>
      </trkpt>
      <trkpt lat="48.52012" lon="-2.0016">
        <ele>62.5</ele>
        <time>2010-07-24T09:52:11</time>
      </trkpt>
      <trkpt lat="48.52017" lon="-2.00161">
        <ele>63</ele>
        <time>2010-07-24T09:52:14</time>
      </trkpt>
      <trkpt lat="48.52022" lon="-2.00163">
        <ele>63.5</ele>
        <time>2010-07-24T09:52:17</time>
      </trkpt>
      <trkpt lat="48.52025" lon="-2.0017">
        <ele>64</ele>
        <time>2010-07-24T09:52:20</time>
      </trkpt>
      <trkpt lat="48.52025" lon="-2.00177">
        <ele>64</ele>
        <time>2010-07-24T09:52:23</time>
      </trkpt>
      <trkpt lat="48.52026" lon="-2.00185">
        <ele>64</ele>
        <time>2010-07-24T09:52:26</time>
      </trkpt>
      <trkpt lat="48.52026" lon="-2.00192">
        <ele>65</ele>
        <time>2010-07-24T09:52:29</time>
      </trkpt>
      <trkpt lat="48.52026" lon="-2.00199">
        <ele>66</ele>
        <time>2010-07-24T09:52:32</time>
      </trkpt>
      <trkpt lat="48.52025" lon="-2.0021">
        <ele>67.5</ele>
        <time>2010-07-24T09:52:35</time>
      </trkpt>
      <trkpt lat="48.52026" lon="-2.00218">
        <ele>68</ele>
        <time>2010-07-24T09:52:38</time>
      </trkpt>
      <trkpt lat="48.52025" lon="-2.00222">
        <ele>68.5</ele>
        <time>2010-07-24T09:52:41</time>
      </trkpt>
      <trkpt lat="48.52024" lon="-2.00227">
        <ele>71</ele>
        <time>2010-07-24T09:52:44</time>
      </trkpt>
      <trkpt lat="48.52024" lon="-2.00235">
        <ele>72</ele>
        <time>2010-07-24T09:52:47</time>
      </trkpt>
      <trkpt lat="48.52025" lon="-2.00245">
        <ele>73</ele>
        <time>2010-07-24T09:52:50</time>
      </trkpt>
      <trkpt lat="48.52026" lon="-2.00255">
        <ele>73.5</ele>
        <time>2010-07-24T09:52:53</time>
      </trkpt>
      <trkpt lat="48.52026" lon="-2.00262">
        <ele>75.5</ele>
        <time>2010-07-24T09:52:56</time>
      </trkpt>
      <trkpt lat="48.5203" lon="-2.00268">
        <ele>78.5</ele>
        <time>2010-07-24T09:52:59</time>
      </trkpt>
      <trkpt lat="48.52036" lon="-2.00269">
        <ele>81</ele>
        <time>2010-07-24T09:53:02</time>
      </trkpt>
      <trkpt lat="48.52044" lon="-2.00271">
        <ele>82</ele>
        <time>2010-07-24T09:53:05</time>
      </trkpt>
      <trkpt lat="48.52052" lon="-2.00275">
        <ele>84</ele>
        <time>2010-07-24T09:53:08</time>
      </trkpt>
      <trkpt lat="48.52062" lon="-2.00277">
        <ele>83.5</ele>
        <time>2010-07-24T09:53:11</time>
      </trkpt>
      <trkpt lat="48.52072" lon="-2.00278">
        <ele>82</ele>
        <time>2010-07-24T09:53:14</time>
      </trkpt>
      <trkpt lat="48.52081" lon="-2.00278">
        <ele>82</ele>
        <time>2010-07-24T09:53:17</time>
      </trkpt>
      <trkpt lat="48.5209" lon="-2.00281">
        <ele>81</ele>
        <time>2010-07-24T09:53:20</time>
      </trkpt>
      <trkpt lat="48.52097" lon="-2.00282">
        <ele>81.5</ele>
        <time>2010-07-24T09:53:23</time>
      </trkpt>
      <trkpt lat="48.52105" lon="-2.00284">
        <ele>82</ele>
        <time>2010-07-24T09:53:26</time>
      </trkpt>
      <trkpt lat="48.52115" lon="-2.00288">
        <ele>80.5</ele>
        <time>2010-07-24T09:53:29</time>
      </trkpt>
      <trkpt lat="48.52126" lon="-2.00291">
        <ele>79</ele>
        <time>2010-07-24T09:53:32</time>
      </trkpt>
      <trkpt lat="48.52138" lon="-2.00293">
        <ele>78.5</ele>
        <time>2010-07-24T09:53:35</time>
      </trkpt>
      <trkpt lat="48.52152" lon="-2.00296">
        <ele>77.5</ele>
        <time>2010-07-24T09:53:38</time>
      </trkpt>
      <trkpt lat="48.52167" lon="-2.00299">
        <ele>77.5</ele>
        <time>2010-07-24T09:53:41</time>
      </trkpt>
      <trkpt lat="48.52182" lon="-2.00304">
        <ele>79.5</ele>
        <time>2010-07-24T09:53:44</time>
      </trkpt>
      <trkpt lat="48.52201" lon="-2.00311">
        <ele>81</ele>
        <time>2010-07-24T09:53:47</time>
      </trkpt>
      <trkpt lat="48.52218" lon="-2.00319">
        <ele>81.5</ele>
        <time>2010-07-24T09:53:50</time>
      </trkpt>
      <trkpt lat="48.52228" lon="-2.00324">
        <ele>81.5</ele>
        <time>2010-07-24T09:53:53</time>
      </trkpt>
      <trkpt lat="48.52234" lon="-2.00329">
        <ele>81.5</ele>
        <time>2010-07-24T09:53:56</time>
      </trkpt>
      <trkpt lat="48.52239" lon="-2.00332">
        <ele>81.5</ele>
        <time>2010-07-24T09:53:59</time>
      </trkpt>
      <trkpt lat="48.52244" lon="-2.00336">
        <ele>82</ele>
        <time>2010-07-24T09:54:02</time>
      </trkpt>
      <trkpt lat="48.52247" lon="-2.00339">
        <ele>82.5</ele>
        <time>2010-07-24T09:54:05</time>
      </trkpt>
      <trkpt lat="48.5225" lon="-2.00343">
        <ele>83.5</ele>
        <time>2010-07-24T09:54:08</time>
      </trkpt>
      <trkpt lat="48.52256" lon="-2.00348">
        <ele>83.5</ele>
        <time>2010-07-24T09:54:11</time>
      </trkpt>
      <trkpt lat="48.52259" lon="-2.00351">
        <ele>84</ele>
        <time>2010-07-24T09:54:14</time>
      </trkpt>
      <trkpt lat="48.52262" lon="-2.00357">
        <ele>83.5</ele>
        <time>2010-07-24T09:54:17</time>
      </trkpt>
      <trkpt lat="48.52266" lon="-2.00366">
        <ele>83.5</ele>
        <time>2010-07-24T09:54:20</time>
      </trkpt>
      <trkpt lat="48.52268" lon="-2.00372">
        <ele>85</ele>
        <time>2010-07-24T09:54:23</time>
      </trkpt>
      <trkpt lat="48.52275" lon="-2.00379">
        <ele>83.5</ele>
        <time>2010-07-24T09:54:26</time>
      </trkpt>
      <trkpt lat="48.52284" lon="-2.00386">
        <ele>82.5</ele>
        <time>2010-07-24T09:54:29</time>
      </trkpt>
      <trkpt lat="48.52289" lon="-2.00389">
        <ele>83.5</ele>
        <time>2010-07-24T09:54:32</time>
      </trkpt>
      <trkpt lat="48.52296" lon="-2.00392">
        <ele>83</ele>
        <time>2010-07-24T09:54:35</time>
      </trkpt>
      <trkpt lat="48.52301" lon="-2.00393">
        <ele>81.5</ele>
        <time>2010-07-24T09:54:38</time>
      </trkpt>
      <trkpt lat="48.52306" lon="-2.00396">
        <ele>81.5</ele>
        <time>2010-07-24T09:54:41</time>
      </trkpt>
      <trkpt lat="48.52311" lon="-2.004">
        <ele>78</ele>
        <time>2010-07-24T09:54:44</time>
      </trkpt>
      <trkpt lat="48.52314" lon="-2.00399">
        <ele>79</ele>
        <time>2010-07-24T09:54:47</time>
      </trkpt>
      <trkpt lat="48.52319" lon="-2.00397">
        <ele>80</ele>
        <time>2010-07-24T09:54:51</time>
      </trkpt>
      <trkpt lat="48.52325" lon="-2.00396">
        <ele>81</ele>
        <time>2010-07-24T09:54:56</time>
      </trkpt>
      <trkpt lat="48.52335" lon="-2.00396">
        <ele>79.5</ele>
        <time>2010-07-24T09:55:03</time>
      </trkpt>
      <trkpt lat="48.52344" lon="-2.00397">
        <ele>79</ele>
        <time>2010-07-24T09:55:09</time>
      </trkpt>
      <trkpt lat="48.52351" lon="-2.00396">
        <ele>77</ele>
        <time>2010-07-24T09:55:12</time>
      </trkpt>
      <trkpt lat="48.52357" lon="-2.00396">
        <ele>77.5</ele>
        <time>2010-07-24T09:55:15</time>
      </trkpt>
      <trkpt lat="48.52362" lon="-2.00396">
        <ele>77</ele>
        <time>2010-07-24T09:55:18</time>
      </trkpt>
      <trkpt lat="48.52368" lon="-2.00397">
        <ele>76.5</ele>
        <time>2010-07-24T09:55:21</time>
      </trkpt>
      <trkpt lat="48.52373" lon="-2.00398">
        <ele>75.5</ele>
        <time>2010-07-24T09:55:24</time>
      </trkpt>
      <trkpt lat="48.52377" lon="-2.00401">
        <ele>75</ele>
        <time>2010-07-24T09:55:27</time>
      </trkpt>
      <trkpt lat="48.52383" lon="-2.00402">
        <ele>74.5</ele>
        <time>2010-07-24T09:55:30</time>
      </trkpt>
      <trkpt lat="48.52388" lon="-2.00402">
        <ele>75.5</ele>
        <time>2010-07-24T09:55:33</time>
      </trkpt>
      <trkpt lat="48.52393" lon="-2.00401">
        <ele>75.5</ele>
        <time>2010-07-24T09:55:36</time>
      </trkpt>
      <trkpt lat="48.52398" lon="-2.00401">
        <ele>76</ele>
        <time>2010-07-24T09:55:39</time>
      </trkpt>
      <trkpt lat="48.524" lon="-2.004">
        <ele>77</ele>
        <time>2010-07-24T09:55:42</time>
      </trkpt>
      <trkpt lat="48.52401" lon="-2.00399">
        <ele>76.5</ele>
        <time>2010-07-24T09:55:45</time>
      </trkpt>
      <trkpt lat="48.52401" lon="-2.00399">
        <ele>76</ele>
        <time>2010-07-24T09:55:48</time>
      </trkpt>
      <trkpt lat="48.52405" lon="-2.00399">
        <ele>76.5</ele>
        <time>2010-07-24T09:55:51</time>
      </trkpt>
      <trkpt lat="48.52409" lon="-2.00399">
        <ele>77</ele>
        <time>2010-07-24T09:55:54</time>
      </trkpt>
      <trkpt lat="48.52414" lon="-2.00402">
        <ele>77</ele>
        <time>2010-07-24T09:55:57</time>
      </trkpt>
      <trkpt lat="48.52419" lon="-2.00403">
        <ele>78</ele>
        <time>2010-07-24T09:56:00</time>
      </trkpt>
      <trkpt lat="48.52424" lon="-2.00403">
        <ele>79</ele>
        <time>2010-07-24T09:56:03</time>
      </trkpt>
      <trkpt lat="48.52429" lon="-2.00403">
        <ele>79.5</ele>
        <time>2010-07-24T09:56:06</time>
      </trkpt>
      <trkpt lat="48.52434" lon="-2.00403">
        <ele>80</ele>
        <time>2010-07-24T09:56:09</time>
      </trkpt>
      <trkpt lat="48.52439" lon="-2.00403">
        <ele>80.5</ele>
        <time>2010-07-24T09:56:12</time>
      </trkpt>
      <trkpt lat="48.52444" lon="-2.00403">
        <ele>81</ele>
        <time>2010-07-24T09:56:15</time>
      </trkpt>
      <trkpt lat="48.52449" lon="-2.00403">
        <ele>81.5</ele>
        <time>2010-07-24T09:56:18</time>
      </trkpt>
      <trkpt lat="48.52453" lon="-2.00404">
        <ele>82</ele>
        <time>2010-07-24T09:56:21</time>
      </trkpt>
      <trkpt lat="48.52458" lon="-2.00404">
        <ele>83</ele>
        <time>2010-07-24T09:56:24</time>
      </trkpt>
      <trkpt lat="48.52464" lon="-2.00404">
        <ele>83.5</ele>
        <time>2010-07-24T09:56:27</time>
      </trkpt>
      <trkpt lat="48.52468" lon="-2.00403">
        <ele>84.5</ele>
        <time>2010-07-24T09:56:30</time>
      </trkpt>
      <trkpt lat="48.52473" lon="-2.00402">
        <ele>85.5</ele>
        <time>2010-07-24T09:56:33</time>
      </trkpt>
      <trkpt lat="48.52475" lon="-2.00401">
        <ele>87</ele>
        <time>2010-07-24T09:56:36</time>
      </trkpt>
      <trkpt lat="48.52479" lon="-2.00404">
        <ele>87.5</ele>
        <time>2010-07-24T09:56:39</time>
      </trkpt>
      <trkpt lat="48.52483" lon="-2.00406">
        <ele>87.5</ele>
        <time>2010-07-24T09:56:42</time>
      </trkpt>
      <trkpt lat="48.52488" lon="-2.00408">
        <ele>87.5</ele>
        <time>2010-07-24T09:56:45</time>
      </trkpt>
      <trkpt lat="48.52493" lon="-2.00408">
        <ele>87.5</ele>
        <time>2010-07-24T09:56:48</time>
      </trkpt>
      <trkpt lat="48.52498" lon="-2.00409">
        <ele>88</ele>
        <time>2010-07-24T09:56:51</time>
      </trkpt>
      <trkpt lat="48.52503" lon="-2.00409">
        <ele>87.5</ele>
        <time>2010-07-24T09:56:54</time>
      </trkpt>
      <trkpt lat="48.52508" lon="-2.00409">
        <ele>87</ele>
        <time>2010-07-24T09:56:57</time>
      </trkpt>
      <trkpt lat="48.52513" lon="-2.00411">
        <ele>87</ele>
        <time>2010-07-24T09:57:00</time>
      </trkpt>
      <trkpt lat="48.52518" lon="-2.00412">
        <ele>88.5</ele>
        <time>2010-07-24T09:57:03</time>
      </trkpt>
      <trkpt lat="48.52522" lon="-2.00414">
        <ele>89</ele>
        <time>2010-07-24T09:57:06</time>
      </trkpt>
      <trkpt lat="48.52527" lon="-2.00412">
        <ele>88</ele>
        <time>2010-07-24T09:57:09</time>
      </trkpt>
      <trkpt lat="48.52533" lon="-2.00411">
        <ele>86.5</ele>
        <time>2010-07-24T09:57:12</time>
      </trkpt>
      <trkpt lat="48.52537" lon="-2.00412">
        <ele>85.5</ele>
        <time>2010-07-24T09:57:15</time>
      </trkpt>
      <trkpt lat="48.52542" lon="-2.00413">
        <ele>86</ele>
        <time>2010-07-24T09:57:18</time>
      </trkpt>
      <trkpt lat="48.52546" lon="-2.00414">
        <ele>87.5</ele>
        <time>2010-07-24T09:57:21</time>
      </trkpt>
      <trkpt lat="48.5255" lon="-2.00413">
        <ele>88</ele>
        <time>2010-07-24T09:57:24</time>
      </trkpt>
      <trkpt lat="48.52554" lon="-2.00412">
        <ele>89</ele>
        <time>2010-07-24T09:57:27</time>
      </trkpt>
      <trkpt lat="48.52558" lon="-2.0041">
        <ele>89.5</ele>
        <time>2010-07-24T09:57:30</time>
      </trkpt>
      <trkpt lat="48.52562" lon="-2.00408">
        <ele>90</ele>
        <time>2010-07-24T09:57:33</time>
      </trkpt>
      <trkpt lat="48.52567" lon="-2.00406">
        <ele>91</ele>
        <time>2010-07-24T09:57:36</time>
      </trkpt>
      <trkpt lat="48.5257" lon="-2.00403">
        <ele>92</ele>
        <time>2010-07-24T09:57:39</time>
      </trkpt>
      <trkpt lat="48.52574" lon="-2.00401">
        <ele>93.5</ele>
        <time>2010-07-24T09:57:42</time>
      </trkpt>
      <trkpt lat="48.52578" lon="-2.00399">
        <ele>94.5</ele>
        <time>2010-07-24T09:57:45</time>
      </trkpt>
      <trkpt lat="48.52582" lon="-2.00397">
        <ele>96</ele>
        <time>2010-07-24T09:57:48</time>
      </trkpt>
      <trkpt lat="48.52586" lon="-2.00394">
        <ele>97.5</ele>
        <time>2010-07-24T09:57:51</time>
      </trkpt>
      <trkpt lat="48.52591" lon="-2.00391">
        <ele>98.5</ele>
        <time>2010-07-24T09:57:54</time>
      </trkpt>
      <trkpt lat="48.52597" lon="-2.00388">
        <ele>100</ele>
        <time>2010-07-24T09:57:57</time>
      </trkpt>
      <trkpt lat="48.52601" lon="-2.00387">
        <ele>101</ele>
        <time>2010-07-24T09:58:00</time>
      </trkpt>
      <trkpt lat="48.52607" lon="-2.00385">
        <ele>102</ele>
        <time>2010-07-24T09:58:03</time>
      </trkpt>
      <trkpt lat="48.52612" lon="-2.00383">
        <ele>103</ele>
        <time>2010-07-24T09:58:06</time>
      </trkpt>
      <trkpt lat="48.52618" lon="-2.00378">
        <ele>103</ele>
        <time>2010-07-24T09:58:09</time>
      </trkpt>
      <trkpt lat="48.52624" lon="-2.00375">
        <ele>102</ele>
        <time>2010-07-24T09:58:12</time>
      </trkpt>
      <trkpt lat="48.52631" lon="-2.00374">
        <ele>103.5</ele>
        <time>2010-07-24T09:58:15</time>
      </trkpt>
      <trkpt lat="48.52638" lon="-2.00375">
        <ele>104</ele>
        <time>2010-07-24T09:58:18</time>
      </trkpt>
      <trkpt lat="48.52642" lon="-2.00379">
        <ele>105</ele>
        <time>2010-07-24T09:58:21</time>
      </trkpt>
      <trkpt lat="48.52647" lon="-2.00386">
        <ele>105.5</ele>
        <time>2010-07-24T09:58:24</time>
      </trkpt>
      <trkpt lat="48.52654" lon="-2.00395">
        <ele>101.5</ele>
        <time>2010-07-24T09:58:27</time>
      </trkpt>
      <trkpt lat="48.52662" lon="-2.00408">
        <ele>96</ele>
        <time>2010-07-24T09:58:30</time>
      </trkpt>
      <trkpt lat="48.5267" lon="-2.00419">
        <ele>95</ele>
        <time>2010-07-24T09:58:33</time>
      </trkpt>
      <trkpt lat="48.52678" lon="-2.0043">
        <ele>95</ele>
        <time>2010-07-24T09:58:36</time>
      </trkpt>
      <trkpt lat="48.52686" lon="-2.00442">
        <ele>95</ele>
        <time>2010-07-24T09:58:39</time>
      </trkpt>
      <trkpt lat="48.52695" lon="-2.00453">
        <ele>95</ele>
        <time>2010-07-24T09:58:42</time>
      </trkpt>
      <trkpt lat="48.52703" lon="-2.00461">
        <ele>95.5</ele>
        <time>2010-07-24T09:58:45</time>
      </trkpt>
      <trkpt lat="48.52707" lon="-2.00464">
        <ele>95.5</ele>
        <time>2010-07-24T09:58:48</time>
      </trkpt>
      <trkpt lat="48.52708" lon="-2.00465">
        <ele>96.5</ele>
        <time>2010-07-24T09:58:51</time>
      </trkpt>
      <trkpt lat="48.5271" lon="-2.00472">
        <ele>97.5</ele>
        <time>2010-07-24T09:58:54</time>
      </trkpt>
      <trkpt lat="48.52708" lon="-2.00483">
        <ele>98</ele>
        <time>2010-07-24T09:58:57</time>
      </trkpt>
      <trkpt lat="48.52704" lon="-2.00498">
        <ele>98</ele>
        <time>2010-07-24T09:59:00</time>
      </trkpt>
      <trkpt lat="48.527" lon="-2.00514">
        <ele>97.5</ele>
        <time>2010-07-24T09:59:03</time>
      </trkpt>
      <trkpt lat="48.527" lon="-2.00537">
        <ele>97</ele>
        <time>2010-07-24T09:59:09</time>
      </trkpt>
      <trkpt lat="48.527" lon="-2.00539">
        <ele>97</ele>
        <time>2010-07-24T09:59:12</time>
      </trkpt>
      <trkpt lat="48.527" lon="-2.00539">
        <ele>97.5</ele>
        <time>2010-07-24T09:59:15</time>
      </trkpt>
      <trkpt lat="48.527" lon="-2.00539">
        <ele>98</ele>
        <time>2010-07-24T09:59:18</time>
      </trkpt>
      <trkpt lat="48.52699" lon="-2.00538">
        <ele>98.5</ele>
        <time>2010-07-24T09:59:21</time>
      </trkpt>
      <trkpt lat="48.52699" lon="-2.00538">
        <ele>99.5</ele>
        <time>2010-07-24T09:59:24</time>
      </trkpt>
      <trkpt lat="48.52699" lon="-2.00539">
        <ele>100.5</ele>
        <time>2010-07-24T09:59:27</time>
      </trkpt>
      <trkpt lat="48.527" lon="-2.00539">
        <ele>100.5</ele>
        <time>2010-07-24T09:59:30</time>
      </trkpt>
      <trkpt lat="48.527" lon="-2.0054">
        <ele>100.5</ele>
        <time>2010-07-24T09:59:33</time>
      </trkpt>
      <trkpt lat="48.52698" lon="-2.0055">
        <ele>100.5</ele>
        <time>2010-07-24T09:59:36</time>
      </trkpt>
      <trkpt lat="48.52692" lon="-2.00568">
        <ele>100.5</ele>
        <time>2010-07-24T09:59:39</time>
      </trkpt>
      <trkpt lat="48.52679" lon="-2.00586">
        <ele>99</ele>
        <time>2010-07-24T09:59:42</time>
      </trkpt>
      <trkpt lat="48.52662" lon="-2.00606">
        <ele>97.5</ele>
        <time>2010-07-24T09:59:45</time>
      </trkpt>
      <trkpt lat="48.52643" lon="-2.00631">
        <ele>96</ele>
        <time>2010-07-24T09:59:48</time>
      </trkpt>
      <trkpt lat="48.52623" lon="-2.0066">
        <ele>94.5</ele>
        <time>2010-07-24T09:59:51</time>
      </trkpt>
      <trkpt lat="48.52604" lon="-2.00692">
        <ele>94</ele>
        <time>2010-07-24T09:59:54</time>
      </trkpt>
      <trkpt lat="48.52586" lon="-2.00724">
        <ele>94</ele>
        <time>2010-07-24T09:59:57</time>
      </trkpt>
      <trkpt lat="48.52568" lon="-2.00754">
        <ele>94.5</ele>
        <time>2010-07-24T10:00:00</time>
      </trkpt>
      <trkpt lat="48.52551" lon="-2.00781">
        <ele>94</ele>
        <time>2010-07-24T10:00:03</time>
      </trkpt>
      <trkpt lat="48.52524" lon="-2.00829">
        <ele>93</ele>
        <time>2010-07-24T10:00:09</time>
      </trkpt>
      <trkpt lat="48.52516" lon="-2.00846">
        <ele>93</ele>
        <time>2010-07-24T10:00:12</time>
      </trkpt>
      <trkpt lat="48.5251" lon="-2.0086">
        <ele>93.5</ele>
        <time>2010-07-24T10:00:15</time>
      </trkpt>
      <trkpt lat="48.52505" lon="-2.00874">
        <ele>93.5</ele>
        <time>2010-07-24T10:00:18</time>
      </trkpt>
      <trkpt lat="48.525" lon="-2.00888">
        <ele>93</ele>
        <time>2010-07-24T10:00:21</time>
      </trkpt>
      <trkpt lat="48.52496" lon="-2.00904">
        <ele>93.5</ele>
        <time>2010-07-24T10:00:24</time>
      </trkpt>
      <trkpt lat="48.52491" lon="-2.00923">
        <ele>93.5</ele>
        <time>2010-07-24T10:00:27</time>
      </trkpt>
      <trkpt lat="48.52486" lon="-2.00942">
        <ele>93.5</ele>
        <time>2010-07-24T10:00:30</time>
      </trkpt>
      <trkpt lat="48.52482" lon="-2.00961">
        <ele>93.5</ele>
        <time>2010-07-24T10:00:33</time>
      </trkpt>
      <trkpt lat="48.52477" lon="-2.0098">
        <ele>94.5</ele>
        <time>2010-07-24T10:00:36</time>
      </trkpt>
      <trkpt lat="48.52472" lon="-2.01">
        <ele>94.5</ele>
        <time>2010-07-24T10:00:39</time>
      </trkpt>
      <trkpt lat="48.52467" lon="-2.01022">
        <ele>94.5</ele>
        <time>2010-07-24T10:00:42</time>
      </trkpt>
      <trkpt lat="48.52461" lon="-2.01042">
        <ele>94.5</ele>
        <time>2010-07-24T10:00:45</time>
      </trkpt>
      <trkpt lat="48.52455" lon="-2.01062">
        <ele>94.5</ele>
        <time>2010-07-24T10:00:48</time>
      </trkpt>
      <trkpt lat="48.52449" lon="-2.01083">
        <ele>94.5</ele>
        <time>2010-07-24T10:00:51</time>
      </trkpt>
      <trkpt lat="48.52441" lon="-2.01104">
        <ele>94</ele>
        <time>2010-07-24T10:00:54</time>
      </trkpt>
      <trkpt lat="48.52432" lon="-2.01124">
        <ele>93.5</ele>
        <time>2010-07-24T10:00:57</time>
      </trkpt>
      <trkpt lat="48.5242" lon="-2.01146">
        <ele>92.5</ele>
        <time>2010-07-24T10:01:00</time>
      </trkpt>
      <trkpt lat="48.524" lon="-2.01175">
        <ele>91.5</ele>
        <time>2010-07-24T10:01:04</time>
      </trkpt>
      <trkpt lat="48.52388" lon="-2.01191">
        <ele>91</ele>
        <time>2010-07-24T10:01:07</time>
      </trkpt>
      <trkpt lat="48.52369" lon="-2.01218">
        <ele>90</ele>
        <time>2010-07-24T10:01:10</time>
      </trkpt>
      <trkpt lat="48.5234" lon="-2.01257">
        <ele>88.5</ele>
        <time>2010-07-24T10:01:13</time>
      </trkpt>
      <trkpt lat="48.52321" lon="-2.01281">
        <ele>86</ele>
        <time>2010-07-24T10:01:16</time>
      </trkpt>
      <trkpt lat="48.52304" lon="-2.01323">
        <ele>86</ele>
        <time>2010-07-24T10:01:22</time>
      </trkpt>
      <trkpt lat="48.52302" lon="-2.01351">
        <ele>86</ele>
        <time>2010-07-24T10:01:25</time>
      </trkpt>
      <trkpt lat="48.52305" lon="-2.01382">
        <ele>85.5</ele>
        <time>2010-07-24T10:01:28</time>
      </trkpt>
      <trkpt lat="48.52309" lon="-2.0141">
        <ele>85.5</ele>
        <time>2010-07-24T10:01:31</time>
      </trkpt>
      <trkpt lat="48.52313" lon="-2.01435">
        <ele>85.5</ele>
        <time>2010-07-24T10:01:34</time>
      </trkpt>
      <trkpt lat="48.52315" lon="-2.01455">
        <ele>85.5</ele>
        <time>2010-07-24T10:01:37</time>
      </trkpt>
      <trkpt lat="48.5232" lon="-2.01475">
        <ele>85.5</ele>
        <time>2010-07-24T10:01:40</time>
      </trkpt>
      <trkpt lat="48.52329" lon="-2.01492">
        <ele>85</ele>
        <time>2010-07-24T10:01:43</time>
      </trkpt>
      <trkpt lat="48.52337" lon="-2.01506">
        <ele>85</ele>
        <time>2010-07-24T10:01:46</time>
      </trkpt>
      <trkpt lat="48.52344" lon="-2.01522">
        <ele>85</ele>
        <time>2010-07-24T10:01:49</time>
      </trkpt>
      <trkpt lat="48.52354" lon="-2.01539">
        <ele>85.5</ele>
        <time>2010-07-24T10:01:52</time>
      </trkpt>
      <trkpt lat="48.52363" lon="-2.01555">
        <ele>85.5</ele>
        <time>2010-07-24T10:01:55</time>
      </trkpt>
      <trkpt lat="48.52372" lon="-2.01571">
        <ele>85</ele>
        <time>2010-07-24T10:01:58</time>
      </trkpt>
      <trkpt lat="48.52381" lon="-2.01586">
        <ele>85.5</ele>
        <time>2010-07-24T10:02:01</time>
      </trkpt>
      <trkpt lat="48.5239" lon="-2.016">
        <ele>85.5</ele>
        <time>2010-07-24T10:02:04</time>
      </trkpt>
      <trkpt lat="48.52397" lon="-2.01616">
        <ele>85.5</ele>
        <time>2010-07-24T10:02:07</time>
      </trkpt>
      <trkpt lat="48.52404" lon="-2.01633">
        <ele>85</ele>
        <time>2010-07-24T10:02:10</time>
      </trkpt>
      <trkpt lat="48.5241" lon="-2.0165">
        <ele>85</ele>
        <time>2010-07-24T10:02:13</time>
      </trkpt>
      <trkpt lat="48.52411" lon="-2.01664">
        <ele>84.5</ele>
        <time>2010-07-24T10:02:16</time>
      </trkpt>
      <trkpt lat="48.52415" lon="-2.01673">
        <ele>85</ele>
        <time>2010-07-24T10:02:19</time>
      </trkpt>
      <trkpt lat="48.52423" lon="-2.01679">
        <ele>85</ele>
        <time>2010-07-24T10:02:22</time>
      </trkpt>
      <trkpt lat="48.52429" lon="-2.01679">
        <ele>85</ele>
        <time>2010-07-24T10:02:25</time>
      </trkpt>
      <trkpt lat="48.52435" lon="-2.0168">
        <ele>85</ele>
        <time>2010-07-24T10:02:28</time>
      </trkpt>
      <trkpt lat="48.52437" lon="-2.01679">
        <ele>85</ele>
        <time>2010-07-24T10:02:31</time>
      </trkpt>
      <trkpt lat="48.5244" lon="-2.01676">
        <ele>85.5</ele>
        <time>2010-07-24T10:02:34</time>
      </trkpt>
      <trkpt lat="48.52442" lon="-2.01676">
        <ele>86</ele>
        <time>2010-07-24T10:02:37</time>
      </trkpt>
      <trkpt lat="48.52449" lon="-2.01676">
        <ele>87.5</ele>
        <time>2010-07-24T10:02:40</time>
      </trkpt>
      <trkpt lat="48.52452" lon="-2.01677">
        <ele>88</ele>
        <time>2010-07-24T10:02:43</time>
      </trkpt>
      <trkpt lat="48.52456" lon="-2.01683">
        <ele>88</ele>
        <time>2010-07-24T10:02:46</time>
      </trkpt>
      <trkpt lat="48.52454" lon="-2.01688">
        <ele>88</ele>
        <time>2010-07-24T10:02:49</time>
      </trkpt>
      <trkpt lat="48.52453" lon="-2.01694">
        <ele>88</ele>
        <time>2010-07-24T10:02:52</time>
      </trkpt>
      <trkpt lat="48.52451" lon="-2.01707">
        <ele>87</ele>
        <time>2010-07-24T10:02:58</time>
      </trkpt>
      <trkpt lat="48.52449" lon="-2.01714">
        <ele>87.5</ele>
        <time>2010-07-24T10:03:01</time>
      </trkpt>
      <trkpt lat="48.52448" lon="-2.01721">
        <ele>89</ele>
        <time>2010-07-24T10:03:04</time>
      </trkpt>
      <trkpt lat="48.52443" lon="-2.0173">
        <ele>92.5</ele>
        <time>2010-07-24T10:03:10</time>
      </trkpt>
      <trkpt lat="48.52441" lon="-2.01734">
        <ele>93</ele>
        <time>2010-07-24T10:03:13</time>
      </trkpt>
      <trkpt lat="48.52441" lon="-2.01744">
        <ele>91</ele>
        <time>2010-07-24T10:03:16</time>
      </trkpt>
      <trkpt lat="48.52439" lon="-2.01754">
        <ele>85.5</ele>
        <time>2010-07-24T10:03:19</time>
      </trkpt>
      <trkpt lat="48.52436" lon="-2.01758">
        <ele>86</ele>
        <time>2010-07-24T10:03:22</time>
      </trkpt>
      <trkpt lat="48.52434" lon="-2.0176">
        <ele>86.5</ele>
        <time>2010-07-24T10:03:25</time>
      </trkpt>
      <trkpt lat="48.52431" lon="-2.01764">
        <ele>86</ele>
        <time>2010-07-24T10:03:28</time>
      </trkpt>
      <trkpt lat="48.52427" lon="-2.01768">
        <ele>86.5</ele>
        <time>2010-07-24T10:03:31</time>
      </trkpt>
      <trkpt lat="48.52425" lon="-2.01771">
        <ele>86.5</ele>
        <time>2010-07-24T10:03:34</time>
      </trkpt>
      <trkpt lat="48.52422" lon="-2.01775">
        <ele>87</ele>
        <time>2010-07-24T10:03:37</time>
      </trkpt>
      <trkpt lat="48.52421" lon="-2.0178">
        <ele>87</ele>
        <time>2010-07-24T10:03:41</time>
      </trkpt>
      <trkpt lat="48.52417" lon="-2.01786">
        <ele>86.5</ele>
        <time>2010-07-24T10:03:43</time>
      </trkpt>
      <trkpt lat="48.52414" lon="-2.01792">
        <ele>86.5</ele>
        <time>2010-07-24T10:03:47</time>
      </trkpt>
      <trkpt lat="48.5241" lon="-2.01804">
        <ele>87.5</ele>
        <time>2010-07-24T10:03:53</time>
      </trkpt>
      <trkpt lat="48.52409" lon="-2.01809">
        <ele>87</ele>
        <time>2010-07-24T10:03:56</time>
      </trkpt>
      <trkpt lat="48.5241" lon="-2.0181">
        <ele>87.5</ele>
        <time>2010-07-24T10:03:59</time>
      </trkpt>
      <trkpt lat="48.52409" lon="-2.0181">
        <ele>87.5</ele>
        <time>2010-07-24T10:04:02</time>
      </trkpt>
      <trkpt lat="48.52408" lon="-2.01811">
        <ele>87</ele>
        <time>2010-07-24T10:04:05</time>
      </trkpt>
      <trkpt lat="48.52407" lon="-2.01812">
        <ele>87</ele>
        <time>2010-07-24T10:04:08</time>
      </trkpt>
      <trkpt lat="48.52406" lon="-2.01814">
        <ele>86.5</ele>
        <time>2010-07-24T10:04:11</time>
      </trkpt>
      <trkpt lat="48.52405" lon="-2.01814">
        <ele>86.5</ele>
        <time>2010-07-24T10:04:14</time>
      </trkpt>
      <trkpt lat="48.52406" lon="-2.01814">
        <ele>86</ele>
        <time>2010-07-24T10:04:17</time>
      </trkpt>
      <trkpt lat="48.52405" lon="-2.01814">
        <ele>85.5</ele>
        <time>2010-07-24T10:04:20</time>
      </trkpt>
      <trkpt lat="48.52403" lon="-2.01815">
        <ele>84</ele>
        <time>2010-07-24T10:04:23</time>
      </trkpt>
      <trkpt lat="48.52402" lon="-2.01816">
        <ele>84</ele>
        <time>2010-07-24T10:04:26</time>
      </trkpt>
      <trkpt lat="48.52401" lon="-2.01817">
        <ele>83.5</ele>
        <time>2010-07-24T10:04:29</time>
      </trkpt>
      <trkpt lat="48.52401" lon="-2.01817">
        <ele>82.5</ele>
        <time>2010-07-24T10:04:32</time>
      </trkpt>
      <trkpt lat="48.524" lon="-2.01818">
        <ele>82</ele>
        <time>2010-07-24T10:04:35</time>
      </trkpt>
      <trkpt lat="48.524" lon="-2.01818">
        <ele>82.5</ele>
        <time>2010-07-24T10:04:38</time>
      </trkpt>
      <trkpt lat="48.524" lon="-2.01818">
        <ele>82.5</ele>
        <time>2010-07-24T10:04:41</time>
      </trkpt>
      <trkpt lat="48.524" lon="-2.01819">
        <ele>82</ele>
        <time>2010-07-24T10:04:44</time>
      </trkpt>
      <trkpt lat="48.524" lon="-2.01819">
        <ele>82</ele>
        <time>2010-07-24T10:04:47</time>
      </trkpt>
      <trkpt lat="48.52379" lon="-2.01855">
        <ele>78</ele>
        <time>2010-07-24T10:04:53</time>
      </trkpt>
      <trkpt lat="48.52371" lon="-2.01869">
        <ele>78.5</ele>
        <time>2010-07-24T10:04:56</time>
      </trkpt>
      <trkpt lat="48.52363" lon="-2.0188">
        <ele>79.5</ele>
        <time>2010-07-24T10:04:59</time>
      </trkpt>
      <trkpt lat="48.52359" lon="-2.01886">
        <ele>80.5</ele>
        <time>2010-07-24T10:05:02</time>
      </trkpt>
      <trkpt lat="48.52354" lon="-2.01893">
        <ele>81</ele>
        <time>2010-07-24T10:05:05</time>
      </trkpt>
      <trkpt lat="48.52347" lon="-2.01897">
        <ele>80.5</ele>
        <time>2010-07-24T10:05:08</time>
      </trkpt>
      <trkpt lat="48.52343" lon="-2.01899">
        <ele>80.5</ele>
        <time>2010-07-24T10:05:11</time>
      </trkpt>
      <trkpt lat="48.52341" lon="-2.01902">
        <ele>80</ele>
        <time>2010-07-24T10:05:14</time>
      </trkpt>
      <trkpt lat="48.52341" lon="-2.01903">
        <ele>80</ele>
        <time>2010-07-24T10:05:17</time>
      </trkpt>
      <trkpt lat="48.52341" lon="-2.01904">
        <ele>81</ele>
        <time>2010-07-24T10:05:20</time>
      </trkpt>
      <trkpt lat="48.52339" lon="-2.01906">
        <ele>81</ele>
        <time>2010-07-24T10:05:23</time>
      </trkpt>
      <trkpt lat="48.52338" lon="-2.01908">
        <ele>82.5</ele>
        <time>2010-07-24T10:05:26</time>
      </trkpt>
      <trkpt lat="48.52336" lon="-2.01911">
        <ele>82.5</ele>
        <time>2010-07-24T10:05:29</time>
      </trkpt>
      <trkpt lat="48.52334" lon="-2.01914">
        <ele>83</ele>
        <time>2010-07-24T10:05:32</time>
      </trkpt>
      <trkpt lat="48.52331" lon="-2.01918">
        <ele>83.5</ele>
        <time>2010-07-24T10:05:35</time>
      </trkpt>
      <trkpt lat="48.52329" lon="-2.01922">
        <ele>83.5</ele>
        <time>2010-07-24T10:05:38</time>
      </trkpt>
      <trkpt lat="48.52326" lon="-2.01926">
        <ele>84</ele>
        <time>2010-07-24T10:05:41</time>
      </trkpt>
      <trkpt lat="48.52323" lon="-2.01932">
        <ele>84.5</ele>
        <time>2010-07-24T10:05:44</time>
      </trkpt>
      <trkpt lat="48.52319" lon="-2.01939">
        <ele>85.5</ele>
        <time>2010-07-24T10:05:47</time>
      </trkpt>
      <trkpt lat="48.52317" lon="-2.01945">
        <ele>86.5</ele>
        <time>2010-07-24T10:05:50</time>
      </trkpt>
      <trkpt lat="48.52314" lon="-2.01951">
        <ele>88</ele>
        <time>2010-07-24T10:05:53</time>
      </trkpt>
      <trkpt lat="48.5231" lon="-2.01958">
        <ele>89</ele>
        <time>2010-07-24T10:05:56</time>
      </trkpt>
      <trkpt lat="48.52307" lon="-2.01962">
        <ele>90</ele>
        <time>2010-07-24T10:05:59</time>
      </trkpt>
      <trkpt lat="48.52306" lon="-2.01967">
        <ele>91.5</ele>
        <time>2010-07-24T10:06:02</time>
      </trkpt>
      <trkpt lat="48.52304" lon="-2.01973">
        <ele>94</ele>
        <time>2010-07-24T10:06:05</time>
      </trkpt>
      <trkpt lat="48.52302" lon="-2.01978">
        <ele>94.5</ele>
        <time>2010-07-24T10:06:08</time>
      </trkpt>
      <trkpt lat="48.52299" lon="-2.01985">
        <ele>95.5</ele>
        <time>2010-07-24T10:06:11</time>
      </trkpt>
      <trkpt lat="48.52298" lon="-2.01992">
        <ele>96.5</ele>
        <time>2010-07-24T10:06:14</time>
      </trkpt>
      <trkpt lat="48.52295" lon="-2.01998">
        <ele>98</ele>
        <time>2010-07-24T10:06:17</time>
      </trkpt>
      <trkpt lat="48.52293" lon="-2.02005">
        <ele>98.5</ele>
        <time>2010-07-24T10:06:20</time>
      </trkpt>
      <trkpt lat="48.52291" lon="-2.02012">
        <ele>98.5</ele>
        <time>2010-07-24T10:06:23</time>
      </trkpt>
      <trkpt lat="48.52288" lon="-2.02021">
        <ele>101</ele>
        <time>2010-07-24T10:06:26</time>
      </trkpt>
      <trkpt lat="48.52285" lon="-2.02026">
        <ele>101.5</ele>
        <time>2010-07-24T10:06:29</time>
      </trkpt>
      <trkpt lat="48.52283" lon="-2.0203">
        <ele>101</ele>
        <time>2010-07-24T10:06:32</time>
      </trkpt>
      <trkpt lat="48.5228" lon="-2.02037">
        <ele>101.5</ele>
        <time>2010-07-24T10:06:35</time>
      </trkpt>
      <trkpt lat="48.52275" lon="-2.02044">
        <ele>100.5</ele>
        <time>2010-07-24T10:06:38</time>
      </trkpt>
      <trkpt lat="48.52268" lon="-2.02052">
        <ele>97.5</ele>
        <time>2010-07-24T10:06:41</time>
      </trkpt>
      <trkpt lat="48.52261" lon="-2.0206">
        <ele>96.5</ele>
        <time>2010-07-24T10:06:44</time>
      </trkpt>
      <trkpt lat="48.52248" lon="-2.02065">
        <ele>86.5</ele>
        <time>2010-07-24T10:06:47</time>
      </trkpt>
      <trkpt lat="48.52235" lon="-2.02071">
        <ele>78</ele>
        <time>2010-07-24T10:06:50</time>
      </trkpt>
      <trkpt lat="48.52229" lon="-2.02077">
        <ele>76</ele>
        <time>2010-07-24T10:06:53</time>
      </trkpt>
      <trkpt lat="48.52225" lon="-2.02087">
        <ele>80</ele>
        <time>2010-07-24T10:06:56</time>
      </trkpt>
      <trkpt lat="48.52221" lon="-2.02096">
        <ele>81.5</ele>
        <time>2010-07-24T10:06:59</time>
      </trkpt>
      <trkpt lat="48.5222" lon="-2.02103">
        <ele>85</ele>
        <time>2010-07-24T10:07:02</time>
      </trkpt>
      <trkpt lat="48.52219" lon="-2.0211">
        <ele>86.5</ele>
        <time>2010-07-24T10:07:05</time>
      </trkpt>
      <trkpt lat="48.52218" lon="-2.02118">
        <ele>89.5</ele>
        <time>2010-07-24T10:07:08</time>
      </trkpt>
      <trkpt lat="48.52217" lon="-2.02128">
        <ele>91.5</ele>
        <time>2010-07-24T10:07:11</time>
      </trkpt>
      <trkpt lat="48.52215" lon="-2.02138">
        <ele>93.5</ele>
        <time>2010-07-24T10:07:14</time>
      </trkpt>
      <trkpt lat="48.52215" lon="-2.02149">
        <ele>95</ele>
        <time>2010-07-24T10:07:17</time>
      </trkpt>
      <trkpt lat="48.52214" lon="-2.02159">
        <ele>98</ele>
        <time>2010-07-24T10:07:20</time>
      </trkpt>
      <trkpt lat="48.52212" lon="-2.0217">
        <ele>99.5</ele>
        <time>2010-07-24T10:07:23</time>
      </trkpt>
      <trkpt lat="48.52212" lon="-2.0218">
        <ele>100.5</ele>
        <time>2010-07-24T10:07:26</time>
      </trkpt>
      <trkpt lat="48.52211" lon="-2.02189">
        <ele>101.5</ele>
        <time>2010-07-24T10:07:29</time>
      </trkpt>
      <trkpt lat="48.52212" lon="-2.022">
        <ele>101</ele>
        <time>2010-07-24T10:07:32</time>
      </trkpt>
      <trkpt lat="48.52213" lon="-2.0221">
        <ele>100.5</ele>
        <time>2010-07-24T10:07:35</time>
      </trkpt>
      <trkpt lat="48.52215" lon="-2.02219">
        <ele>101</ele>
        <time>2010-07-24T10:07:38</time>
      </trkpt>
      <trkpt lat="48.52217" lon="-2.02226">
        <ele>101.5</ele>
        <time>2010-07-24T10:07:41</time>
      </trkpt>
      <trkpt lat="48.52218" lon="-2.02233">
        <ele>102</ele>
        <time>2010-07-24T10:07:44</time>
      </trkpt>
      <trkpt lat="48.52221" lon="-2.0224">
        <ele>101.5</ele>
        <time>2010-07-24T10:07:47</time>
      </trkpt>
      <trkpt lat="48.52222" lon="-2.02249">
        <ele>101.5</ele>
        <time>2010-07-24T10:07:50</time>
      </trkpt>
      <trkpt lat="48.52224" lon="-2.02259">
        <ele>100.5</ele>
        <time>2010-07-24T10:07:54</time>
      </trkpt>
      <trkpt lat="48.52228" lon="-2.02272">
        <ele>100.5</ele>
        <time>2010-07-24T10:07:59</time>
      </trkpt>
      <trkpt lat="48.5223" lon="-2.02282">
        <ele>100</ele>
        <time>2010-07-24T10:08:02</time>
      </trkpt>
      <trkpt lat="48.52232" lon="-2.0229">
        <ele>101</ele>
        <time>2010-07-24T10:08:05</time>
      </trkpt>
      <trkpt lat="48.52233" lon="-2.02299">
        <ele>101</ele>
        <time>2010-07-24T10:08:08</time>
      </trkpt>
      <trkpt lat="48.52234" lon="-2.02309">
        <ele>100</ele>
        <time>2010-07-24T10:08:11</time>
      </trkpt>
      <trkpt lat="48.52236" lon="-2.02318">
        <ele>100.5</ele>
        <time>2010-07-24T10:08:14</time>
      </trkpt>
      <trkpt lat="48.52237" lon="-2.02327">
        <ele>100.5</ele>
        <time>2010-07-24T10:08:17</time>
      </trkpt>
      <trkpt lat="48.5224" lon="-2.02336">
        <ele>99.5</ele>
        <time>2010-07-24T10:08:20</time>
      </trkpt>
      <trkpt lat="48.52241" lon="-2.02345">
        <ele>99</ele>
        <time>2010-07-24T10:08:23</time>
      </trkpt>
      <trkpt lat="48.52243" lon="-2.02353">
        <ele>98</ele>
        <time>2010-07-24T10:08:26</time>
      </trkpt>
      <trkpt lat="48.52245" lon="-2.02362">
        <ele>97.5</ele>
        <time>2010-07-24T10:08:29</time>
      </trkpt>
      <trkpt lat="48.52246" lon="-2.02371">
        <ele>97</ele>
        <time>2010-07-24T10:08:32</time>
      </trkpt>
      <trkpt lat="48.52247" lon="-2.02379">
        <ele>97.5</ele>
        <time>2010-07-24T10:08:35</time>
      </trkpt>
      <trkpt lat="48.52247" lon="-2.02388">
        <ele>97.5</ele>
        <time>2010-07-24T10:08:38</time>
      </trkpt>
      <trkpt lat="48.52248" lon="-2.02397">
        <ele>97</ele>
        <time>2010-07-24T10:08:41</time>
      </trkpt>
      <trkpt lat="48.52249" lon="-2.02404">
        <ele>98.5</ele>
        <time>2010-07-24T10:08:44</time>
      </trkpt>
      <trkpt lat="48.5225" lon="-2.02412">
        <ele>97.5</ele>
        <time>2010-07-24T10:08:47</time>
      </trkpt>
      <trkpt lat="48.52251" lon="-2.02422">
        <ele>98</ele>
        <time>2010-07-24T10:08:50</time>
      </trkpt>
      <trkpt lat="48.52251" lon="-2.02433">
        <ele>98.5</ele>
        <time>2010-07-24T10:08:53</time>
      </trkpt>
      <trkpt lat="48.52251" lon="-2.02446">
        <ele>99</ele>
        <time>2010-07-24T10:08:56</time>
      </trkpt>
      <trkpt lat="48.52252" lon="-2.0246">
        <ele>98.5</ele>
        <time>2010-07-24T10:08:59</time>
      </trkpt>
      <trkpt lat="48.52254" lon="-2.02489">
        <ele>99</ele>
        <time>2010-07-24T10:09:05</time>
      </trkpt>
      <trkpt lat="48.52256" lon="-2.02504">
        <ele>99</ele>
        <time>2010-07-24T10:09:08</time>
      </trkpt>
      <trkpt lat="48.52257" lon="-2.02519">
        <ele>99</ele>
        <time>2010-07-24T10:09:11</time>
      </trkpt>
      <trkpt lat="48.52258" lon="-2.02535">
        <ele>98.5</ele>
        <time>2010-07-24T10:09:14</time>
      </trkpt>
      <trkpt lat="48.52259" lon="-2.0255">
        <ele>99</ele>
        <time>2010-07-24T10:09:17</time>
      </trkpt>
      <trkpt lat="48.5226" lon="-2.02565">
        <ele>99.5</ele>
        <time>2010-07-24T10:09:20</time>
      </trkpt>
      <trkpt lat="48.52261" lon="-2.0258">
        <ele>99.5</ele>
        <time>2010-07-24T10:09:23</time>
      </trkpt>
      <trkpt lat="48.52262" lon="-2.02594">
        <ele>99.5</ele>
        <time>2010-07-24T10:09:26</time>
      </trkpt>
      <trkpt lat="48.52263" lon="-2.02608">
        <ele>99</ele>
        <time>2010-07-24T10:09:29</time>
      </trkpt>
      <trkpt lat="48.52264" lon="-2.02622">
        <ele>99.5</ele>
        <time>2010-07-24T10:09:32</time>
      </trkpt>
      <trkpt lat="48.52265" lon="-2.02636">
        <ele>99.5</ele>
        <time>2010-07-24T10:09:35</time>
      </trkpt>
      <trkpt lat="48.52266" lon="-2.02651">
        <ele>99.5</ele>
        <time>2010-07-24T10:09:38</time>
      </trkpt>
      <trkpt lat="48.52267" lon="-2.02665">
        <ele>100</ele>
        <time>2010-07-24T10:09:41</time>
      </trkpt>
      <trkpt lat="48.52268" lon="-2.02677">
        <ele>101</ele>
        <time>2010-07-24T10:09:44</time>
      </trkpt>
      <trkpt lat="48.52267" lon="-2.02689">
        <ele>102.5</ele>
        <time>2010-07-24T10:09:47</time>
      </trkpt>
      <trkpt lat="48.52267" lon="-2.02701">
        <ele>103</ele>
        <time>2010-07-24T10:09:50</time>
      </trkpt>
      <trkpt lat="48.52267" lon="-2.02712">
        <ele>103</ele>
        <time>2010-07-24T10:09:53</time>
      </trkpt>
      <trkpt lat="48.52268" lon="-2.02723">
        <ele>103</ele>
        <time>2010-07-24T10:09:56</time>
      </trkpt>
      <trkpt lat="48.52269" lon="-2.02734">
        <ele>103.5</ele>
        <time>2010-07-24T10:09:59</time>
      </trkpt>
      <trkpt lat="48.5227" lon="-2.02746">
        <ele>102.5</ele>
        <time>2010-07-24T10:10:02</time>
      </trkpt>
      <trkpt lat="48.52271" lon="-2.02757">
        <ele>103</ele>
        <time>2010-07-24T10:10:05</time>
      </trkpt>
      <trkpt lat="48.52272" lon="-2.02768">
        <ele>104.5</ele>
        <time>2010-07-24T10:10:08</time>
      </trkpt>
      <trkpt lat="48.52272" lon="-2.02777">
        <ele>106</ele>
        <time>2010-07-24T10:10:11</time>
      </trkpt>
      <trkpt lat="48.52272" lon="-2.02786">
        <ele>106</ele>
        <time>2010-07-24T10:10:14</time>
      </trkpt>
      <trkpt lat="48.52274" lon="-2.02797">
        <ele>106.5</ele>
        <time>2010-07-24T10:10:17</time>
      </trkpt>
      <trkpt lat="48.52276" lon="-2.02809">
        <ele>105.5</ele>
        <time>2010-07-24T10:10:20</time>
      </trkpt>
      <trkpt lat="48.52278" lon="-2.02823">
        <ele>104.5</ele>
        <time>2010-07-24T10:10:23</time>
      </trkpt>
      <trkpt lat="48.5228" lon="-2.02833">
        <ele>104.5</ele>
        <time>2010-07-24T10:10:26</time>
      </trkpt>
      <trkpt lat="48.52281" lon="-2.02843">
        <ele>104.5</ele>
        <time>2010-07-24T10:10:29</time>
      </trkpt>
      <trkpt lat="48.52282" lon="-2.0285">
        <ele>105</ele>
        <time>2010-07-24T10:10:32</time>
      </trkpt>
      <trkpt lat="48.52284" lon="-2.0286">
        <ele>104.5</ele>
        <time>2010-07-24T10:10:35</time>
      </trkpt>
      <trkpt lat="48.52287" lon="-2.0287">
        <ele>104.5</ele>
        <time>2010-07-24T10:10:38</time>
      </trkpt>
      <trkpt lat="48.52289" lon="-2.02879">
        <ele>104.5</ele>
        <time>2010-07-24T10:10:41</time>
      </trkpt>
      <trkpt lat="48.52288" lon="-2.02888">
        <ele>105</ele>
        <time>2010-07-24T10:10:44</time>
      </trkpt>
      <trkpt lat="48.52285" lon="-2.02896">
        <ele>102.5</ele>
        <time>2010-07-24T10:10:47</time>
      </trkpt>
      <trkpt lat="48.5227" lon="-2.02899">
        <ele>101</ele>
        <time>2010-07-24T10:10:53</time>
      </trkpt>
      <trkpt lat="48.52261" lon="-2.02899">
        <ele>100.5</ele>
        <time>2010-07-24T10:10:56</time>
      </trkpt>
      <trkpt lat="48.52252" lon="-2.02898">
        <ele>101</ele>
        <time>2010-07-24T10:10:59</time>
      </trkpt>
      <trkpt lat="48.52242" lon="-2.02897">
        <ele>101</ele>
        <time>2010-07-24T10:11:02</time>
      </trkpt>
      <trkpt lat="48.52231" lon="-2.02897">
        <ele>101.5</ele>
        <time>2010-07-24T10:11:05</time>
      </trkpt>
      <trkpt lat="48.5222" lon="-2.02896">
        <ele>102</ele>
        <time>2010-07-24T10:11:08</time>
      </trkpt>
      <trkpt lat="48.5221" lon="-2.02895">
        <ele>102</ele>
        <time>2010-07-24T10:11:11</time>
      </trkpt>
      <trkpt lat="48.52198" lon="-2.02895">
        <ele>101.5</ele>
        <time>2010-07-24T10:11:14</time>
      </trkpt>
      <trkpt lat="48.52184" lon="-2.02894">
        <ele>101</ele>
        <time>2010-07-24T10:11:17</time>
      </trkpt>
      <trkpt lat="48.5217" lon="-2.02893">
        <ele>100.5</ele>
        <time>2010-07-24T10:11:20</time>
      </trkpt>
      <trkpt lat="48.52155" lon="-2.02892">
        <ele>100</ele>
        <time>2010-07-24T10:11:23</time>
      </trkpt>
      <trkpt lat="48.52138" lon="-2.0289">
        <ele>100</ele>
        <time>2010-07-24T10:11:26</time>
      </trkpt>
      <trkpt lat="48.52121" lon="-2.02887">
        <ele>100</ele>
        <time>2010-07-24T10:11:29</time>
      </trkpt>
      <trkpt lat="48.52103" lon="-2.02885">
        <ele>99.5</ele>
        <time>2010-07-24T10:11:32</time>
      </trkpt>
      <trkpt lat="48.52085" lon="-2.0288">
        <ele>99</ele>
        <time>2010-07-24T10:11:35</time>
      </trkpt>
      <trkpt lat="48.52066" lon="-2.02869">
        <ele>98</ele>
        <time>2010-07-24T10:11:38</time>
      </trkpt>
      <trkpt lat="48.52048" lon="-2.02851">
        <ele>97</ele>
        <time>2010-07-24T10:11:41</time>
      </trkpt>
      <trkpt lat="48.52032" lon="-2.0283">
        <ele>96</ele>
        <time>2010-07-24T10:11:44</time>
      </trkpt>
      <trkpt lat="48.52017" lon="-2.02807">
        <ele>96</ele>
        <time>2010-07-24T10:11:47</time>
      </trkpt>
      <trkpt lat="48.52002" lon="-2.02784">
        <ele>95.5</ele>
        <time>2010-07-24T10:11:50</time>
      </trkpt>
      <trkpt lat="48.51987" lon="-2.02769">
        <ele>94.5</ele>
        <time>2010-07-24T10:11:53</time>
      </trkpt>
      <trkpt lat="48.51976" lon="-2.02766">
        <ele>94</ele>
        <time>2010-07-24T10:11:56</time>
      </trkpt>
      <trkpt lat="48.51971" lon="-2.02765">
        <ele>93.5</ele>
        <time>2010-07-24T10:11:59</time>
      </trkpt>
      <trkpt lat="48.51971" lon="-2.02764">
        <ele>94.5</ele>
        <time>2010-07-24T10:12:02</time>
      </trkpt>
      <trkpt lat="48.5197" lon="-2.02757">
        <ele>95.5</ele>
        <time>2010-07-24T10:12:05</time>
      </trkpt>
      <trkpt lat="48.51967" lon="-2.02746">
        <ele>96</ele>
        <time>2010-07-24T10:12:08</time>
      </trkpt>
      <trkpt lat="48.51961" lon="-2.02731">
        <ele>96</ele>
        <time>2010-07-24T10:12:11</time>
      </trkpt>
      <trkpt lat="48.51952" lon="-2.02714">
        <ele>94.5</ele>
        <time>2010-07-24T10:12:14</time>
      </trkpt>
      <trkpt lat="48.51938" lon="-2.027">
        <ele>93.5</ele>
        <time>2010-07-24T10:12:17</time>
      </trkpt>
      <trkpt lat="48.51925" lon="-2.02683">
        <ele>92.5</ele>
        <time>2010-07-24T10:12:20</time>
      </trkpt>
      <trkpt lat="48.51913" lon="-2.02663">
        <ele>93</ele>
        <time>2010-07-24T10:12:23</time>
      </trkpt>
      <trkpt lat="48.51904" lon="-2.02644">
        <ele>93</ele>
        <time>2010-07-24T10:12:26</time>
      </trkpt>
      <trkpt lat="48.51902" lon="-2.02624">
        <ele>93</ele>
        <time>2010-07-24T10:12:29</time>
      </trkpt>
      <trkpt lat="48.51904" lon="-2.02605">
        <ele>93</ele>
        <time>2010-07-24T10:12:32</time>
      </trkpt>
      <trkpt lat="48.51905" lon="-2.02589">
        <ele>93.5</ele>
        <time>2010-07-24T10:12:35</time>
      </trkpt>
      <trkpt lat="48.51905" lon="-2.02574">
        <ele>93</ele>
        <time>2010-07-24T10:12:38</time>
      </trkpt>
      <trkpt lat="48.51901" lon="-2.0256">
        <ele>93.5</ele>
        <time>2010-07-24T10:12:41</time>
      </trkpt>
      <trkpt lat="48.51896" lon="-2.02553">
        <ele>93.5</ele>
        <time>2010-07-24T10:12:44</time>
      </trkpt>
      <trkpt lat="48.51894" lon="-2.02549">
        <ele>94.5</ele>
        <time>2010-07-24T10:12:47</time>
      </trkpt>
      <trkpt lat="48.51891" lon="-2.02546">
        <ele>94.5</ele>
        <time>2010-07-24T10:12:50</time>
      </trkpt>
      <trkpt lat="48.51884" lon="-2.0254">
        <ele>94.5</ele>
        <time>2010-07-24T10:12:54</time>
      </trkpt>
      <trkpt lat="48.51882" lon="-2.02536">
        <ele>94.5</ele>
        <time>2010-07-24T10:12:56</time>
      </trkpt>
      <trkpt lat="48.51879" lon="-2.02531">
        <ele>94.5</ele>
        <time>2010-07-24T10:12:59</time>
      </trkpt>
      <trkpt lat="48.51874" lon="-2.02527">
        <ele>95</ele>
        <time>2010-07-24T10:13:02</time>
      </trkpt>
      <trkpt lat="48.5187" lon="-2.02523">
        <ele>95</ele>
        <time>2010-07-24T10:13:06</time>
      </trkpt>
      <trkpt lat="48.51867" lon="-2.02518">
        <ele>96</ele>
        <time>2010-07-24T10:13:08</time>
      </trkpt>
      <trkpt lat="48.51862" lon="-2.02514">
        <ele>96.5</ele>
        <time>2010-07-24T10:13:12</time>
      </trkpt>
      <trkpt lat="48.51858" lon="-2.02509">
        <ele>96.5</ele>
        <time>2010-07-24T10:13:14</time>
      </trkpt>
      <trkpt lat="48.51853" lon="-2.02503">
        <ele>97.5</ele>
        <time>2010-07-24T10:13:18</time>
      </trkpt>
      <trkpt lat="48.5185" lon="-2.025">
        <ele>97.5</ele>
        <time>2010-07-24T10:13:20</time>
      </trkpt>
      <trkpt lat="48.51846" lon="-2.02496">
        <ele>98</ele>
        <time>2010-07-24T10:13:23</time>
      </trkpt>
      <trkpt lat="48.51843" lon="-2.0249">
        <ele>98</ele>
        <time>2010-07-24T10:13:26</time>
      </trkpt>
      <trkpt lat="48.51839" lon="-2.02485">
        <ele>99</ele>
        <time>2010-07-24T10:13:29</time>
      </trkpt>
      <trkpt lat="48.51835" lon="-2.0248">
        <ele>100</ele>
        <time>2010-07-24T10:13:32</time>
      </trkpt>
      <trkpt lat="48.51832" lon="-2.02476">
        <ele>101</ele>
        <time>2010-07-24T10:13:35</time>
      </trkpt>
      <trkpt lat="48.51828" lon="-2.02472">
        <ele>101.5</ele>
        <time>2010-07-24T10:13:38</time>
      </trkpt>
      <trkpt lat="48.51824" lon="-2.02468">
        <ele>103</ele>
        <time>2010-07-24T10:13:42</time>
      </trkpt>
      <trkpt lat="48.5182" lon="-2.02464">
        <ele>103.5</ele>
        <time>2010-07-24T10:13:44</time>
      </trkpt>
      <trkpt lat="48.51818" lon="-2.0246">
        <ele>104.5</ele>
        <time>2010-07-24T10:13:47</time>
      </trkpt>
      <trkpt lat="48.51816" lon="-2.02457">
        <ele>105</ele>
        <time>2010-07-24T10:13:50</time>
      </trkpt>
      <trkpt lat="48.51814" lon="-2.02453">
        <ele>106</ele>
        <time>2010-07-24T10:13:54</time>
      </trkpt>
      <trkpt lat="48.51812" lon="-2.02449">
        <ele>106</ele>
        <time>2010-07-24T10:13:57</time>
      </trkpt>
      <trkpt lat="48.51809" lon="-2.02444">
        <ele>105.5</ele>
        <time>2010-07-24T10:13:59</time>
      </trkpt>
      <trkpt lat="48.51806" lon="-2.0244">
        <ele>106</ele>
        <time>2010-07-24T10:14:03</time>
      </trkpt>
      <trkpt lat="48.51803" lon="-2.02434">
        <ele>106</ele>
        <time>2010-07-24T10:14:06</time>
      </trkpt>
      <trkpt lat="48.51801" lon="-2.0243">
        <ele>106.5</ele>
        <time>2010-07-24T10:14:09</time>
      </trkpt>
      <trkpt lat="48.51796" lon="-2.02425">
        <ele>102</ele>
        <time>2010-07-24T10:14:12</time>
      </trkpt>
      <trkpt lat="48.51792" lon="-2.02417">
        <ele>99.5</ele>
        <time>2010-07-24T10:14:15</time>
      </trkpt>
      <trkpt lat="48.5179" lon="-2.02412">
        <ele>99</ele>
        <time>2010-07-24T10:14:18</time>
      </trkpt>
      <trkpt lat="48.51788" lon="-2.02408">
        <ele>99.5</ele>
        <time>2010-07-24T10:14:21</time>
      </trkpt>
      <trkpt lat="48.51785" lon="-2.02403">
        <ele>99.5</ele>
        <time>2010-07-24T10:14:24</time>
      </trkpt>
      <trkpt lat="48.51781" lon="-2.02397">
        <ele>100.5</ele>
        <time>2010-07-24T10:14:27</time>
      </trkpt>
      <trkpt lat="48.51779" lon="-2.02393">
        <ele>100.5</ele>
        <time>2010-07-24T10:14:30</time>
      </trkpt>
      <trkpt lat="48.51774" lon="-2.02388">
        <ele>98.5</ele>
        <time>2010-07-24T10:14:33</time>
      </trkpt>
      <trkpt lat="48.51773" lon="-2.02385">
        <ele>99</ele>
        <time>2010-07-24T10:14:36</time>
      </trkpt>
      <trkpt lat="48.51767" lon="-2.02377">
        <ele>97.5</ele>
        <time>2010-07-24T10:14:39</time>
      </trkpt>
      <trkpt lat="48.51764" lon="-2.02372">
        <ele>96.5</ele>
        <time>2010-07-24T10:14:42</time>
      </trkpt>
      <trkpt lat="48.51761" lon="-2.02366">
        <ele>96.5</ele>
        <time>2010-07-24T10:14:45</time>
      </trkpt>
      <trkpt lat="48.51759" lon="-2.02363">
        <ele>97</ele>
        <time>2010-07-24T10:14:48</time>
      </trkpt>
      <trkpt lat="48.51755" lon="-2.02357">
        <ele>97.5</ele>
        <time>2010-07-24T10:14:51</time>
      </trkpt>
      <trkpt lat="48.5175" lon="-2.0235">
        <ele>97</ele>
        <time>2010-07-24T10:14:54</time>
      </trkpt>
      <trkpt lat="48.51747" lon="-2.02347">
        <ele>97</ele>
        <time>2010-07-24T10:14:57</time>
      </trkpt>
      <trkpt lat="48.51741" lon="-2.0234">
        <ele>96</ele>
        <time>2010-07-24T10:15:00</time>
      </trkpt>
      <trkpt lat="48.51736" lon="-2.02335">
        <ele>95.5</ele>
        <time>2010-07-24T10:15:03</time>
      </trkpt>
      <trkpt lat="48.51734" lon="-2.02332">
        <ele>96</ele>
        <time>2010-07-24T10:15:06</time>
      </trkpt>
      <trkpt lat="48.51733" lon="-2.02329">
        <ele>96.5</ele>
        <time>2010-07-24T10:15:09</time>
      </trkpt>
      <trkpt lat="48.5173" lon="-2.02326">
        <ele>98.5</ele>
        <time>2010-07-24T10:15:12</time>
      </trkpt>
      <trkpt lat="48.51729" lon="-2.02323">
        <ele>100</ele>
        <time>2010-07-24T10:15:15</time>
      </trkpt>
      <trkpt lat="48.51726" lon="-2.0232">
        <ele>101</ele>
        <time>2010-07-24T10:15:18</time>
      </trkpt>
      <trkpt lat="48.51723" lon="-2.02317">
        <ele>102.5</ele>
        <time>2010-07-24T10:15:21</time>
      </trkpt>
      <trkpt lat="48.51719" lon="-2.02312">
        <ele>103</ele>
        <time>2010-07-24T10:15:24</time>
      </trkpt>
      <trkpt lat="48.51714" lon="-2.02307">
        <ele>103</ele>
        <time>2010-07-24T10:15:27</time>
      </trkpt>
      <trkpt lat="48.5171" lon="-2.02303">
        <ele>104</ele>
        <time>2010-07-24T10:15:30</time>
      </trkpt>
      <trkpt lat="48.51705" lon="-2.02298">
        <ele>105</ele>
        <time>2010-07-24T10:15:33</time>
      </trkpt>
      <trkpt lat="48.51701" lon="-2.02292">
        <ele>105</ele>
        <time>2010-07-24T10:15:36</time>
      </trkpt>
      <trkpt lat="48.51696" lon="-2.02285">
        <ele>104.5</ele>
        <time>2010-07-24T10:15:39</time>
      </trkpt>
      <trkpt lat="48.51693" lon="-2.02279">
        <ele>104</ele>
        <time>2010-07-24T10:15:42</time>
      </trkpt>
      <trkpt lat="48.5169" lon="-2.02272">
        <ele>103</ele>
        <time>2010-07-24T10:15:45</time>
      </trkpt>
      <trkpt lat="48.51686" lon="-2.02267">
        <ele>102.5</ele>
        <time>2010-07-24T10:15:48</time>
      </trkpt>
      <trkpt lat="48.51682" lon="-2.02261">
        <ele>102.5</ele>
        <time>2010-07-24T10:15:51</time>
      </trkpt>
      <trkpt lat="48.51676" lon="-2.02255">
        <ele>102</ele>
        <time>2010-07-24T10:15:54</time>
      </trkpt>
      <trkpt lat="48.51672" lon="-2.0225">
        <ele>102</ele>
        <time>2010-07-24T10:15:57</time>
      </trkpt>
      <trkpt lat="48.51669" lon="-2.02244">
        <ele>103</ele>
        <time>2010-07-24T10:16:00</time>
      </trkpt>
      <trkpt lat="48.51664" lon="-2.02238">
        <ele>104.5</ele>
        <time>2010-07-24T10:16:03</time>
      </trkpt>
      <trkpt lat="48.51659" lon="-2.02233">
        <ele>105.5</ele>
        <time>2010-07-24T10:16:06</time>
      </trkpt>
      <trkpt lat="48.51655" lon="-2.02232">
        <ele>107</ele>
        <time>2010-07-24T10:16:09</time>
      </trkpt>
      <trkpt lat="48.5165" lon="-2.02233">
        <ele>109</ele>
        <time>2010-07-24T10:16:12</time>
      </trkpt>
      <trkpt lat="48.51648" lon="-2.02235">
        <ele>111</ele>
        <time>2010-07-24T10:16:15</time>
      </trkpt>
      <trkpt lat="48.51645" lon="-2.02238">
        <ele>112.5</ele>
        <time>2010-07-24T10:16:18</time>
      </trkpt>
      <trkpt lat="48.51642" lon="-2.02242">
        <ele>113</ele>
        <time>2010-07-24T10:16:21</time>
      </trkpt>
      <trkpt lat="48.51639" lon="-2.02246">
        <ele>114.5</ele>
        <time>2010-07-24T10:16:24</time>
      </trkpt>
      <trkpt lat="48.51636" lon="-2.02251">
        <ele>116</ele>
        <time>2010-07-24T10:16:27</time>
      </trkpt>
      <trkpt lat="48.51633" lon="-2.02256">
        <ele>116.5</ele>
        <time>2010-07-24T10:16:30</time>
      </trkpt>
      <trkpt lat="48.51628" lon="-2.0226">
        <ele>116.5</ele>
        <time>2010-07-24T10:16:33</time>
      </trkpt>
      <trkpt lat="48.51623" lon="-2.02264">
        <ele>116.5</ele>
        <time>2010-07-24T10:16:36</time>
      </trkpt>
      <trkpt lat="48.51614" lon="-2.02267">
        <ele>117</ele>
        <time>2010-07-24T10:16:39</time>
      </trkpt>
      <trkpt lat="48.51607" lon="-2.02269">
        <ele>117</ele>
        <time>2010-07-24T10:16:42</time>
      </trkpt>
      <trkpt lat="48.51599" lon="-2.0227">
        <ele>117</ele>
        <time>2010-07-24T10:16:45</time>
      </trkpt>
      <trkpt lat="48.51592" lon="-2.02271">
        <ele>116.5</ele>
        <time>2010-07-24T10:16:48</time>
      </trkpt>
      <trkpt lat="48.51584" lon="-2.02272">
        <ele>116.5</ele>
        <time>2010-07-24T10:16:51</time>
      </trkpt>
      <trkpt lat="48.51578" lon="-2.02274">
        <ele>116.5</ele>
        <time>2010-07-24T10:16:54</time>
      </trkpt>
      <trkpt lat="48.51571" lon="-2.02275">
        <ele>116.5</ele>
        <time>2010-07-24T10:16:57</time>
      </trkpt>
      <trkpt lat="48.51565" lon="-2.02276">
        <ele>116.5</ele>
        <time>2010-07-24T10:17:00</time>
      </trkpt>
      <trkpt lat="48.51558" lon="-2.02277">
        <ele>117.5</ele>
        <time>2010-07-24T10:17:03</time>
      </trkpt>
      <trkpt lat="48.51553" lon="-2.02279">
        <ele>118</ele>
        <time>2010-07-24T10:17:06</time>
      </trkpt>
      <trkpt lat="48.51548" lon="-2.02281">
        <ele>117</ele>
        <time>2010-07-24T10:17:09</time>
      </trkpt>
      <trkpt lat="48.51544" lon="-2.02284">
        <ele>116.5</ele>
        <time>2010-07-24T10:17:12</time>
      </trkpt>
      <trkpt lat="48.51539" lon="-2.02287">
        <ele>117</ele>
        <time>2010-07-24T10:17:15</time>
      </trkpt>
      <trkpt lat="48.51534" lon="-2.0229">
        <ele>117.5</ele>
        <time>2010-07-24T10:17:18</time>
      </trkpt>
      <trkpt lat="48.51529" lon="-2.02293">
        <ele>117</ele>
        <time>2010-07-24T10:17:21</time>
      </trkpt>
      <trkpt lat="48.51525" lon="-2.02295">
        <ele>118</ele>
        <time>2010-07-24T10:17:24</time>
      </trkpt>
      <trkpt lat="48.5152" lon="-2.02298">
        <ele>118</ele>
        <time>2010-07-24T10:17:27</time>
      </trkpt>
      <trkpt lat="48.51517" lon="-2.02302">
        <ele>119</ele>
        <time>2010-07-24T10:17:30</time>
      </trkpt>
      <trkpt lat="48.51513" lon="-2.02308">
        <ele>119.5</ele>
        <time>2010-07-24T10:17:33</time>
      </trkpt>
      <trkpt lat="48.51506" lon="-2.02315">
        <ele>119.5</ele>
        <time>2010-07-24T10:17:36</time>
      </trkpt>
      <trkpt lat="48.51499" lon="-2.02321">
        <ele>119</ele>
        <time>2010-07-24T10:17:39</time>
      </trkpt>
      <trkpt lat="48.51492" lon="-2.02327">
        <ele>118</ele>
        <time>2010-07-24T10:17:42</time>
      </trkpt>
      <trkpt lat="48.51485" lon="-2.02332">
        <ele>118</ele>
        <time>2010-07-24T10:17:45</time>
      </trkpt>
      <trkpt lat="48.51479" lon="-2.02336">
        <ele>116.5</ele>
        <time>2010-07-24T10:17:48</time>
      </trkpt>
      <trkpt lat="48.51474" lon="-2.02342">
        <ele>116</ele>
        <time>2010-07-24T10:17:51</time>
      </trkpt>
      <trkpt lat="48.51469" lon="-2.02348">
        <ele>116</ele>
        <time>2010-07-24T10:17:54</time>
      </trkpt>
      <trkpt lat="48.51465" lon="-2.02354">
        <ele>116</ele>
        <time>2010-07-24T10:17:57</time>
      </trkpt>
      <trkpt lat="48.5146" lon="-2.02359">
        <ele>116</ele>
        <time>2010-07-24T10:18:00</time>
      </trkpt>
      <trkpt lat="48.51456" lon="-2.02363">
        <ele>116.5</ele>
        <time>2010-07-24T10:18:03</time>
      </trkpt>
      <trkpt lat="48.51452" lon="-2.0237">
        <ele>117</ele>
        <time>2010-07-24T10:18:06</time>
      </trkpt>
      <trkpt lat="48.51448" lon="-2.02376">
        <ele>118</ele>
        <time>2010-07-24T10:18:09</time>
      </trkpt>
      <trkpt lat="48.51443" lon="-2.02382">
        <ele>117.5</ele>
        <time>2010-07-24T10:18:12</time>
      </trkpt>
      <trkpt lat="48.51439" lon="-2.02387">
        <ele>117.5</ele>
        <time>2010-07-24T10:18:15</time>
      </trkpt>
      <trkpt lat="48.51434" lon="-2.02393">
        <ele>117.5</ele>
        <time>2010-07-24T10:18:18</time>
      </trkpt>
      <trkpt lat="48.5143" lon="-2.024">
        <ele>118</ele>
        <time>2010-07-24T10:18:21</time>
      </trkpt>
      <trkpt lat="48.51427" lon="-2.02405">
        <ele>117.5</ele>
        <time>2010-07-24T10:18:24</time>
      </trkpt>
      <trkpt lat="48.51422" lon="-2.0241">
        <ele>117.5</ele>
        <time>2010-07-24T10:18:27</time>
      </trkpt>
      <trkpt lat="48.51418" lon="-2.02413">
        <ele>117</ele>
        <time>2010-07-24T10:18:30</time>
      </trkpt>
      <trkpt lat="48.51413" lon="-2.02418">
        <ele>116</ele>
        <time>2010-07-24T10:18:33</time>
      </trkpt>
      <trkpt lat="48.51408" lon="-2.02423">
        <ele>116</ele>
        <time>2010-07-24T10:18:36</time>
      </trkpt>
      <trkpt lat="48.51407" lon="-2.02429">
        <ele>116</ele>
        <time>2010-07-24T10:18:39</time>
      </trkpt>
      <trkpt lat="48.51412" lon="-2.02437">
        <ele>115</ele>
        <time>2010-07-24T10:18:42</time>
      </trkpt>
      <trkpt lat="48.51421" lon="-2.02446">
        <ele>114.5</ele>
        <time>2010-07-24T10:18:45</time>
      </trkpt>
      <trkpt lat="48.51432" lon="-2.02458">
        <ele>113</ele>
        <time>2010-07-24T10:18:48</time>
      </trkpt>
      <trkpt lat="48.51444" lon="-2.02472">
        <ele>111.5</ele>
        <time>2010-07-24T10:18:51</time>
      </trkpt>
      <trkpt lat="48.51456" lon="-2.0249">
        <ele>111</ele>
        <time>2010-07-24T10:18:54</time>
      </trkpt>
      <trkpt lat="48.51467" lon="-2.02511">
        <ele>110</ele>
        <time>2010-07-24T10:18:57</time>
      </trkpt>
      <trkpt lat="48.51478" lon="-2.02535">
        <ele>109.5</ele>
        <time>2010-07-24T10:19:00</time>
      </trkpt>
      <trkpt lat="48.51489" lon="-2.02559">
        <ele>109</ele>
        <time>2010-07-24T10:19:03</time>
      </trkpt>
      <trkpt lat="48.51501" lon="-2.02584">
        <ele>108</ele>
        <time>2010-07-24T10:19:06</time>
      </trkpt>
      <trkpt lat="48.51512" lon="-2.02608">
        <ele>107.5</ele>
        <time>2010-07-24T10:19:09</time>
      </trkpt>
      <trkpt lat="48.51524" lon="-2.02628">
        <ele>107</ele>
        <time>2010-07-24T10:19:12</time>
      </trkpt>
      <trkpt lat="48.51537" lon="-2.02639">
        <ele>107.5</ele>
        <time>2010-07-24T10:19:15</time>
      </trkpt>
      <trkpt lat="48.51548" lon="-2.02636">
        <ele>106.5</ele>
        <time>2010-07-24T10:19:18</time>
      </trkpt>
      <trkpt lat="48.51555" lon="-2.02627">
        <ele>106.5</ele>
        <time>2010-07-24T10:19:21</time>
      </trkpt>
      <trkpt lat="48.51559" lon="-2.02619">
        <ele>108</ele>
        <time>2010-07-24T10:19:24</time>
      </trkpt>
      <trkpt lat="48.5156" lon="-2.02616">
        <ele>109</ele>
        <time>2010-07-24T10:19:27</time>
      </trkpt>
      <trkpt lat="48.5156" lon="-2.02615">
        <ele>109</ele>
        <time>2010-07-24T10:19:30</time>
      </trkpt>
      <trkpt lat="48.5156" lon="-2.02616">
        <ele>110</ele>
        <time>2010-07-24T10:19:33</time>
      </trkpt>
      <trkpt lat="48.51558" lon="-2.0262">
        <ele>110.5</ele>
        <time>2010-07-24T10:19:36</time>
      </trkpt>
      <trkpt lat="48.51555" lon="-2.02626">
        <ele>111.5</ele>
        <time>2010-07-24T10:19:39</time>
      </trkpt>
      <trkpt lat="48.51552" lon="-2.02632">
        <ele>112</ele>
        <time>2010-07-24T10:19:42</time>
      </trkpt>
      <trkpt lat="48.5155" lon="-2.02635">
        <ele>112.5</ele>
        <time>2010-07-24T10:19:45</time>
      </trkpt>
      <trkpt lat="48.51549" lon="-2.02636">
        <ele>113.5</ele>
        <time>2010-07-24T10:19:48</time>
      </trkpt>
      <trkpt lat="48.51549" lon="-2.02637">
        <ele>113</ele>
        <time>2010-07-24T10:19:51</time>
      </trkpt>
      <trkpt lat="48.51549" lon="-2.02637">
        <ele>113</ele>
        <time>2010-07-24T10:19:54</time>
      </trkpt>
      <trkpt lat="48.51549" lon="-2.02636">
        <ele>112.5</ele>
        <time>2010-07-24T10:19:57</time>
      </trkpt>
      <trkpt lat="48.51549" lon="-2.02636">
        <ele>112.5</ele>
        <time>2010-07-24T10:20:00</time>
      </trkpt>
      <trkpt lat="48.51551" lon="-2.02633">
        <ele>112.5</ele>
        <time>2010-07-24T10:20:03</time>
      </trkpt>
      <trkpt lat="48.51551" lon="-2.02633">
        <ele>113</ele>
        <time>2010-07-24T10:20:06</time>
      </trkpt>
      <trkpt lat="48.51552" lon="-2.02632">
        <ele>112.5</ele>
        <time>2010-07-24T10:20:09</time>
      </trkpt>
      <trkpt lat="48.51554" lon="-2.02625">
        <ele>107.5</ele>
        <time>2010-07-24T10:20:12</time>
      </trkpt>
      <trkpt lat="48.51582" lon="-2.02619">
        <ele>111</ele>
        <time>2010-07-24T10:20:15</time>
      </trkpt>
      <trkpt lat="48.51593" lon="-2.0263">
        <ele>109.5</ele>
        <time>2010-07-24T10:20:18</time>
      </trkpt>
      <trkpt lat="48.51603" lon="-2.02638">
        <ele>108</ele>
        <time>2010-07-24T10:20:21</time>
      </trkpt>
      <trkpt lat="48.51613" lon="-2.02646">
        <ele>106.5</ele>
        <time>2010-07-24T10:20:24</time>
      </trkpt>
      <trkpt lat="48.51621" lon="-2.02651">
        <ele>106.5</ele>
        <time>2010-07-24T10:20:27</time>
      </trkpt>
      <trkpt lat="48.51628" lon="-2.0266">
        <ele>106</ele>
        <time>2010-07-24T10:20:30</time>
      </trkpt>
      <trkpt lat="48.51634" lon="-2.02667">
        <ele>106</ele>
        <time>2010-07-24T10:20:33</time>
      </trkpt>
      <trkpt lat="48.51635" lon="-2.02673">
        <ele>107.5</ele>
        <time>2010-07-24T10:20:36</time>
      </trkpt>
      <trkpt lat="48.51635" lon="-2.0268">
        <ele>108</ele>
        <time>2010-07-24T10:20:39</time>
      </trkpt>
      <trkpt lat="48.51631" lon="-2.02686">
        <ele>107.5</ele>
        <time>2010-07-24T10:20:42</time>
      </trkpt>
      <trkpt lat="48.51627" lon="-2.02692">
        <ele>106.5</ele>
        <time>2010-07-24T10:20:45</time>
      </trkpt>
      <trkpt lat="48.51623" lon="-2.02697">
        <ele>106</ele>
        <time>2010-07-24T10:20:48</time>
      </trkpt>
      <trkpt lat="48.51613" lon="-2.02706">
        <ele>105.5</ele>
        <time>2010-07-24T10:20:54</time>
      </trkpt>
      <trkpt lat="48.51608" lon="-2.02711">
        <ele>105.5</ele>
        <time>2010-07-24T10:20:57</time>
      </trkpt>
      <trkpt lat="48.51603" lon="-2.02715">
        <ele>105.5</ele>
        <time>2010-07-24T10:21:00</time>
      </trkpt>
      <trkpt lat="48.51597" lon="-2.0272">
        <ele>105.5</ele>
        <time>2010-07-24T10:21:03</time>
      </trkpt>
      <trkpt lat="48.51591" lon="-2.02724">
        <ele>105</ele>
        <time>2010-07-24T10:21:06</time>
      </trkpt>
      <trkpt lat="48.51585" lon="-2.02728">
        <ele>105</ele>
        <time>2010-07-24T10:21:09</time>
      </trkpt>
      <trkpt lat="48.5158" lon="-2.02733">
        <ele>105.5</ele>
        <time>2010-07-24T10:21:12</time>
      </trkpt>
      <trkpt lat="48.51574" lon="-2.02737">
        <ele>105.5</ele>
        <time>2010-07-24T10:21:15</time>
      </trkpt>
      <trkpt lat="48.51568" lon="-2.02741">
        <ele>105</ele>
        <time>2010-07-24T10:21:18</time>
      </trkpt>
      <trkpt lat="48.51563" lon="-2.02746">
        <ele>105</ele>
        <time>2010-07-24T10:21:21</time>
      </trkpt>
      <trkpt lat="48.51558" lon="-2.02751">
        <ele>105</ele>
        <time>2010-07-24T10:21:24</time>
      </trkpt>
      <trkpt lat="48.51552" lon="-2.02755">
        <ele>105</ele>
        <time>2010-07-24T10:21:27</time>
      </trkpt>
      <trkpt lat="48.51548" lon="-2.0276">
        <ele>105</ele>
        <time>2010-07-24T10:21:30</time>
      </trkpt>
      <trkpt lat="48.51542" lon="-2.02763">
        <ele>105.5</ele>
        <time>2010-07-24T10:21:33</time>
      </trkpt>
      <trkpt lat="48.51536" lon="-2.02764">
        <ele>106</ele>
        <time>2010-07-24T10:21:36</time>
      </trkpt>
      <trkpt lat="48.5153" lon="-2.02761">
        <ele>106</ele>
        <time>2010-07-24T10:21:39</time>
      </trkpt>
      <trkpt lat="48.51525" lon="-2.02757">
        <ele>106</ele>
        <time>2010-07-24T10:21:42</time>
      </trkpt>
      <trkpt lat="48.51521" lon="-2.02752">
        <ele>105.5</ele>
        <time>2010-07-24T10:21:45</time>
      </trkpt>
      <trkpt lat="48.51519" lon="-2.02748">
        <ele>106</ele>
        <time>2010-07-24T10:21:48</time>
      </trkpt>
      <trkpt lat="48.51518" lon="-2.02747">
        <ele>105.5</ele>
        <time>2010-07-24T10:21:51</time>
      </trkpt>
      <trkpt lat="48.51518" lon="-2.02745">
        <ele>106.5</ele>
        <time>2010-07-24T10:21:54</time>
      </trkpt>
      <trkpt lat="48.51516" lon="-2.02743">
        <ele>107</ele>
        <time>2010-07-24T10:21:57</time>
      </trkpt>
      <trkpt lat="48.51513" lon="-2.02741">
        <ele>107</ele>
        <time>2010-07-24T10:22:00</time>
      </trkpt>
      <trkpt lat="48.51509" lon="-2.02739">
        <ele>108</ele>
        <time>2010-07-24T10:22:03</time>
      </trkpt>
      <trkpt lat="48.51504" lon="-2.0274">
        <ele>108</ele>
        <time>2010-07-24T10:22:06</time>
      </trkpt>
      <trkpt lat="48.51499" lon="-2.02743">
        <ele>108</ele>
        <time>2010-07-24T10:22:09</time>
      </trkpt>
      <trkpt lat="48.51495" lon="-2.02749">
        <ele>108.5</ele>
        <time>2010-07-24T10:22:12</time>
      </trkpt>
      <trkpt lat="48.5149" lon="-2.02755">
        <ele>108.5</ele>
        <time>2010-07-24T10:22:15</time>
      </trkpt>
      <trkpt lat="48.51485" lon="-2.02761">
        <ele>109</ele>
        <time>2010-07-24T10:22:18</time>
      </trkpt>
      <trkpt lat="48.51474" lon="-2.02774">
        <ele>108</ele>
        <time>2010-07-24T10:22:24</time>
      </trkpt>
      <trkpt lat="48.51469" lon="-2.0278">
        <ele>109</ele>
        <time>2010-07-24T10:22:27</time>
      </trkpt>
      <trkpt lat="48.51464" lon="-2.02785">
        <ele>109</ele>
        <time>2010-07-24T10:22:30</time>
      </trkpt>
      <trkpt lat="48.51459" lon="-2.0279">
        <ele>109.5</ele>
        <time>2010-07-24T10:22:33</time>
      </trkpt>
      <trkpt lat="48.51454" lon="-2.02794">
        <ele>109.5</ele>
        <time>2010-07-24T10:22:37</time>
      </trkpt>
      <trkpt lat="48.51443" lon="-2.02796">
        <ele>109.5</ele>
        <time>2010-07-24T10:22:42</time>
      </trkpt>
      <trkpt lat="48.51438" lon="-2.02793">
        <ele>109.5</ele>
        <time>2010-07-24T10:22:45</time>
      </trkpt>
      <trkpt lat="48.51432" lon="-2.02789">
        <ele>109.5</ele>
        <time>2010-07-24T10:22:48</time>
      </trkpt>
      <trkpt lat="48.51421" lon="-2.02781">
        <ele>108</ele>
        <time>2010-07-24T10:22:54</time>
      </trkpt>
      <trkpt lat="48.51416" lon="-2.02777">
        <ele>107</ele>
        <time>2010-07-24T10:22:57</time>
      </trkpt>
      <trkpt lat="48.51411" lon="-2.02772">
        <ele>106.5</ele>
        <time>2010-07-24T10:23:00</time>
      </trkpt>
      <trkpt lat="48.51406" lon="-2.02767">
        <ele>107.5</ele>
        <time>2010-07-24T10:23:03</time>
      </trkpt>
      <trkpt lat="48.51401" lon="-2.02764">
        <ele>108</ele>
        <time>2010-07-24T10:23:06</time>
      </trkpt>
      <trkpt lat="48.51395" lon="-2.02763">
        <ele>108.5</ele>
        <time>2010-07-24T10:23:09</time>
      </trkpt>
      <trkpt lat="48.51391" lon="-2.02765">
        <ele>108.5</ele>
        <time>2010-07-24T10:23:12</time>
      </trkpt>
      <trkpt lat="48.51386" lon="-2.02769">
        <ele>108.5</ele>
        <time>2010-07-24T10:23:15</time>
      </trkpt>
      <trkpt lat="48.51383" lon="-2.02774">
        <ele>109.5</ele>
        <time>2010-07-24T10:23:18</time>
      </trkpt>
      <trkpt lat="48.5138" lon="-2.02779">
        <ele>109.5</ele>
        <time>2010-07-24T10:23:21</time>
      </trkpt>
      <trkpt lat="48.51379" lon="-2.02783">
        <ele>110</ele>
        <time>2010-07-24T10:23:24</time>
      </trkpt>
      <trkpt lat="48.51377" lon="-2.02787">
        <ele>111</ele>
        <time>2010-07-24T10:23:27</time>
      </trkpt>
      <trkpt lat="48.51376" lon="-2.02792">
        <ele>112</ele>
        <time>2010-07-24T10:23:30</time>
      </trkpt>
      <trkpt lat="48.51374" lon="-2.02798">
        <ele>112.5</ele>
        <time>2010-07-24T10:23:33</time>
      </trkpt>
      <trkpt lat="48.51372" lon="-2.02802">
        <ele>114.5</ele>
        <time>2010-07-24T10:23:36</time>
      </trkpt>
      <trkpt lat="48.5137" lon="-2.02808">
        <ele>115</ele>
        <time>2010-07-24T10:23:39</time>
      </trkpt>
      <trkpt lat="48.51367" lon="-2.02815">
        <ele>115.5</ele>
        <time>2010-07-24T10:23:42</time>
      </trkpt>
      <trkpt lat="48.51364" lon="-2.0282">
        <ele>116</ele>
        <time>2010-07-24T10:23:45</time>
      </trkpt>
      <trkpt lat="48.5136" lon="-2.02826">
        <ele>116.5</ele>
        <time>2010-07-24T10:23:48</time>
      </trkpt>
      <trkpt lat="48.51356" lon="-2.02832">
        <ele>117</ele>
        <time>2010-07-24T10:23:51</time>
      </trkpt>
      <trkpt lat="48.51352" lon="-2.02836">
        <ele>118</ele>
        <time>2010-07-24T10:23:54</time>
      </trkpt>
      <trkpt lat="48.51347" lon="-2.0284">
        <ele>118.5</ele>
        <time>2010-07-24T10:23:57</time>
      </trkpt>
      <trkpt lat="48.5134" lon="-2.02844">
        <ele>119.5</ele>
        <time>2010-07-24T10:24:00</time>
      </trkpt>
      <trkpt lat="48.51334" lon="-2.02848">
        <ele>120</ele>
        <time>2010-07-24T10:24:03</time>
      </trkpt>
      <trkpt lat="48.51329" lon="-2.02849">
        <ele>121.5</ele>
        <time>2010-07-24T10:24:06</time>
      </trkpt>
      <trkpt lat="48.51324" lon="-2.02848">
        <ele>123.5</ele>
        <time>2010-07-24T10:24:09</time>
      </trkpt>
      <trkpt lat="48.5132" lon="-2.02847">
        <ele>124</ele>
        <time>2010-07-24T10:24:12</time>
      </trkpt>
      <trkpt lat="48.51319" lon="-2.02848">
        <ele>124</ele>
        <time>2010-07-24T10:24:15</time>
      </trkpt>
      <trkpt lat="48.51319" lon="-2.02849">
        <ele>123.5</ele>
        <time>2010-07-24T10:24:18</time>
      </trkpt>
      <trkpt lat="48.51318" lon="-2.02848">
        <ele>124</ele>
        <time>2010-07-24T10:24:21</time>
      </trkpt>
      <trkpt lat="48.51316" lon="-2.02847">
        <ele>124</ele>
        <time>2010-07-24T10:24:24</time>
      </trkpt>
      <trkpt lat="48.51315" lon="-2.02845">
        <ele>125</ele>
        <time>2010-07-24T10:24:27</time>
      </trkpt>
      <trkpt lat="48.51314" lon="-2.02842">
        <ele>126.5</ele>
        <time>2010-07-24T10:24:30</time>
      </trkpt>
      <trkpt lat="48.51312" lon="-2.02841">
        <ele>126.5</ele>
        <time>2010-07-24T10:24:33</time>
      </trkpt>
      <trkpt lat="48.51312" lon="-2.0284">
        <ele>127</ele>
        <time>2010-07-24T10:24:36</time>
      </trkpt>
      <trkpt lat="48.51312" lon="-2.0284">
        <ele>127.5</ele>
        <time>2010-07-24T10:24:39</time>
      </trkpt>
      <trkpt lat="48.51312" lon="-2.02839">
        <ele>128</ele>
        <time>2010-07-24T10:24:42</time>
      </trkpt>
      <trkpt lat="48.51311" lon="-2.02837">
        <ele>129</ele>
        <time>2010-07-24T10:24:45</time>
      </trkpt>
      <trkpt lat="48.5131" lon="-2.02837">
        <ele>130.5</ele>
        <time>2010-07-24T10:24:48</time>
      </trkpt>
      <trkpt lat="48.5131" lon="-2.02835">
        <ele>131</ele>
        <time>2010-07-24T10:24:51</time>
      </trkpt>
      <trkpt lat="48.51309" lon="-2.02836">
        <ele>131</ele>
        <time>2010-07-24T10:24:54</time>
      </trkpt>
      <trkpt lat="48.51309" lon="-2.02836">
        <ele>131</ele>
        <time>2010-07-24T10:24:57</time>
      </trkpt>
      <trkpt lat="48.51307" lon="-2.02834">
        <ele>132</ele>
        <time>2010-07-24T10:25:00</time>
      </trkpt>
      <trkpt lat="48.51304" lon="-2.02833">
        <ele>131.5</ele>
        <time>2010-07-24T10:25:03</time>
      </trkpt>
      <trkpt lat="48.51302" lon="-2.02831">
        <ele>132</ele>
        <time>2010-07-24T10:25:06</time>
      </trkpt>
      <trkpt lat="48.51299" lon="-2.02829">
        <ele>132</ele>
        <time>2010-07-24T10:25:09</time>
      </trkpt>
      <trkpt lat="48.51298" lon="-2.02827">
        <ele>133</ele>
        <time>2010-07-24T10:25:12</time>
      </trkpt>
      <trkpt lat="48.51297" lon="-2.02824">
        <ele>134.5</ele>
        <time>2010-07-24T10:25:15</time>
      </trkpt>
      <trkpt lat="48.51295" lon="-2.02821">
        <ele>135</ele>
        <time>2010-07-24T10:25:18</time>
      </trkpt>
      <trkpt lat="48.51294" lon="-2.02818">
        <ele>135.5</ele>
        <time>2010-07-24T10:25:21</time>
      </trkpt>
      <trkpt lat="48.51293" lon="-2.02814">
        <ele>137</ele>
        <time>2010-07-24T10:25:24</time>
      </trkpt>
      <trkpt lat="48.51292" lon="-2.02811">
        <ele>138</ele>
        <time>2010-07-24T10:25:27</time>
      </trkpt>
      <trkpt lat="48.51291" lon="-2.02807">
        <ele>139.5</ele>
        <time>2010-07-24T10:25:30</time>
      </trkpt>
      <trkpt lat="48.51289" lon="-2.02798">
        <ele>140.5</ele>
        <time>2010-07-24T10:25:36</time>
      </trkpt>
      <trkpt lat="48.51287" lon="-2.02789">
        <ele>141.5</ele>
        <time>2010-07-24T10:25:39</time>
      </trkpt>
      <trkpt lat="48.51284" lon="-2.02779">
        <ele>141.5</ele>
        <time>2010-07-24T10:25:42</time>
      </trkpt>
      <trkpt lat="48.51277" lon="-2.02761">
        <ele>144</ele>
        <time>2010-07-24T10:25:48</time>
      </trkpt>
      <trkpt lat="48.51272" lon="-2.02753">
        <ele>144</ele>
        <time>2010-07-24T10:25:51</time>
      </trkpt>
      <trkpt lat="48.51267" lon="-2.02744">
        <ele>144.5</ele>
        <time>2010-07-24T10:25:54</time>
      </trkpt>
      <trkpt lat="48.51263" lon="-2.02736">
        <ele>145</ele>
        <time>2010-07-24T10:25:57</time>
      </trkpt>
      <trkpt lat="48.51259" lon="-2.02728">
        <ele>145.5</ele>
        <time>2010-07-24T10:26:00</time>
      </trkpt>
      <trkpt lat="48.51255" lon="-2.0272">
        <ele>145.5</ele>
        <time>2010-07-24T10:26:03</time>
      </trkpt>
      <trkpt lat="48.51252" lon="-2.02713">
        <ele>145.5</ele>
        <time>2010-07-24T10:26:06</time>
      </trkpt>
      <trkpt lat="48.51245" lon="-2.02699">
        <ele>138</ele>
        <time>2010-07-24T10:26:09</time>
      </trkpt>
      <trkpt lat="48.51241" lon="-2.02688">
        <ele>135</ele>
        <time>2010-07-24T10:26:12</time>
      </trkpt>
      <trkpt lat="48.51236" lon="-2.02679">
        <ele>134</ele>
        <time>2010-07-24T10:26:15</time>
      </trkpt>
      <trkpt lat="48.5123" lon="-2.02669">
        <ele>135</ele>
        <time>2010-07-24T10:26:18</time>
      </trkpt>
      <trkpt lat="48.51225" lon="-2.0266">
        <ele>136</ele>
        <time>2010-07-24T10:26:21</time>
      </trkpt>
      <trkpt lat="48.5122" lon="-2.02652">
        <ele>136</ele>
        <time>2010-07-24T10:26:24</time>
      </trkpt>
      <trkpt lat="48.51216" lon="-2.02644">
        <ele>136.5</ele>
        <time>2010-07-24T10:26:27</time>
      </trkpt>
      <trkpt lat="48.51211" lon="-2.02635">
        <ele>136</ele>
        <time>2010-07-24T10:26:30</time>
      </trkpt>
      <trkpt lat="48.51208" lon="-2.02624">
        <ele>135</ele>
        <time>2010-07-24T10:26:33</time>
      </trkpt>
      <trkpt lat="48.51209" lon="-2.02612">
        <ele>135</ele>
        <time>2010-07-24T10:26:36</time>
      </trkpt>
      <trkpt lat="48.51211" lon="-2.02602">
        <ele>135</ele>
        <time>2010-07-24T10:26:39</time>
      </trkpt>
      <trkpt lat="48.51213" lon="-2.02595">
        <ele>134</ele>
        <time>2010-07-24T10:26:42</time>
      </trkpt>
      <trkpt lat="48.51217" lon="-2.02588">
        <ele>133</ele>
        <time>2010-07-24T10:26:45</time>
      </trkpt>
      <trkpt lat="48.51221" lon="-2.02581">
        <ele>132</ele>
        <time>2010-07-24T10:26:48</time>
      </trkpt>
      <trkpt lat="48.51228" lon="-2.02569">
        <ele>132</ele>
        <time>2010-07-24T10:26:51</time>
      </trkpt>
      <trkpt lat="48.51236" lon="-2.02556">
        <ele>132</ele>
        <time>2010-07-24T10:26:54</time>
      </trkpt>
      <trkpt lat="48.51245" lon="-2.02541">
        <ele>132.5</ele>
        <time>2010-07-24T10:26:57</time>
      </trkpt>
      <trkpt lat="48.51257" lon="-2.02524">
        <ele>131</ele>
        <time>2010-07-24T10:27:00</time>
      </trkpt>
      <trkpt lat="48.51271" lon="-2.02505">
        <ele>131</ele>
        <time>2010-07-24T10:27:03</time>
      </trkpt>
      <trkpt lat="48.51284" lon="-2.02488">
        <ele>132</ele>
        <time>2010-07-24T10:27:07</time>
      </trkpt>
      <trkpt lat="48.51301" lon="-2.02468">
        <ele>132</ele>
        <time>2010-07-24T10:27:09</time>
      </trkpt>
      <trkpt lat="48.51314" lon="-2.02452">
        <ele>132</ele>
        <time>2010-07-24T10:27:12</time>
      </trkpt>
      <trkpt lat="48.51324" lon="-2.02441">
        <ele>132</ele>
        <time>2010-07-24T10:27:15</time>
      </trkpt>
      <trkpt lat="48.51339" lon="-2.02425">
        <ele>132</ele>
        <time>2010-07-24T10:27:19</time>
      </trkpt>
      <trkpt lat="48.51348" lon="-2.0242">
        <ele>132</ele>
        <time>2010-07-24T10:27:22</time>
      </trkpt>
      <trkpt lat="48.5136" lon="-2.02412">
        <ele>132</ele>
        <time>2010-07-24T10:27:25</time>
      </trkpt>
      <trkpt lat="48.51361" lon="-2.02408">
        <ele>132</ele>
        <time>2010-07-24T10:27:28</time>
      </trkpt>
      <trkpt lat="48.51363" lon="-2.02406">
        <ele>132.5</ele>
        <time>2010-07-24T10:27:31</time>
      </trkpt>
      <trkpt lat="48.51362" lon="-2.02405">
        <ele>132.5</ele>
        <time>2010-07-24T10:27:34</time>
      </trkpt>
      <trkpt lat="48.51363" lon="-2.02404">
        <ele>132</ele>
        <time>2010-07-24T10:27:37</time>
      </trkpt>
      <trkpt lat="48.51363" lon="-2.02403">
        <ele>132</ele>
        <time>2010-07-24T10:27:40</time>
      </trkpt>
      <trkpt lat="48.51363" lon="-2.02401">
        <ele>131.5</ele>
        <time>2010-07-24T10:27:43</time>
      </trkpt>
      <trkpt lat="48.51362" lon="-2.02399">
        <ele>131</ele>
        <time>2010-07-24T10:27:46</time>
      </trkpt>
      <trkpt lat="48.51358" lon="-2.02394">
        <ele>131</ele>
        <time>2010-07-24T10:27:49</time>
      </trkpt>
      <trkpt lat="48.51355" lon="-2.02392">
        <ele>131.5</ele>
        <time>2010-07-24T10:27:52</time>
      </trkpt>
      <trkpt lat="48.5135" lon="-2.02389">
        <ele>131.5</ele>
        <time>2010-07-24T10:27:55</time>
      </trkpt>
      <trkpt lat="48.51348" lon="-2.02385">
        <ele>132</ele>
        <time>2010-07-24T10:27:58</time>
      </trkpt>
      <trkpt lat="48.51346" lon="-2.02382">
        <ele>134.5</ele>
        <time>2010-07-24T10:28:01</time>
      </trkpt>
      <trkpt lat="48.51345" lon="-2.0238">
        <ele>135.5</ele>
        <time>2010-07-24T10:28:04</time>
      </trkpt>
      <trkpt lat="48.51343" lon="-2.02377">
        <ele>135.5</ele>
        <time>2010-07-24T10:28:07</time>
      </trkpt>
      <trkpt lat="48.51342" lon="-2.02375">
        <ele>135.5</ele>
        <time>2010-07-24T10:28:10</time>
      </trkpt>
      <trkpt lat="48.51341" lon="-2.0237">
        <ele>135.5</ele>
        <time>2010-07-24T10:28:13</time>
      </trkpt>
      <trkpt lat="48.51339" lon="-2.02365">
        <ele>136</ele>
        <time>2010-07-24T10:28:16</time>
      </trkpt>
      <trkpt lat="48.51337" lon="-2.02361">
        <ele>137</ele>
        <time>2010-07-24T10:28:19</time>
      </trkpt>
      <trkpt lat="48.51335" lon="-2.02356">
        <ele>137.5</ele>
        <time>2010-07-24T10:28:22</time>
      </trkpt>
      <trkpt lat="48.51332" lon="-2.02353">
        <ele>138</ele>
        <time>2010-07-24T10:28:25</time>
      </trkpt>
      <trkpt lat="48.51332" lon="-2.0235">
        <ele>139</ele>
        <time>2010-07-24T10:28:28</time>
      </trkpt>
      <trkpt lat="48.51329" lon="-2.02346">
        <ele>139</ele>
        <time>2010-07-24T10:28:31</time>
      </trkpt>
      <trkpt lat="48.51328" lon="-2.02342">
        <ele>139</ele>
        <time>2010-07-24T10:28:34</time>
      </trkpt>
      <trkpt lat="48.51329" lon="-2.02337">
        <ele>139.5</ele>
        <time>2010-07-24T10:28:37</time>
      </trkpt>
      <trkpt lat="48.51328" lon="-2.02332">
        <ele>139</ele>
        <time>2010-07-24T10:28:40</time>
      </trkpt>
      <trkpt lat="48.51325" lon="-2.02329">
        <ele>139</ele>
        <time>2010-07-24T10:28:43</time>
      </trkpt>
      <trkpt lat="48.51319" lon="-2.02323">
        <ele>138.5</ele>
        <time>2010-07-24T10:28:46</time>
      </trkpt>
      <trkpt lat="48.51315" lon="-2.02317">
        <ele>138.5</ele>
        <time>2010-07-24T10:28:49</time>
      </trkpt>
      <trkpt lat="48.51311" lon="-2.0231">
        <ele>136</ele>
        <time>2010-07-24T10:28:52</time>
      </trkpt>
      <trkpt lat="48.51309" lon="-2.02298">
        <ele>132.5</ele>
        <time>2010-07-24T10:28:55</time>
      </trkpt>
      <trkpt lat="48.51305" lon="-2.02288">
        <ele>128.5</ele>
        <time>2010-07-24T10:28:58</time>
      </trkpt>
      <trkpt lat="48.51299" lon="-2.02281">
        <ele>125.5</ele>
        <time>2010-07-24T10:29:01</time>
      </trkpt>
      <trkpt lat="48.51295" lon="-2.02274">
        <ele>123.5</ele>
        <time>2010-07-24T10:29:04</time>
      </trkpt>
      <trkpt lat="48.51291" lon="-2.02268">
        <ele>121</ele>
        <time>2010-07-24T10:29:07</time>
      </trkpt>
      <trkpt lat="48.51286" lon="-2.02265">
        <ele>120.5</ele>
        <time>2010-07-24T10:29:10</time>
      </trkpt>
      <trkpt lat="48.51279" lon="-2.02263">
        <ele>120.5</ele>
        <time>2010-07-24T10:29:13</time>
      </trkpt>
      <trkpt lat="48.51274" lon="-2.02258">
        <ele>121</ele>
        <time>2010-07-24T10:29:16</time>
      </trkpt>
      <trkpt lat="48.5127" lon="-2.02252">
        <ele>121</ele>
        <time>2010-07-24T10:29:19</time>
      </trkpt>
      <trkpt lat="48.51265" lon="-2.02245">
        <ele>121</ele>
        <time>2010-07-24T10:29:22</time>
      </trkpt>
      <trkpt lat="48.51258" lon="-2.02238">
        <ele>118</ele>
        <time>2010-07-24T10:29:25</time>
      </trkpt>
      <trkpt lat="48.51253" lon="-2.02229">
        <ele>113.5</ele>
        <time>2010-07-24T10:29:28</time>
      </trkpt>
      <trkpt lat="48.51244" lon="-2.02223">
        <ele>115</ele>
        <time>2010-07-24T10:29:31</time>
      </trkpt>
      <trkpt lat="48.51237" lon="-2.02215">
        <ele>117.5</ele>
        <time>2010-07-24T10:29:34</time>
      </trkpt>
      <trkpt lat="48.51231" lon="-2.02209">
        <ele>118</ele>
        <time>2010-07-24T10:29:37</time>
      </trkpt>
      <trkpt lat="48.51226" lon="-2.02204">
        <ele>117.5</ele>
        <time>2010-07-24T10:29:40</time>
      </trkpt>
      <trkpt lat="48.5122" lon="-2.02198">
        <ele>115</ele>
        <time>2010-07-24T10:29:43</time>
      </trkpt>
      <trkpt lat="48.51213" lon="-2.02192">
        <ele>112</ele>
        <time>2010-07-24T10:29:46</time>
      </trkpt>
      <trkpt lat="48.51207" lon="-2.02187">
        <ele>110</ele>
        <time>2010-07-24T10:29:49</time>
      </trkpt>
      <trkpt lat="48.51201" lon="-2.02184">
        <ele>112</ele>
        <time>2010-07-24T10:29:52</time>
      </trkpt>
      <trkpt lat="48.51196" lon="-2.0218">
        <ele>116</ele>
        <time>2010-07-24T10:29:55</time>
      </trkpt>
      <trkpt lat="48.5119" lon="-2.02177">
        <ele>118.5</ele>
        <time>2010-07-24T10:29:58</time>
      </trkpt>
      <trkpt lat="48.51186" lon="-2.02173">
        <ele>121</ele>
        <time>2010-07-24T10:30:01</time>
      </trkpt>
      <trkpt lat="48.51172" lon="-2.0216">
        <ele>119</ele>
        <time>2010-07-24T10:30:07</time>
      </trkpt>
      <trkpt lat="48.51166" lon="-2.02155">
        <ele>117.5</ele>
        <time>2010-07-24T10:30:10</time>
      </trkpt>
      <trkpt lat="48.51159" lon="-2.0215">
        <ele>116</ele>
        <time>2010-07-24T10:30:13</time>
      </trkpt>
      <trkpt lat="48.51153" lon="-2.02147">
        <ele>115.5</ele>
        <time>2010-07-24T10:30:16</time>
      </trkpt>
      <trkpt lat="48.51149" lon="-2.02142">
        <ele>116</ele>
        <time>2010-07-24T10:30:19</time>
      </trkpt>
      <trkpt lat="48.51143" lon="-2.02137">
        <ele>115.5</ele>
        <time>2010-07-24T10:30:22</time>
      </trkpt>
      <trkpt lat="48.51138" lon="-2.02133">
        <ele>116.5</ele>
        <time>2010-07-24T10:30:25</time>
      </trkpt>
      <trkpt lat="48.51131" lon="-2.02127">
        <ele>113.5</ele>
        <time>2010-07-24T10:30:28</time>
      </trkpt>
      <trkpt lat="48.51124" lon="-2.02121">
        <ele>111</ele>
        <time>2010-07-24T10:30:31</time>
      </trkpt>
      <trkpt lat="48.51116" lon="-2.02115">
        <ele>108</ele>
        <time>2010-07-24T10:30:34</time>
      </trkpt>
      <trkpt lat="48.5111" lon="-2.02109">
        <ele>109</ele>
        <time>2010-07-24T10:30:37</time>
      </trkpt>
      <trkpt lat="48.51106" lon="-2.02105">
        <ele>111</ele>
        <time>2010-07-24T10:30:40</time>
      </trkpt>
      <trkpt lat="48.511" lon="-2.02099">
        <ele>113.5</ele>
        <time>2010-07-24T10:30:43</time>
      </trkpt>
      <trkpt lat="48.51091" lon="-2.02093">
        <ele>115</ele>
        <time>2010-07-24T10:30:46</time>
      </trkpt>
      <trkpt lat="48.51083" lon="-2.02087">
        <ele>117</ele>
        <time>2010-07-24T10:30:49</time>
      </trkpt>
      <trkpt lat="48.51078" lon="-2.0208">
        <ele>117.5</ele>
        <time>2010-07-24T10:30:52</time>
      </trkpt>
      <trkpt lat="48.5107" lon="-2.02073">
        <ele>116.5</ele>
        <time>2010-07-24T10:30:55</time>
      </trkpt>
      <trkpt lat="48.51064" lon="-2.02073">
        <ele>118</ele>
        <time>2010-07-24T10:30:58</time>
      </trkpt>
      <trkpt lat="48.51054" lon="-2.02075">
        <ele>119.5</ele>
        <time>2010-07-24T10:31:01</time>
      </trkpt>
      <trkpt lat="48.51044" lon="-2.02078">
        <ele>121</ele>
        <time>2010-07-24T10:31:04</time>
      </trkpt>
      <trkpt lat="48.5103" lon="-2.02077">
        <ele>124.5</ele>
        <time>2010-07-24T10:31:07</time>
      </trkpt>
      <trkpt lat="48.51007" lon="-2.02074">
        <ele>127.5</ele>
        <time>2010-07-24T10:31:13</time>
      </trkpt>
      <trkpt lat="48.50994" lon="-2.02074">
        <ele>130</ele>
        <time>2010-07-24T10:31:16</time>
      </trkpt>
      <trkpt lat="48.50981" lon="-2.02075">
        <ele>132</ele>
        <time>2010-07-24T10:31:20</time>
      </trkpt>
      <trkpt lat="48.50966" lon="-2.02076">
        <ele>133.5</ele>
        <time>2010-07-24T10:31:25</time>
      </trkpt>
      <trkpt lat="48.50953" lon="-2.02076">
        <ele>134</ele>
        <time>2010-07-24T10:31:29</time>
      </trkpt>
      <trkpt lat="48.50948" lon="-2.02079">
        <ele>136</ele>
        <time>2010-07-24T10:31:32</time>
      </trkpt>
      <trkpt lat="48.50947" lon="-2.02084">
        <ele>138.5</ele>
        <time>2010-07-24T10:31:35</time>
      </trkpt>
      <trkpt lat="48.50944" lon="-2.02084">
        <ele>138.5</ele>
        <time>2010-07-24T10:31:38</time>
      </trkpt>
      <trkpt lat="48.50935" lon="-2.0208">
        <ele>138.5</ele>
        <time>2010-07-24T10:31:41</time>
      </trkpt>
      <trkpt lat="48.5093" lon="-2.02073">
        <ele>139</ele>
        <time>2010-07-24T10:31:44</time>
      </trkpt>
      <trkpt lat="48.50924" lon="-2.02068">
        <ele>138.5</ele>
        <time>2010-07-24T10:31:47</time>
      </trkpt>
      <trkpt lat="48.5092" lon="-2.02062">
        <ele>139</ele>
        <time>2010-07-24T10:31:50</time>
      </trkpt>
      <trkpt lat="48.50912" lon="-2.02056">
        <ele>138.5</ele>
        <time>2010-07-24T10:31:53</time>
      </trkpt>
      <trkpt lat="48.50899" lon="-2.02052">
        <ele>139</ele>
        <time>2010-07-24T10:31:56</time>
      </trkpt>
      <trkpt lat="48.50883" lon="-2.02051">
        <ele>140</ele>
        <time>2010-07-24T10:31:59</time>
      </trkpt>
      <trkpt lat="48.50868" lon="-2.02054">
        <ele>141</ele>
        <time>2010-07-24T10:32:02</time>
      </trkpt>
      <trkpt lat="48.50853" lon="-2.02058">
        <ele>141</ele>
        <time>2010-07-24T10:32:05</time>
      </trkpt>
      <trkpt lat="48.50838" lon="-2.02062">
        <ele>140.5</ele>
        <time>2010-07-24T10:32:08</time>
      </trkpt>
      <trkpt lat="48.50824" lon="-2.02064">
        <ele>140.5</ele>
        <time>2010-07-24T10:32:11</time>
      </trkpt>
      <trkpt lat="48.50811" lon="-2.02062">
        <ele>140.5</ele>
        <time>2010-07-24T10:32:14</time>
      </trkpt>
      <trkpt lat="48.508" lon="-2.02061">
        <ele>140.5</ele>
        <time>2010-07-24T10:32:17</time>
      </trkpt>
      <trkpt lat="48.5079" lon="-2.02059">
        <ele>141</ele>
        <time>2010-07-24T10:32:20</time>
      </trkpt>
      <trkpt lat="48.5078" lon="-2.02059">
        <ele>143</ele>
        <time>2010-07-24T10:32:23</time>
      </trkpt>
      <trkpt lat="48.50767" lon="-2.02056">
        <ele>141.5</ele>
        <time>2010-07-24T10:32:26</time>
      </trkpt>
      <trkpt lat="48.50756" lon="-2.02053">
        <ele>140</ele>
        <time>2010-07-24T10:32:29</time>
      </trkpt>
      <trkpt lat="48.50744" lon="-2.02052">
        <ele>138.5</ele>
        <time>2010-07-24T10:32:32</time>
      </trkpt>
      <trkpt lat="48.50733" lon="-2.0205">
        <ele>137.5</ele>
        <time>2010-07-24T10:32:35</time>
      </trkpt>
      <trkpt lat="48.50725" lon="-2.02046">
        <ele>136.5</ele>
        <time>2010-07-24T10:32:38</time>
      </trkpt>
      <trkpt lat="48.50721" lon="-2.02044">
        <ele>135</ele>
        <time>2010-07-24T10:32:41</time>
      </trkpt>
      <trkpt lat="48.50714" lon="-2.02044">
        <ele>134</ele>
        <time>2010-07-24T10:32:44</time>
      </trkpt>
      <trkpt lat="48.50707" lon="-2.0205">
        <ele>134.5</ele>
        <time>2010-07-24T10:32:47</time>
      </trkpt>
      <trkpt lat="48.50696" lon="-2.02057">
        <ele>135.5</ele>
        <time>2010-07-24T10:32:50</time>
      </trkpt>
      <trkpt lat="48.50681" lon="-2.02063">
        <ele>132.5</ele>
        <time>2010-07-24T10:32:53</time>
      </trkpt>
      <trkpt lat="48.50664" lon="-2.02073">
        <ele>128.5</ele>
        <time>2010-07-24T10:32:56</time>
      </trkpt>
      <trkpt lat="48.50649" lon="-2.02085">
        <ele>127.5</ele>
        <time>2010-07-24T10:32:59</time>
      </trkpt>
      <trkpt lat="48.50632" lon="-2.02101">
        <ele>127</ele>
        <time>2010-07-24T10:33:02</time>
      </trkpt>
      <trkpt lat="48.50614" lon="-2.02119">
        <ele>124.5</ele>
        <time>2010-07-24T10:33:05</time>
      </trkpt>
      <trkpt lat="48.50598" lon="-2.02139">
        <ele>123</ele>
        <time>2010-07-24T10:33:08</time>
      </trkpt>
      <trkpt lat="48.50582" lon="-2.02161">
        <ele>122.5</ele>
        <time>2010-07-24T10:33:11</time>
      </trkpt>
      <trkpt lat="48.50566" lon="-2.02184">
        <ele>121</ele>
        <time>2010-07-24T10:33:14</time>
      </trkpt>
      <trkpt lat="48.5055" lon="-2.02207">
        <ele>121.5</ele>
        <time>2010-07-24T10:33:17</time>
      </trkpt>
      <trkpt lat="48.50534" lon="-2.02229">
        <ele>122.5</ele>
        <time>2010-07-24T10:33:20</time>
      </trkpt>
      <trkpt lat="48.50518" lon="-2.02253">
        <ele>123</ele>
        <time>2010-07-24T10:33:23</time>
      </trkpt>
      <trkpt lat="48.50501" lon="-2.02278">
        <ele>123</ele>
        <time>2010-07-24T10:33:26</time>
      </trkpt>
      <trkpt lat="48.5048" lon="-2.02295">
        <ele>122.5</ele>
        <time>2010-07-24T10:33:29</time>
      </trkpt>
      <trkpt lat="48.50456" lon="-2.0231">
        <ele>122</ele>
        <time>2010-07-24T10:33:32</time>
      </trkpt>
      <trkpt lat="48.50431" lon="-2.02324">
        <ele>121.5</ele>
        <time>2010-07-24T10:33:35</time>
      </trkpt>
      <trkpt lat="48.50407" lon="-2.02338">
        <ele>121</ele>
        <time>2010-07-24T10:33:38</time>
      </trkpt>
      <trkpt lat="48.50385" lon="-2.02353">
        <ele>121</ele>
        <time>2010-07-24T10:33:41</time>
      </trkpt>
      <trkpt lat="48.50364" lon="-2.02374">
        <ele>120</ele>
        <time>2010-07-24T10:33:44</time>
      </trkpt>
      <trkpt lat="48.5032" lon="-2.02424">
        <ele>117.5</ele>
        <time>2010-07-24T10:33:53</time>
      </trkpt>
      <trkpt lat="48.50295" lon="-2.02465">
        <ele>101</ele>
        <time>2010-07-24T10:33:56</time>
      </trkpt>
      <trkpt lat="48.50286" lon="-2.02474">
        <ele>114</ele>
        <time>2010-07-24T10:33:59</time>
      </trkpt>
      <trkpt lat="48.50267" lon="-2.02493">
        <ele>110</ele>
        <time>2010-07-24T10:34:02</time>
      </trkpt>
      <trkpt lat="48.50231" lon="-2.02524">
        <ele>106.5</ele>
        <time>2010-07-24T10:34:08</time>
      </trkpt>
      <trkpt lat="48.50217" lon="-2.02543">
        <ele>106</ele>
        <time>2010-07-24T10:34:11</time>
      </trkpt>
      <trkpt lat="48.50204" lon="-2.02564">
        <ele>105</ele>
        <time>2010-07-24T10:34:14</time>
      </trkpt>
      <trkpt lat="48.5018" lon="-2.02596">
        <ele>104</ele>
        <time>2010-07-24T10:34:20</time>
      </trkpt>
      <trkpt lat="48.50167" lon="-2.02605">
        <ele>105</ele>
        <time>2010-07-24T10:34:23</time>
      </trkpt>
      <trkpt lat="48.5016" lon="-2.02614">
        <ele>104.5</ele>
        <time>2010-07-24T10:34:26</time>
      </trkpt>
      <trkpt lat="48.5016" lon="-2.02621">
        <ele>107</ele>
        <time>2010-07-24T10:34:29</time>
      </trkpt>
      <trkpt lat="48.5016" lon="-2.02626">
        <ele>110</ele>
        <time>2010-07-24T10:34:32</time>
      </trkpt>
      <trkpt lat="48.5016" lon="-2.02632">
        <ele>112.5</ele>
        <time>2010-07-24T10:34:35</time>
      </trkpt>
      <trkpt lat="48.50158" lon="-2.0264">
        <ele>114.5</ele>
        <time>2010-07-24T10:34:38</time>
      </trkpt>
      <trkpt lat="48.50155" lon="-2.02646">
        <ele>115.5</ele>
        <time>2010-07-24T10:34:41</time>
      </trkpt>
      <trkpt lat="48.50152" lon="-2.02651">
        <ele>116</ele>
        <time>2010-07-24T10:34:44</time>
      </trkpt>
      <trkpt lat="48.50149" lon="-2.02657">
        <ele>115.5</ele>
        <time>2010-07-24T10:34:47</time>
      </trkpt>
      <trkpt lat="48.50145" lon="-2.02662">
        <ele>115.5</ele>
        <time>2010-07-24T10:34:50</time>
      </trkpt>
      <trkpt lat="48.50142" lon="-2.02668">
        <ele>115</ele>
        <time>2010-07-24T10:34:53</time>
      </trkpt>
      <trkpt lat="48.50139" lon="-2.02674">
        <ele>114.5</ele>
        <time>2010-07-24T10:34:56</time>
      </trkpt>
      <trkpt lat="48.50137" lon="-2.02679">
        <ele>114.5</ele>
        <time>2010-07-24T10:34:59</time>
      </trkpt>
      <trkpt lat="48.50133" lon="-2.02684">
        <ele>113.5</ele>
        <time>2010-07-24T10:35:02</time>
      </trkpt>
      <trkpt lat="48.50132" lon="-2.02687">
        <ele>113.5</ele>
        <time>2010-07-24T10:35:05</time>
      </trkpt>
      <trkpt lat="48.50129" lon="-2.02692">
        <ele>113.5</ele>
        <time>2010-07-24T10:35:08</time>
      </trkpt>
      <trkpt lat="48.50127" lon="-2.02695">
        <ele>115</ele>
        <time>2010-07-24T10:35:11</time>
      </trkpt>
      <trkpt lat="48.50126" lon="-2.02699">
        <ele>117.5</ele>
        <time>2010-07-24T10:35:14</time>
      </trkpt>
      <trkpt lat="48.50123" lon="-2.02705">
        <ele>117.5</ele>
        <time>2010-07-24T10:35:17</time>
      </trkpt>
      <trkpt lat="48.50118" lon="-2.02711">
        <ele>116.5</ele>
        <time>2010-07-24T10:35:20</time>
      </trkpt>
      <trkpt lat="48.50113" lon="-2.02716">
        <ele>116.5</ele>
        <time>2010-07-24T10:35:23</time>
      </trkpt>
      <trkpt lat="48.5011" lon="-2.02721">
        <ele>116.5</ele>
        <time>2010-07-24T10:35:26</time>
      </trkpt>
      <trkpt lat="48.50106" lon="-2.02726">
        <ele>116.5</ele>
        <time>2010-07-24T10:35:29</time>
      </trkpt>
      <trkpt lat="48.50101" lon="-2.02731">
        <ele>115.5</ele>
        <time>2010-07-24T10:35:32</time>
      </trkpt>
      <trkpt lat="48.50098" lon="-2.02735">
        <ele>115.5</ele>
        <time>2010-07-24T10:35:35</time>
      </trkpt>
      <trkpt lat="48.50094" lon="-2.0274">
        <ele>114.5</ele>
        <time>2010-07-24T10:35:38</time>
      </trkpt>
      <trkpt lat="48.50091" lon="-2.02744">
        <ele>113.5</ele>
        <time>2010-07-24T10:35:41</time>
      </trkpt>
      <trkpt lat="48.50088" lon="-2.0275">
        <ele>113</ele>
        <time>2010-07-24T10:35:44</time>
      </trkpt>
      <trkpt lat="48.50086" lon="-2.02755">
        <ele>115</ele>
        <time>2010-07-24T10:35:47</time>
      </trkpt>
      <trkpt lat="48.50086" lon="-2.02758">
        <ele>116.5</ele>
        <time>2010-07-24T10:35:50</time>
      </trkpt>
      <trkpt lat="48.50084" lon="-2.02761">
        <ele>117.5</ele>
        <time>2010-07-24T10:35:53</time>
      </trkpt>
      <trkpt lat="48.50081" lon="-2.02765">
        <ele>118</ele>
        <time>2010-07-24T10:35:56</time>
      </trkpt>
      <trkpt lat="48.50079" lon="-2.02767">
        <ele>118</ele>
        <time>2010-07-24T10:35:59</time>
      </trkpt>
      <trkpt lat="48.50072" lon="-2.02772">
        <ele>118.5</ele>
        <time>2010-07-24T10:36:02</time>
      </trkpt>
      <trkpt lat="48.50068" lon="-2.02778">
        <ele>118</ele>
        <time>2010-07-24T10:36:06</time>
      </trkpt>
      <trkpt lat="48.50066" lon="-2.02783">
        <ele>121</ele>
        <time>2010-07-24T10:36:08</time>
      </trkpt>
      <trkpt lat="48.50065" lon="-2.02789">
        <ele>124</ele>
        <time>2010-07-24T10:36:11</time>
      </trkpt>
      <trkpt lat="48.50064" lon="-2.02794">
        <ele>127</ele>
        <time>2010-07-24T10:36:14</time>
      </trkpt>
      <trkpt lat="48.50063" lon="-2.02801">
        <ele>129</ele>
        <time>2010-07-24T10:36:17</time>
      </trkpt>
      <trkpt lat="48.50063" lon="-2.02807">
        <ele>130.5</ele>
        <time>2010-07-24T10:36:20</time>
      </trkpt>
      <trkpt lat="48.50059" lon="-2.02813">
        <ele>130.5</ele>
        <time>2010-07-24T10:36:23</time>
      </trkpt>
      <trkpt lat="48.50057" lon="-2.02816">
        <ele>132.5</ele>
        <time>2010-07-24T10:36:26</time>
      </trkpt>
      <trkpt lat="48.50048" lon="-2.02824">
        <ele>130.5</ele>
        <time>2010-07-24T10:36:29</time>
      </trkpt>
      <trkpt lat="48.50037" lon="-2.02832">
        <ele>128.5</ele>
        <time>2010-07-24T10:36:32</time>
      </trkpt>
      <trkpt lat="48.50022" lon="-2.02846">
        <ele>121.5</ele>
        <time>2010-07-24T10:36:35</time>
      </trkpt>
      <trkpt lat="48.50012" lon="-2.02854">
        <ele>118</ele>
        <time>2010-07-24T10:36:38</time>
      </trkpt>
      <trkpt lat="48.50003" lon="-2.0286">
        <ele>116.5</ele>
        <time>2010-07-24T10:36:41</time>
      </trkpt>
      <trkpt lat="48.49987" lon="-2.02867">
        <ele>114</ele>
        <time>2010-07-24T10:36:44</time>
      </trkpt>
      <trkpt lat="48.49981" lon="-2.0287">
        <ele>113.5</ele>
        <time>2010-07-24T10:36:47</time>
      </trkpt>
      <trkpt lat="48.49971" lon="-2.02874">
        <ele>113</ele>
        <time>2010-07-24T10:36:50</time>
      </trkpt>
      <trkpt lat="48.49963" lon="-2.02874">
        <ele>113.5</ele>
        <time>2010-07-24T10:36:53</time>
      </trkpt>
      <trkpt lat="48.49957" lon="-2.0287">
        <ele>114.5</ele>
        <time>2010-07-24T10:36:56</time>
      </trkpt>
      <trkpt lat="48.49954" lon="-2.02867">
        <ele>114.5</ele>
        <time>2010-07-24T10:36:59</time>
      </trkpt>
      <trkpt lat="48.49954" lon="-2.02868">
        <ele>114</ele>
        <time>2010-07-24T10:37:03</time>
      </trkpt>
      <trkpt lat="48.49953" lon="-2.02868">
        <ele>114</ele>
        <time>2010-07-24T10:37:09</time>
      </trkpt>
      <trkpt lat="48.49953" lon="-2.02869">
        <ele>113.5</ele>
        <time>2010-07-24T10:37:12</time>
      </trkpt>
      <trkpt lat="48.49953" lon="-2.02869">
        <ele>113.5</ele>
        <time>2010-07-24T10:37:15</time>
      </trkpt>
      <trkpt lat="48.49952" lon="-2.0287">
        <ele>113</ele>
        <time>2010-07-24T10:37:18</time>
      </trkpt>
      <trkpt lat="48.49951" lon="-2.0287">
        <ele>113</ele>
        <time>2010-07-24T10:37:23</time>
      </trkpt>
      <trkpt lat="48.49951" lon="-2.0287">
        <ele>112.5</ele>
        <time>2010-07-24T10:37:26</time>
      </trkpt>
    </trkseg>
  </trk>
</gpx>